Darstellungsparameter: Aktuell verwendete Einstellungen:
Skalierung der Graphiken ... ?
xyx+y,   Skalierungsfaktor:      Skalierung: Modus: x, Faktor: 1
Darstellungszeitraum ... ?
Vom - - bis: - -   Zeitraum: 20.04.2010 - 19.04.2020
Min/Max/Avg-Anzeige ... ?
Zeige MMA aktuell
Zeige MMA Monat
Zeige MMA alles
Zeige --A aktuell
Zeige --A Monat
Zeige --A alles
Keine MMA-Anzeige
MMA:
Keine MMA-Graphiken
MMA-Basis: 20.04.2010 - 19.04.2020
Quicknavigation für Darstellung... ?
Tage:      1T, 2T, 3T, 5T -1T -2T -3T -5T +1T +2T +3T +5T
Wochen: 1W, 2W, 3W -1W -2W -3W +1W +2W +3W
Monate: 1M, 3M, 6M -1M -3M -6M +1M +3M +6M
Jahre:    1J, 3J, 5J, 10J -1J -3J -5J -10J +1J +3J +5J +10J
Nutze für die Darstellung ... ?
Originaldaten oder ...
Mittelwerte Minima Maxima auf...
Stundenbasis Tagesbasis Wochenbasis
Monatsbasis Jahresbasis      Datenbasis: Mittelwerte auf Tagesbasis
Darstellen als:
Statistik (Auto) Statistik J:M      Darstellung:
Zur Graphik,    zurück zur Übersicht aller Sensoren.
 
Tabellarische Datenbersicht: ?
 
Sensor: Nr:Datum:Temp:Feuchte:Taupunkt:
Aussen-T/F 1 20-04-2010 00:00:00 11.13833 C 50.6583 % 1.3 C
2 21-04-2010 00:00:00 7.34417 C 48.4667 % -2.8 C
3 22-04-2010 00:00:00 8.35333 C 45.1250 % -2.83 C
4 23-04-2010 00:00:00 11.44917 C 39.7500 % -1.74 C
5 24-04-2010 00:00:00 14.91167 C 35.7417 % -0.11 C
6 25-04-2010 00:00:00 17.1075 C 36.0667 % 1.96 C
7 26-04-2010 00:00:00 15.72269 C 52.7899 % 6.12 C
8 27-04-2010 00:00:00 15.50417 C 47.7417 % 4.48 C
9 28-04-2010 00:00:00 16.8925 C 44.0167 % 4.58 C
10 29-04-2010 00:00:00 19.21417 C 40.4917 % 5.48 C
11 30-04-2010 00:00:00 18.69583 C 44.4333 % 6.35 C
12 01-05-2010 00:00:00 15.09917 C 52.5333 % 5.47 C
13 02-05-2010 00:00:00 13.48583 C 65.3833 % 7.13 C
14 03-05-2010 00:00:00 10.01667 C 73.7583 % 5.56 C
15 04-05-2010 00:00:00 9.78833 C 59.6167 % 2.32 C
16 05-05-2010 00:00:00 10.09083 C 40.0167 % -2.87 C
17 06-05-2010 00:00:00 6.68167 C 89.3500 % 5.06 C
18 07-05-2010 00:00:00 6.49417 C 88.9000 % 4.8 C
19 08-05-2010 00:00:00 11.06218 C 63.5126 % 4.41 C
20 09-05-2010 00:00:00 12.575 C 62.7583 % 5.67 C
21 10-05-2010 00:00:00 11.99917 C 62.6167 % 5.1 C
22 11-05-2010 00:00:00 11.53167 C 66.0583 % 5.42 C
23 12-05-2010 00:00:00 8.62333 C 73.6000 % 4.18 C
24 13-05-2010 00:00:00 8.07667 C 75.9167 % 4.09 C
25 14-05-2010 00:00:00 8.97333 C 81.9833 % 6.07 C
Sensor: Nr:Datum:Temp:Feuchte:Taupunkt:
Aussen-T/F 26 15-05-2010 00:00:00 10.6825 C 60.3500 % 3.33 C
27 16-05-2010 00:00:00 13.32917 C 45.9333 % 1.95 C
28 17-05-2010 00:00:00 10.56917 C 73.2083 % 5.98 C
29 18-05-2010 00:00:00 11.44333 C 59.0083 % 3.73 C
30 19-05-2010 00:00:00 10.30583 C 66.0083 % 4.24 C
31 20-05-2010 00:00:00 12.64034 C 56.8739 % 4.32 C
32 21-05-2010 00:00:00 16.54333 C 54.3833 % 7.31 C
33 22-05-2010 00:00:00 18.32583 C 49.5167 % 7.59 C
34 23-05-2010 00:00:00 20.32083 C 49.1083 % 9.3 C
35 24-05-2010 00:00:00 21.23 C 48.1667 % 9.84 C
36 25-05-2010 00:00:00 20.64583 C 44.5083 % 8.14 C
37 26-05-2010 00:00:00 15.41917 C 68.9500 % 9.75 C
38 27-05-2010 00:00:00 15.6175 C 61.4583 % 8.24 C
39 28-05-2010 00:00:00 17.3075 C 53.8500 % 7.88 C
40 29-05-2010 00:00:00 16.34 C 52.0167 % 6.48 C
41 30-05-2010 00:00:00 14.5975 C 71.3750 % 9.48 C
42 31-05-2010 00:00:00 11.56667 C 78.6667 % 7.99 C
43 01-06-2010 00:00:00 16.01833 C 61.6500 % 8.66 C
44 02-06-2010 00:00:00 17.66471 C 51.7731 % 7.63 C
45 03-06-2010 00:00:00 20.49083 C 44.3000 % 7.93 C
46 04-06-2010 00:00:00 21.43 C 42.1333 % 8.04 C
47 05-06-2010 00:00:00 22.97667 C 42.9500 % 9.72 C
48 06-06-2010 00:00:00 20.91333 C 60.9250 % 13.1 C
49 07-06-2010 00:00:00 19.58833 C 53.6333 % 9.93 C
50 08-06-2010 00:00:00 19.76833 C 55.8333 % 10.7 C
Sensor: Nr:Datum:Temp:Feuchte:Taupunkt:
Aussen-T/F 51 09-06-2010 00:00:00 22.5625 C 56.5667 % 13.5 C
52 10-06-2010 00:00:00 22.76417 C 66.8333 % 16.28 C
53 11-06-2010 00:00:00 22.89167 C 56.7417 % 13.86 C
54 12-06-2010 00:00:00 18.84917 C 63.4750 % 11.77 C
55 13-06-2010 00:00:00 18.25083 C 50.0250 % 7.67 C
56 14-06-2010 00:00:00 19.76667 C 45.7833 % 7.76 C
57 15-06-2010 00:00:00 18.9 C 49.7311 % 8.18 C
58 16-06-2010 00:00:00 18.82833 C 38.3167 % 4.34 C
59 17-06-2010 00:00:00 15.08583 C 71.6167 % 10 C
60 18-06-2010 00:00:00 15.2325 C 71.9167 % 10.2 C
61 19-06-2010 00:00:00 14.2725 C 51.1167 % 4.32 C
62 20-06-2010 00:00:00 13.20333 C 59.2167 % 5.43 C
63 21-06-2010 00:00:00 14.11083 C 52.4833 % 4.55 C
64 22-06-2010 00:00:00 17.38667 C 47.4833 % 6.12 C
65 23-06-2010 00:00:00 19.75917 C 47.6667 % 8.34 C
66 24-06-2010 00:00:00 22.54833 C 43.3500 % 9.47 C
67 25-06-2010 00:00:00 23.37 C 41.1917 % 9.45 C
68 26-06-2010 00:00:00 23.635 C 41.1583 % 9.67 C
69 27-06-2010 00:00:00 24.49417 C 40.2750 % 10.12 C
70 28-06-2010 00:00:00 25.25546 C 38.9832 % 10.31 C
71 29-06-2010 00:00:00 24.86167 C 43.0500 % 11.45 C
72 30-06-2010 00:00:00 24.6175 C 44.6583 % 11.78 C
73 01-07-2010 00:00:00 25.8425 C 40.2750 % 11.32 C
74 02-07-2010 00:00:00 26.96667 C 37.4917 % 11.24 C
75 03-07-2010 00:00:00 26.33 C 45.6083 % 13.66 C
Sensor: Nr:Datum:Temp:Feuchte:Taupunkt:
Aussen-T/F 76 04-07-2010 00:00:00 26.44833 C 48.2917 % 14.65 C
77 05-07-2010 00:00:00 22.02083 C 46.5417 % 10.05 C
78 06-07-2010 00:00:00 20.17833 C 47.7667 % 8.76 C
79 07-07-2010 00:00:00 22.53417 C 40.7500 % 8.54 C
80 08-07-2010 00:00:00 26.43417 C 34.8333 % 9.67 C
81 09-07-2010 00:00:00 27.51333 C 35.5750 % 10.93 C
82 10-07-2010 00:00:00 29.25667 C 36.9500 % 13.04 C
83 11-07-2010 00:00:00 28.48319 C 46.0252 % 15.75 C
84 12-07-2010 00:00:00 27.1175 C 42.8500 % 13.41 C
85 13-07-2010 00:00:00 25.36083 C 44.2167 % 12.31 C
86 14-07-2010 00:00:00 25.98917 C 48.2250 % 14.2 C
87 15-07-2010 00:00:00 22.6525 C 43.7250 % 9.69 C
88 16-07-2010 00:00:00 23.97667 C 38.9833 % 9.17 C
89 17-07-2010 00:00:00 21.99167 C 52.4833 % 11.83 C
90 18-07-2010 00:00:00 21.73833 C 38.4417 % 6.98 C
91 19-07-2010 00:00:00 23.63167 C 37.6000 % 8.33 C
92 20-07-2010 00:00:00 25.03833 C 36.6583 % 9.2 C
93 21-07-2010 00:00:00 24.73833 C 41.0417 % 10.62 C
94 22-07-2010 00:00:00 21.34917 C 62.1250 % 13.8 C
95 23-07-2010 00:00:00 20.17059 C 65.9748 % 13.61 C
96 24-07-2010 00:00:00 19.00667 C 56.1417 % 10.07 C
97 25-07-2010 00:00:00 17.26833 C 53.0333 % 7.62 C
98 26-07-2010 00:00:00 17.2925 C 77.8500 % 13.39 C
99 27-07-2010 00:00:00 19.815 C 58.8583 % 11.54 C
100 28-07-2010 00:00:00 20.5075 C 62.7583 % 13.17 C
Sensor: Nr:Datum:Temp:Feuchte:Taupunkt:
Aussen-T/F 101 29-07-2010 00:00:00 16.32417 C 82.1667 % 13.28 C
102 30-07-2010 00:00:00 19.665 C 55.1000 % 10.41 C
103 31-07-2010 00:00:00 20.62417 C 50.6750 % 10.04 C
104 01-08-2010 00:00:00 22.90833 C 58.5833 % 14.36 C
105 02-08-2010 00:00:00 19.60917 C 66.5833 % 13.22 C
106 03-08-2010 00:00:00 18.94167 C 62.2917 % 11.58 C
107 04-08-2010 00:00:00 19.62269 C 54.1933 % 10.12 C
108 05-08-2010 00:00:00 18.49417 C 63.2500 % 11.38 C
109 06-08-2010 00:00:00 19.04667 C 49.4417 % 8.23 C
110 07-08-2010 00:00:00 19.46583 C 47.2333 % 7.94 C
111 08-08-2010 00:00:00 18.485 C 73.9083 % 13.75 C
112 09-08-2010 00:00:00 19.515 C 62.0500 % 12.06 C
113 10-08-2010 00:00:00 22.13583 C 49.8000 % 11.17 C
114 11-08-2010 00:00:00 20.32833 C 71.7583 % 15.06 C
115 12-08-2010 00:00:00 19.10917 C 68.7917 % 13.24 C
116 13-08-2010 00:00:00 18.77833 C 56.4000 % 9.93 C
117 14-08-2010 00:00:00 19.9675 C 55.6000 % 10.82 C
118 15-08-2010 00:00:00 16.88667 C 82.0833 % 13.81 C
119 16-08-2010 00:00:00 17.07479 C 76.6975 % 12.95 C
120 17-08-2010 00:00:00 16.06667 C 78.3083 % 12.29 C
121 18-08-2010 00:00:00 18.40917 C 62.9750 % 11.24 C
122 19-08-2010 00:00:00 18.88917 C 50.6417 % 8.44 C
123 20-08-2010 00:00:00 20.42605 C 55.8739 % 11.32 C
124 21-08-2010 00:00:00 23.76417 C 52.7167 % 13.53 C
125 22-08-2010 00:00:00 23.01667 C 59.0250 % 14.58 C
Sensor: Nr:Datum:Temp:Feuchte:Taupunkt:
Aussen-T/F 126 23-08-2010 00:00:00 21.205 C 70.7833 % 15.69 C
127 24-08-2010 00:00:00 19.27083 C 47.4667 % 7.83 C
128 25-08-2010 00:00:00 17.61917 C 51.1167 % 7.4 C
129 26-08-2010 00:00:00 20.68083 C 64.0500 % 13.64 C
130 27-08-2010 00:00:00 18.37667 C 83.9000 % 15.61 C
131 28-08-2010 00:00:00 14.0675 C 73.3833 % 9.38 C
132 29-08-2010 00:00:00 13.03167 C 75.5167 % 8.81 C
133 30-08-2010 00:00:00 12.5675 C 77.2917 % 8.7 C
134 31-08-2010 00:00:00 15.42917 C 63.8417 % 8.62 C
135 01-09-2010 00:00:00 14.82437 C 66.2437 % 8.59 C
136 02-09-2010 00:00:00 14.95333 C 68.7750 % 9.27 C
137 03-09-2010 00:00:00 15.91417 C 66.8500 % 9.77 C
138 04-09-2010 00:00:00 16.71417 C 59.2667 % 8.74 C
139 05-09-2010 00:00:00 15.205 C 57.9500 % 6.99 C
140 06-09-2010 00:00:00 15.675 C 50.6333 % 5.48 C
141 07-09-2010 00:00:00 13.36083 C 72.0500 % 8.43 C
142 08-09-2010 00:00:00 15.545 C 82.5083 % 12.58 C
143 09-09-2010 00:00:00 16.20583 C 69.6333 % 10.65 C
144 10-09-2010 00:00:00 16.18 C 73.5500 % 11.45 C
145 11-09-2010 00:00:00 18.13417 C 67.4000 % 12 C
146 12-09-2010 00:00:00 16.21667 C 76.2417 % 12.03 C
147 13-09-2010 00:00:00 15.67583 C 69.6833 % 10.16 C
148 14-09-2010 00:00:00 16.63697 C 63.2689 % 9.63 C
149 15-09-2010 00:00:00 16.3175 C 56.3417 % 7.62 C
150 16-09-2010 00:00:00 14.07 C 68.7833 % 8.43 C
Sensor: Nr:Datum:Temp:Feuchte:Taupunkt:
Aussen-T/F 151 17-09-2010 00:00:00 13.76667 C 63.3000 % 6.92 C
152 18-09-2010 00:00:00 11.45083 C 66.4583 % 5.43 C
153 19-09-2010 00:00:00 11.7425 C 63.7833 % 5.12 C
154 20-09-2010 00:00:00 14.01 C 60.2750 % 6.44 C
155 21-09-2010 00:00:00 14.27 C 69.4583 % 8.76 C
156 22-09-2010 00:00:00 15.86667 C 68.2250 % 10.02 C
157 23-09-2010 00:00:00 16.56167 C 70.7917 % 11.24 C
158 24-09-2010 00:00:00 14.165 C 94.1000 % 13.23 C
159 25-09-2010 00:00:00 12.41833 C 72.2250 % 7.56 C
160 26-09-2010 00:00:00 11.2425 C 71.6917 % 6.33 C
161 27-09-2010 00:00:00 9.86807 C 80.2269 % 6.63 C
162 28-09-2010 00:00:00 10.93083 C 94.2917 % 10.05 C
163 29-09-2010 00:00:00 13.39417 C 76.6083 % 9.37 C
164 30-09-2010 00:00:00 11.89667 C 83.4333 % 9.18 C
165 01-10-2010 00:00:00 12.33667 C 83.6000 % 9.64 C
166 02-10-2010 00:00:00 13.4525 C 88.8333 % 11.65 C
167 03-10-2010 00:00:00 17.83583 C 69.4500 % 12.17 C
168 04-10-2010 00:00:00 16.905 C 67.1833 % 10.78 C
169 05-10-2010 00:00:00 15.64833 C 81.7000 % 12.53 C
170 06-10-2010 00:00:00 17.22333 C 68.1250 % 11.3 C
171 07-10-2010 00:00:00 16.31167 C 74.2083 % 11.71 C
172 08-10-2010 00:00:00 16.02917 C 68.6417 % 10.27 C
173 09-10-2010 00:00:00 13.1475 C 71.0083 % 8.01 C
174 10-10-2010 00:00:00 11.6125 C 61.5417 % 4.48 C
175 11-10-2010 00:00:00 10.90084 C 54.7647 % 2.17 C
Sensor: Nr:Datum:Temp:Feuchte:Taupunkt:
Aussen-T/F 176 12-10-2010 00:00:00 8.71917 C 68.1167 % 3.18 C
177 13-10-2010 00:00:00 7.475 C 69.3833 % 2.25 C
178 14-10-2010 00:00:00 7.55583 C 74.6167 % 3.35 C
179 15-10-2010 00:00:00 10.475 C 76.0250 % 6.44 C
180 16-10-2010 00:00:00 8.375 C 89.9250 % 6.82 C
181 17-10-2010 00:00:00 7.22667 C 80.5250 % 4.11 C
182 18-10-2010 00:00:00 6.71833 C 73.3000 % 2.29 C
183 19-10-2010 00:00:00 7.28167 C 81.9417 % 4.41 C
184 20-10-2010 00:00:00 6.14167 C 81.5000 % 3.22 C
185 21-10-2010 00:00:00 5.27 C 66.8833 % -0.37 C
186 22-10-2010 00:00:00 4.20167 C 63.7833 % -2.03 C
187 23-10-2010 00:00:00 4.37899 C 73.9748 % 0.16 C
188 24-10-2010 00:00:00 8.55667 C 66.0833 % 2.59 C
189 25-10-2010 00:00:00 6.1525 C 71.2167 % 1.34 C
190 26-10-2010 00:00:00 3.62417 C 82.5583 % 0.94 C
191 27-10-2010 00:00:00 8.14917 C 58.7667 % 0.58 C
192 28-10-2010 00:00:00 9.1725 C 62.2417 % 2.34 C
193 29-10-2010 00:00:00 9.9325 C 69.5917 % 4.64 C
194 30-10-2010 00:00:00 10.57143 C 68.9286 % 5.12 C
195 02-11-2010 00:00:00 11.31548 C 66.6667 % 5.35 C
196 03-11-2010 00:00:00 13.10333 C 68.7083 % 7.49 C
197 04-11-2010 00:00:00 16.41167 C 62.3167 % 9.19 C
198 05-11-2010 00:00:00 14.51917 C 58.8000 % 6.56 C
199 06-11-2010 00:00:00 10.40917 C 80.1167 % 7.13 C
200 07-11-2010 00:00:00 6.86917 C 92.5083 % 5.74 C
Sensor: Nr:Datum:Temp:Feuchte:Taupunkt:
Aussen-T/F 201 08-11-2010 00:00:00 4.65583 C 85.5500 % 2.45 C
202 09-11-2010 00:00:00 6.65667 C 85.5833 % 4.42 C
203 10-11-2010 00:00:00 7.08319 C 83.2017 % 4.43 C
204 11-11-2010 00:00:00 5.84167 C 74.0333 % 1.58 C
205 12-11-2010 00:00:00 11.04083 C 67.0583 % 5.17 C
206 13-11-2010 00:00:00 14.51917 C 70.8917 % 9.31 C
207 14-11-2010 00:00:00 14.60833 C 62.1917 % 7.46 C
208 15-11-2010 00:00:00 9.47833 C 67.6667 % 3.81 C
209 16-11-2010 00:00:00 6.0125 C 79.4417 % 2.73 C
210 17-11-2010 00:00:00 5.3125 C 74.5000 % 1.16 C
211 18-11-2010 00:00:00 5.61917 C 84.0500 % 3.14 C
212 19-11-2010 00:00:00 6.4275 C 81.7500 % 3.54 C
213 20-11-2010 00:00:00 4.8325 C 88.3833 % 3.08 C
214 21-11-2010 00:00:00 4.48333 C 73.7500 % 0.22 C
215 22-11-2010 00:00:00 4.47417 C 75.5417 % 0.54 C
216 23-11-2010 00:00:00 4.54118 C 69.6723 % -0.51 C
217 24-11-2010 00:00:00 3.415 C 80.1833 % 0.33 C
218 25-11-2010 00:00:00 1.74083 C 80.3500 % -1.27 C
219 26-11-2010 00:00:00 -0.29083 C 87.9417 % -2.04 C
220 27-11-2010 00:00:00 -1.99167 C 84.3333 % -4.27 C
221 28-11-2010 00:00:00 -1.325 C 80.3667 % -4.26 C
222 29-11-2010 00:00:00 -1.55833 C 80.7833 % -4.42 C
223 30-11-2010 00:00:00 -1.9425 C 80.4000 % -4.86 C
224 01-12-2010 00:00:00 -5.7325 C 61.7750 % -11.88 C
225 02-12-2010 00:00:00 -7.03167 C 68.9667 % -11.75 C
Sensor: Nr:Datum:Temp:Feuchte:Taupunkt:
Aussen-T/F 226 03-12-2010 00:00:00 -7.38583 C 76.6667 % -10.77 C
227 04-12-2010 00:00:00 -3.48167 C 68.7667 % -8.38 C
228 05-12-2010 00:00:00 0.91667 C 65.5750 % -4.79 C
229 06-12-2010 00:00:00 0.24538 C 81.3697 % -2.56 C
230 07-12-2010 00:00:00 -0.20833 C 81.1417 % -3.04 C
231 08-12-2010 00:00:00 -0.25917 C 90.8167 % -1.57 C
232 09-12-2010 00:00:00 0.61333 C 77.4667 % -2.86 C
233 10-12-2010 00:00:00 1.73333 C 85.9917 % -0.35 C
234 11-12-2010 00:00:00 4.07583 C 81.0750 % 1.13 C
235 12-12-2010 00:00:00 3.085 C 76.4250 % -0.65 C
236 13-12-2010 00:00:00 -4.44833 C 70.7250 % -8.95 C
237 14-12-2010 00:00:00 -3.65833 C 75.1500 % -7.41 C
238 15-12-2010 00:00:00 -3.1275 C 73.4333 % -7.19 C
239 16-12-2010 00:00:00 -3.4675 C 77.7917 % -6.78 C
240 17-12-2010 00:00:00 -2.77417 C 73.1083 % -6.91 C
241 18-12-2010 00:00:00 -4.65833 C 78.4500 % -7.83 C
242 19-12-2010 00:00:00 -0.7125 C 83.7583 % -3.11 C
243 20-12-2010 00:00:00 -1.53667 C 79.9500 % -4.54 C
244 21-12-2010 00:00:00 -0.65546 C 86.2857 % -2.66 C
245 22-12-2010 00:00:00 0.9225 C 90.2417 % -0.49 C
246 23-12-2010 00:00:00 -0.36833 C 89.5583 % -1.87 C
247 24-12-2010 00:00:00 -1.77438 C 82.4132 % -4.37 C
248 25-12-2010 00:00:00 -5.4775 C 72.1917 % -9.68 C
249 26-12-2010 00:00:00 -4.87833 C 75.4833 % -8.53 C
250 27-12-2010 00:00:00 -2.21833 C 78.9083 % -5.37 C
Sensor: Nr:Datum:Temp:Feuchte:Taupunkt:
Aussen-T/F 251 28-12-2010 00:00:00 -2.07899 C 79.7983 % -5.09 C
252 29-12-2010 00:00:00 -0.255 C 79.0333 % -3.44 C
253 30-12-2010 00:00:00 -0.55333 C 77.5833 % -3.98 C
254 31-12-2010 00:00:00 -1.10413 C 79.2975 % -4.22 C
255 01-01-2011 00:00:00 1.07311 C 86.7311 % -0.88 C
256 02-01-2011 00:00:00 0.8025 C 85.7500 % -1.31 C
257 03-01-2011 00:00:00 -0.9125 C 85.2333 % -3.07 C
258 04-01-2011 00:00:00 -2.36667 C 81.6500 % -5.07 C
259 05-01-2011 00:00:00 -3.83583 C 71.7333 % -8.18 C
260 06-01-2011 00:00:00 3.72667 C 87.9667 % 1.92 C
261 07-01-2011 00:00:00 6.91833 C 89.9000 % 5.38 C
262 08-01-2011 00:00:00 10.5675 C 72.8000 % 5.9 C
263 09-01-2011 00:00:00 5.08655 C 85.5042 % 2.86 C
264 10-01-2011 00:00:00 0.7175 C 86.3333 % -1.3 C
265 11-01-2011 00:00:00 3.43667 C 78.5333 % 0.07 C
266 12-01-2011 00:00:00 5.44 C 78.6250 % 2.03 C
267 13-01-2011 00:00:00 11.80333 C 77.9417 % 8.09 C
268 14-01-2011 00:00:00 11.77417 C 66.0167 % 5.64 C
269 15-01-2011 00:00:00 8.68167 C 69.2417 % 3.37 C
270 16-01-2011 00:00:00 6.84167 C 76.6833 % 3.04 C
271 17-01-2011 00:00:00 3.62917 C 87.1750 % 1.7 C
272 18-01-2011 00:00:00 7.28833 C 76.0833 % 3.36 C
273 19-01-2011 00:00:00 3.30833 C 77.6417 % -0.21 C
274 20-01-2011 00:00:00 1.7 C 80.0083 % -1.37 C
275 21-01-2011 00:00:00 -0.0675 C 63.4250 % -6.17 C
Sensor: Nr:Datum:Temp:Feuchte:Taupunkt:
Aussen-T/F 276 22-01-2011 00:00:00 0.39664 C 78.3361 % -2.92 C
277 23-01-2011 00:00:00 1.50167 C 86.5500 % -0.49 C
278 24-01-2011 00:00:00 3.10167 C 84.6333 % 0.77 C
279 25-01-2011 00:00:00 2.49833 C 79.4167 % -0.69 C
280 26-01-2011 00:00:00 0.84083 C 82.9250 % -1.72 C
281 27-01-2011 00:00:00 -0.28583 C 71.6667 % -4.77 C
282 28-01-2011 00:00:00 -1.27083 C 64.6250 % -7.07 C
283 29-01-2011 00:00:00 -4.9 C 78.6250 % -8.03 C
284 30-01-2011 00:00:00 -6.20917 C 79.4500 % -9.17 C
285 31-01-2011 00:00:00 -5.73833 C 80.2583 % -8.59 C
286 01-02-2011 00:00:00 -4.03917 C 72.9333 % -8.16 C
287 02-02-2011 00:00:00 -0.865 C 75.9667 % -4.56 C
288 03-02-2011 00:00:00 1.94454 C 80.8824 % -0.98 C
289 04-02-2011 00:00:00 6.18583 C 70.0667 % 1.15 C
290 05-02-2011 00:00:00 9.25833 C 62.0000 % 2.37 C
291 06-02-2011 00:00:00 8.62 C 60.0083 % 1.31 C
292 07-02-2011 00:00:00 6.48083 C 55.1667 % -1.85 C
293 08-02-2011 00:00:00 5.48833 C 65.0417 % -0.55 C
294 09-02-2011 00:00:00 -0.23333 C 82.7917 % -2.8 C
295 10-02-2011 00:00:00 3.9425 C 78.7083 % 0.59 C
296 11-02-2011 00:00:00 10.23917 C 74.1917 % 5.85 C
297 12-02-2011 00:00:00 6.88 C 81.4333 % 3.93 C
298 13-02-2011 00:00:00 5.13417 C 82.5250 % 2.41 C
299 14-02-2011 00:00:00 5.215 C 81.7250 % 2.35 C
300 15-02-2011 00:00:00 5.14958 C 83.2101 % 2.54 C
Sensor: Nr:Datum:Temp:Feuchte:Taupunkt:
Aussen-T/F 301 16-02-2011 00:00:00 4.90417 C 79.7167 % 1.7 C
302 17-02-2011 00:00:00 1.96333 C 77.4417 % -1.56 C
303 18-02-2011 00:00:00 2.23667 C 72.6417 % -2.16 C
304 19-02-2011 00:00:00 2.82833 C 73.3833 % -1.45 C
305 20-02-2011 00:00:00 0.7 C 62.1917 % -5.69 C
306 21-02-2011 00:00:00 -1.8125 C 51.6000 % -10.45 C
307 22-02-2011 00:00:00 -3.39167 C 51.9833 % -11.83 C
308 23-02-2011 00:00:00 -2.66583 C 50.3167 % -11.56 C
309 24-02-2011 00:00:00 0.91083 C 75.5417 % -2.91 C
310 25-02-2011 00:00:00 3.445 C 84.2583 % 1.05 C
311 26-02-2011 00:00:00 5.07167 C 75.9333 % 1.19 C
312 27-02-2011 00:00:00 5.47731 C 73.6807 % 1.16 C
313 28-02-2011 00:00:00 4.52333 C 67.9083 % -0.88 C
314 01-03-2011 00:00:00 4.31167 C 69.8833 % -0.69 C
315 02-03-2011 00:00:00 3.41 C 50.2917 % -5.93 C
316 03-03-2011 00:00:00 1.585 C 49.3000 % -7.87 C
317 04-03-2011 00:00:00 2.1825 C 60.4167 % -4.67 C
318 05-03-2011 00:00:00 0.19833 C 75.1083 % -3.68 C
319 06-03-2011 00:00:00 1.7325 C 60.2167 % -5.14 C
320 07-03-2011 00:00:00 1.05667 C 46.9417 % -8.99 C
321 08-03-2011 00:00:00 1.92583 C 52.3083 % -6.79 C
322 09-03-2011 00:00:00 6.48333 C 61.8000 % -0.3 C
323 10-03-2011 00:00:00 7.3 C 57.6167 % -0.49 C
324 11-03-2011 00:00:00 8.78571 C 53.4790 % -0.13 C
325 12-03-2011 00:00:00 7.3525 C 60.9583 % 0.33 C
Sensor: Nr:Datum:Temp:Feuchte:Taupunkt:
Aussen-T/F 326 13-03-2011 00:00:00 11.07917 C 64.7167 % 4.7 C
327 14-03-2011 00:00:00 10.09917 C 77.5250 % 6.35 C
328 15-03-2011 00:00:00 10.73917 C 68.9250 % 5.28 C
329 16-03-2011 00:00:00 8.73583 C 66.1667 % 2.78 C
330 17-03-2011 00:00:00 6.295 C 79.3167 % 2.99 C
331 18-03-2011 00:00:00 6.41833 C 70.2167 % 1.4 C
332 19-03-2011 00:00:00 6.63 C 65.1750 % 0.57 C
333 20-03-2011 00:00:00 3.39167 C 61.9167 % -3.2 C
334 21-03-2011 00:00:00 4.66333 C 60.1083 % -2.4 C
335 22-03-2011 00:00:00 6.83333 C 59.2833 % -0.54 C
336 23-03-2011 00:00:00 8.59333 C 65.0750 % 2.41 C
337 24-03-2011 00:00:00 9.14417 C 60.8917 % 2.01 C
338 25-03-2011 00:00:00 9.65798 C 55.8908 % 1.29 C
339 26-03-2011 00:00:00 8.11917 C 59.6833 % 0.76 C
340 27-03-2011 00:00:00 9.62174 C 53.4696 % 0.65 C
341 28-03-2011 00:00:00 7.7225 C 57.4083 % -0.15 C
342 29-03-2011 00:00:00 7.42083 C 58.3917 % -0.2 C
343 30-03-2011 00:00:00 8.36333 C 66.2417 % 2.44 C
344 31-03-2011 00:00:00 12.03833 C 73.1000 % 7.37 C
345 01-04-2011 00:00:00 13.985 C 68.4250 % 8.27 C
346 02-04-2011 00:00:00 14.21833 C 66.4500 % 8.06 C
347 03-04-2011 00:00:00 11.81167 C 76.3083 % 7.78 C
348 04-04-2011 00:00:00 10.68333 C 67.0083 % 4.82 C
349 05-04-2011 00:00:00 9.30833 C 68.0500 % 3.73 C
350 06-04-2011 00:00:00 15.69167 C 63.4000 % 8.77 C
Sensor: Nr:Datum:Temp:Feuchte:Taupunkt:
Aussen-T/F 351 07-04-2011 00:00:00 16.35294 C 59.8739 % 8.55 C
352 08-04-2011 00:00:00 13.4925 C 56.0417 % 4.91 C
353 09-04-2011 00:00:00 12.96917 C 49.7083 % 2.72 C
354 10-04-2011 00:00:00 12.2825 C 55.3833 % 3.61 C
355 11-04-2011 00:00:00 14.76333 C 53.4583 % 5.41 C
356 12-04-2011 00:00:00 10.27917 C 57.0083 % 2.15 C
357 13-04-2011 00:00:00 7.60083 C 55.2417 % -0.79 C
358 14-04-2011 00:00:00 8.3025 C 53.3167 % -0.62 C
359 15-04-2011 00:00:00 7.43583 C 58.4250 % -0.17 C
360 16-04-2011 00:00:00 8.14667 C 54.9167 % -0.36 C
361 17-04-2011 00:00:00 11.61917 C 46.3000 % 0.5 C
362 18-04-2011 00:00:00 10.9521 C 55.2605 % 2.34 C
363 19-04-2011 00:00:00 12.87583 C 55.1250 % 4.1 C
364 20-04-2011 00:00:00 13.54917 C 55.3917 % 4.79 C
365 21-04-2011 00:00:00 14.49333 C 54.9917 % 5.57 C
366 22-04-2011 00:00:00 16.35083 C 55.1083 % 7.33 C
367 23-04-2011 00:00:00 18.26083 C 59.3250 % 10.2 C
368 24-04-2011 00:00:00 16.74333 C 54.1333 % 7.43 C
369 25-04-2011 00:00:00 15.975 C 45.3000 % 4.16 C
370 26-04-2011 00:00:00 12.8275 C 60.7167 % 5.44 C
371 27-04-2011 00:00:00 11.27167 C 76.9583 % 7.38 C
372 28-04-2011 00:00:00 13.99 C 71.8583 % 9 C
373 29-04-2011 00:00:00 15.08333 C 65.8750 % 8.76 C
374 30-04-2011 00:00:00 15.42 C 56.5500 % 6.84 C
375 01-05-2011 00:00:00 15.09328 C 37.9496 % 0.88 C
Sensor: Nr:Datum:Temp:Feuchte:Taupunkt:
Aussen-T/F 376 02-05-2011 00:00:00 11.83333 C 44.3167 % 0.09 C
377 03-05-2011 00:00:00 10.93167 C 41.8667 % -1.5 C
378 04-05-2011 00:00:00 8.28 C 53.9417 % -0.48 C
379 05-05-2011 00:00:00 10.32333 C 55.8000 % 1.89 C
380 06-05-2011 00:00:00 13.52917 C 53.1000 % 4.17 C
381 07-05-2011 00:00:00 17.6125 C 49.5667 % 6.95 C
382 08-05-2011 00:00:00 19.07167 C 37.5667 % 4.28 C
383 09-05-2011 00:00:00 18.40083 C 39.3250 % 4.33 C
384 10-05-2011 00:00:00 17.95833 C 50.2083 % 7.45 C
385 11-05-2011 00:00:00 18.40667 C 60.4833 % 10.63 C
386 12-05-2011 00:00:00 15.77833 C 53.4917 % 6.36 C
387 13-05-2011 00:00:00 13.68403 C 52.7983 % 4.24 C
388 14-05-2011 00:00:00 12.59917 C 53.0417 % 3.3 C
389 15-05-2011 00:00:00 10.34333 C 63.7833 % 3.79 C
390 16-05-2011 00:00:00 12.58667 C 60.3917 % 5.13 C
391 17-05-2011 00:00:00 17.04083 C 51.7667 % 7.06 C
392 18-05-2011 00:00:00 16.60583 C 55.1333 % 7.57 C
393 19-05-2011 00:00:00 17.10833 C 62.0917 % 9.8 C
394 20-05-2011 00:00:00 16.53 C 72.2833 % 11.53 C
395 21-05-2011 00:00:00 19.16077 C 60.6385 % 11.38 C
396 22-05-2011 00:00:00 16.79593 C 62.6667 % 9.64 C
397 23-05-2011 00:00:00 16.00167 C 49.6833 % 5.5 C
398 24-05-2011 00:00:00 15.90583 C 48.1000 % 4.95 C
399 25-05-2011 00:00:00 15.29333 C 44.6833 % 3.34 C
400 26-05-2011 00:00:00 16.04833 C 43.0167 % 3.49 C
Sensor: Nr:Datum:Temp:Feuchte:Taupunkt:
Aussen-T/F 401 27-05-2011 00:00:00 14.61 C 44.7667 % 2.75 C
402 28-05-2011 00:00:00 15.2875 C 48.6000 % 4.53 C
403 29-05-2011 00:00:00 19.21849 C 41.4286 % 5.81 C
404 30-05-2011 00:00:00 20.91333 C 47.3750 % 9.3 C
405 31-05-2011 00:00:00 14.84583 C 71.3000 % 9.7 C
406 01-06-2011 00:00:00 14.86083 C 55.0833 % 5.94 C
407 02-06-2011 00:00:00 19.79167 C 41.8750 % 6.48 C
408 03-06-2011 00:00:00 20.65583 C 37.7917 % 5.77 C
409 04-06-2011 00:00:00 21.20417 C 56.0500 % 12.1 C
410 05-06-2011 00:00:00 18.63333 C 81.4833 % 15.4 C
411 06-06-2011 00:00:00 18.38667 C 75.9000 % 14.06 C
412 07-06-2011 00:00:00 20.62417 C 61.2917 % 12.92 C
413 08-06-2011 00:00:00 15.695 C 66.5583 % 9.49 C
414 09-06-2011 00:00:00 14.09328 C 68.2437 % 8.34 C
415 10-06-2011 00:00:00 14.6563 C 70.2437 % 9.3 C
416 11-06-2011 00:00:00 15.99417 C 59.1250 % 8.03 C
417 12-06-2011 00:00:00 15.21167 C 56.7750 % 6.7 C
418 13-06-2011 00:00:00 16.92167 C 58.7417 % 8.8 C
419 14-06-2011 00:00:00 20.63333 C 59.4000 % 12.45 C
420 15-06-2011 00:00:00 19.88909 C 59.3000 % 11.72 C
421 16-06-2011 00:00:00 15.99375 C 61.2500 % 8.54 C
422 17-06-2011 00:00:00 15.96417 C 59.6833 % 8.14 C
423 18-06-2011 00:00:00 15.91083 C 58.8917 % 7.89 C
424 19-06-2011 00:00:00 14.57917 C 57.0417 % 6.18 C
425 20-06-2011 00:00:00 13.67417 C 78.2583 % 9.96 C
Sensor: Nr:Datum:Temp:Feuchte:Taupunkt:
Aussen-T/F 426 21-06-2011 00:00:00 19.2575 C 67.7583 % 13.15 C
427 22-06-2011 00:00:00 18.02773 C 72.1597 % 12.94 C
428 23-06-2011 00:00:00 16.265 C 59.2250 % 8.3 C
429 24-06-2011 00:00:00 14.2775 C 58.5250 % 6.27 C
430 25-06-2011 00:00:00 13.42417 C 77.5000 % 9.57 C
431 26-06-2011 00:00:00 15 C 80.0000 % 11.58 C
432 27-06-2011 00:00:00 17.65667 C 72.5083 % 12.66 C
433 28-06-2011 00:00:00 25.33167 C 49.5333 % 14.02 C
434 29-06-2011 00:00:00 20.62 C 64.0583 % 13.59 C
435 30-06-2011 00:00:00 17.92833 C 46.7417 % 6.39 C
436 01-07-2011 00:00:00 15.115 C 62.0000 % 7.9 C
437 02-07-2011 00:00:00 14.5975 C 56.8083 % 6.14 C
438 03-07-2011 00:00:00 16.92083 C 48.2583 % 5.93 C
439 04-07-2011 00:00:00 16.2 C 55.0000 % 7.16 C
440 05-07-2011 00:00:00 24.435 C 44.7625 % 11.65 C
441 06-07-2011 00:00:00 20.39333 C 51.4417 % 10.05 C
442 07-07-2011 00:00:00 19.52083 C 53.1917 % 9.75 C
443 08-07-2011 00:00:00 19.92333 C 49.6583 % 9.1 C
444 09-07-2011 00:00:00 21.28083 C 46.1667 % 9.26 C
445 10-07-2011 00:00:00 18.22833 C 60.4000 % 10.44 C
446 11-07-2011 00:00:00 20.90417 C 55.0583 % 11.55 C
447 12-07-2011 00:00:00 19.89917 C 61.4750 % 12.28 C
448 13-07-2011 00:00:00 15.985 C 78.1250 % 12.18 C
449 14-07-2011 00:00:00 15.70417 C 52.2083 % 5.94 C
450 15-07-2011 00:00:00 18.7025 C 41.8750 % 5.5 C
Sensor: Nr:Datum:Temp:Feuchte:Taupunkt:
Aussen-T/F 451 16-07-2011 00:00:00 18.92269 C 46.1933 % 7.12 C
452 17-07-2011 00:00:00 17.68667 C 65.9583 % 11.25 C
453 18-07-2011 00:00:00 16.98583 C 56.7583 % 8.35 C
454 19-07-2011 00:00:00 16.52167 C 65.5917 % 10.06 C
455 20-07-2011 00:00:00 15.91917 C 76.3167 % 11.76 C
456 21-07-2011 00:00:00 16.59583 C 76.6083 % 12.47 C
457 22-07-2011 00:00:00 16.87083 C 58.2333 % 8.62 C
458 23-07-2011 00:00:00 13.94417 C 62.1417 % 6.82 C
459 24-07-2011 00:00:00 12.63083 C 75.5917 % 8.44 C
460 25-07-2011 00:00:00 16.39417 C 63.4083 % 9.44 C
461 26-07-2011 00:00:00 16.5375 C 73.3667 % 11.76 C
462 27-07-2011 00:00:00 17.045 C 76.9417 % 12.97 C
463 28-07-2011 00:00:00 18.71345 C 71.7899 % 13.52 C
464 29-07-2011 00:00:00 17.87583 C 65.5000 % 11.33 C
465 30-07-2011 00:00:00 15.04833 C 66.9083 % 8.95 C
466 31-07-2011 00:00:00 15.27667 C 58.7917 % 7.27 C
467 01-08-2011 00:00:00 16.885 C 62.5250 % 9.69 C
468 02-08-2011 00:00:00 20.45917 C 60.0667 % 12.45 C
469 03-08-2011 00:00:00 19.3425 C 74.8750 % 14.77 C
470 04-08-2011 00:00:00 21.59083 C 66.0417 % 14.98 C
471 05-08-2011 00:00:00 22.10417 C 66.0500 % 15.47 C
472 06-08-2011 00:00:00 19.43333 C 80.8333 % 16.06 C
473 07-08-2011 00:00:00 17.99583 C 60.5083 % 10.25 C
474 08-08-2011 00:00:00 15.61 C 65.0500 % 9.07 C
475 09-08-2011 00:00:00 15.21177 C 65.5882 % 8.82 C
Sensor: Nr:Datum:Temp:Feuchte:Taupunkt:
Aussen-T/F 476 10-08-2011 00:00:00 11.545 C 70.7500 % 6.42 C
477 11-08-2011 00:00:00 15.27417 C 59.8917 % 7.54 C
478 12-08-2011 00:00:00 17.7625 C 71.7917 % 12.61 C
479 13-08-2011 00:00:00 19.08833 C 72.0417 % 13.93 C
480 14-08-2011 00:00:00 18.79167 C 79.1417 % 15.1 C
481 15-08-2011 00:00:00 19.07917 C 64.2167 % 12.17 C
482 16-08-2011 00:00:00 18.73083 C 60.4333 % 10.92 C
483 17-08-2011 00:00:00 18.89 C 66.1833 % 12.45 C
484 18-08-2011 00:00:00 22.63167 C 61.2417 % 14.79 C
485 19-08-2011 00:00:00 19.24667 C 68.7333 % 13.36 C
486 20-08-2011 00:00:00 18.59833 C 65.7167 % 12.06 C
487 21-08-2011 00:00:00 20.63583 C 69.0417 % 14.76 C
488 22-08-2011 00:00:00 23.83613 C 62.0504 % 16.13 C
489 23-08-2011 00:00:00 23.46583 C 60.9833 % 15.51 C
490 24-08-2011 00:00:00 20.97833 C 67.3417 % 14.7 C
491 25-08-2011 00:00:00 20.68833 C 69.8333 % 14.99 C
492 26-08-2011 00:00:00 20.87 C 74.2833 % 16.12 C
493 27-08-2011 00:00:00 15.035 C 76.8333 % 11.01 C
494 28-08-2011 00:00:00 15.25583 C 63.6333 % 8.41 C
495 29-08-2011 00:00:00 14.68667 C 59.3667 % 6.86 C
496 30-08-2011 00:00:00 12.15833 C 69.4583 % 6.74 C
497 31-08-2011 00:00:00 13.1325 C 69.1000 % 7.6 C
498 01-09-2011 00:00:00 15.16083 C 67.3250 % 9.15 C
499 02-09-2011 00:00:00 17.55667 C 71.4250 % 12.33 C
500 03-09-2011 00:00:00 20.71597 C 69.7311 % 14.99 C
Sensor: Nr:Datum:Temp:Feuchte:Taupunkt:
Aussen-T/F 501 04-09-2011 00:00:00 21.65833 C 66.8333 % 15.23 C
502 05-09-2011 00:00:00 17.79667 C 52.4583 % 7.95 C
503 06-09-2011 00:00:00 15.93333 C 57.8333 % 7.64 C
504 07-09-2011 00:00:00 16.43 C 56.2417 % 7.7 C
505 08-09-2011 00:00:00 15.3775 C 59.5333 % 7.55 C
506 09-09-2011 00:00:00 18.46 C 74.5500 % 13.86 C
507 10-09-2011 00:00:00 21.15667 C 77.6667 % 17.1 C
508 11-09-2011 00:00:00 17.895 C 81.2500 % 14.64 C
509 12-09-2011 00:00:00 17.43583 C 68.8250 % 11.65 C
510 13-09-2011 00:00:00 18.005 C 66.8333 % 11.75 C
511 14-09-2011 00:00:00 14.43917 C 60.2417 % 6.84 C
512 15-09-2011 00:00:00 13.91583 C 66.4583 % 7.78 C
513 16-09-2011 00:00:00 12.79667 C 78.8750 % 9.23 C
514 17-09-2011 00:00:00 16.78824 C 67.5798 % 10.76 C
515 18-09-2011 00:00:00 12.7625 C 73.2333 % 8.1 C
516 19-09-2011 00:00:00 12.76833 C 68.7167 % 7.17 C
517 20-09-2011 00:00:00 12.41333 C 74.0667 % 7.93 C
518 21-09-2011 00:00:00 13.775 C 70.1333 % 8.43 C
519 22-09-2011 00:00:00 15.79167 C 59.3417 % 7.89 C
520 23-09-2011 00:00:00 14.20917 C 64.8250 % 7.69 C
521 24-09-2011 00:00:00 12.8025 C 74.2750 % 8.34 C
522 25-09-2011 00:00:00 14.1125 C 76.8000 % 10.11 C
523 26-09-2011 00:00:00 15.74917 C 76.1250 % 11.56 C
524 27-09-2011 00:00:00 17.1525 C 74.8583 % 12.66 C
525 28-09-2011 00:00:00 16.71 C 77.5333 % 12.77 C
Sensor: Nr:Datum:Temp:Feuchte:Taupunkt:
Aussen-T/F 526 29-09-2011 00:00:00 16.13167 C 75.2500 % 11.75 C
527 30-09-2011 00:00:00 14.48824 C 75.4034 % 10.2 C
528 01-10-2011 00:00:00 14.3525 C 77.3833 % 10.45 C
529 02-10-2011 00:00:00 14.74 C 77.1417 % 10.78 C
530 03-10-2011 00:00:00 15.125 C 75.4750 % 10.82 C
531 04-10-2011 00:00:00 16.96167 C 63.1167 % 9.9 C
532 05-10-2011 00:00:00 17.94667 C 59.6250 % 9.98 C
533 06-10-2011 00:00:00 14.175 C 69.3833 % 8.66 C
534 07-10-2011 00:00:00 9.92583 C 66.5083 % 3.99 C
535 08-10-2011 00:00:00 9.01167 C 73.3417 % 4.51 C
536 09-10-2011 00:00:00 9.11667 C 79.0750 % 5.69 C
537 10-10-2011 00:00:00 16.5475 C 68.2167 % 10.67 C
538 11-10-2011 00:00:00 16.37917 C 62.5417 % 9.22 C
539 12-10-2011 00:00:00 15.74333 C 66.8000 % 9.59 C
540 13-10-2011 00:00:00 10.145 C 73.3667 % 5.6 C
541 14-10-2011 00:00:00 6.14286 C 78.8151 % 2.75 C
542 15-10-2011 00:00:00 4.65417 C 78.8000 % 1.3 C
543 16-10-2011 00:00:00 4.29833 C 79.7583 % 1.12 C
544 17-10-2011 00:00:00 6.42917 C 82.1833 % 3.62 C
545 18-10-2011 00:00:00 8.99833 C 81.0167 % 5.92 C
546 19-10-2011 00:00:00 8.2025 C 70.7333 % 3.21 C
547 20-10-2011 00:00:00 5.4275 C 79.8333 % 2.23 C
548 21-10-2011 00:00:00 3.16333 C 87.6917 % 1.32 C
549 22-10-2011 00:00:00 3.45333 C 82.2083 % 0.71 C
550 23-10-2011 00:00:00 2.44833 C 85.8917 % 0.33 C
Sensor: Nr:Datum:Temp:Feuchte:Taupunkt:
Aussen-T/F 551 24-10-2011 00:00:00 5.85083 C 75.8167 % 1.92 C
552 25-10-2011 00:00:00 9.17417 C 73.4750 % 4.69 C
553 26-10-2011 00:00:00 9.305 C 71.1750 % 4.36 C
554 27-10-2011 00:00:00 5.69333 C 85.4917 % 3.46 C
555 28-10-2011 00:00:00 8.32857 C 86.7731 % 6.26 C
556 29-10-2011 00:00:00 10.61667 C 83.0000 % 7.85 C
557 30-10-2011 00:00:00 12.2192 C 86.1680 % 9.98 C
558 31-10-2011 00:00:00 11.39 C 86.4000 % 9.2 C
559 01-11-2011 00:00:00 9.17333 C 84.4083 % 6.69 C
560 02-11-2011 00:00:00 10.59667 C 80.8500 % 7.45 C
561 03-11-2011 00:00:00 11.35583 C 71.9417 % 6.48 C
562 04-11-2011 00:00:00 10.15333 C 80.0500 % 6.87 C
563 05-11-2011 00:00:00 10.31333 C 76.4167 % 6.35 C
564 06-11-2011 00:00:00 8.90583 C 84.0333 % 6.36 C
565 07-11-2011 00:00:00 8.85 C 80.9583 % 5.77 C
566 08-11-2011 00:00:00 5.84583 C 87.4583 % 3.93 C
567 09-11-2011 00:00:00 6.5025 C 86.5500 % 4.43 C
568 10-11-2011 00:00:00 6.29328 C 81.6218 % 3.39 C
569 11-11-2011 00:00:00 6.25417 C 76.0750 % 2.36 C
570 12-11-2011 00:00:00 4.20083 C 82.4417 % 1.48 C
571 13-11-2011 00:00:00 4.15833 C 85.7750 % 1.99 C
572 14-11-2011 00:00:00 0.35917 C 92.4167 % -0.72 C
573 15-11-2011 00:00:00 0.25583 C 92.2667 % -0.85 C
574 16-11-2011 00:00:00 -1.305 C 91.7000 % -2.48 C
575 17-11-2011 00:00:00 3.935 C 80.2583 % 0.85 C
Sensor: Nr:Datum:Temp:Feuchte:Taupunkt:
Aussen-T/F 576 18-11-2011 00:00:00 7.49833 C 83.7333 % 4.93 C
577 19-11-2011 00:00:00 5.435 C 89.5667 % 3.86 C
578 20-11-2011 00:00:00 6.58083 C 80.3583 % 3.45 C
579 21-11-2011 00:00:00 1.40917 C 92.2250 % 0.29 C
580 22-11-2011 00:00:00 1.14083 C 92.1583 % 0.01 C
581 23-11-2011 00:00:00 1.59583 C 92.8833 % 0.57 C
582 24-11-2011 00:00:00 2.37083 C 92.1167 % 1.23 C
583 25-11-2011 00:00:00 1.0775 C 85.7083 % -1.04 C
584 26-11-2011 00:00:00 6.25167 C 75.0583 % 2.17 C
585 27-11-2011 00:00:00 7.40833 C 70.7917 % 2.46 C
586 28-11-2011 00:00:00 0.83833 C 92.3250 % -0.26 C
587 29-11-2011 00:00:00 1.88167 C 89.6667 % 0.37 C
588 30-11-2011 00:00:00 4.85083 C 85.9250 % 2.7 C
589 01-12-2011 00:00:00 5.52417 C 87.8333 % 3.67 C
590 02-12-2011 00:00:00 7.12667 C 77.6917 % 3.5 C
591 03-12-2011 00:00:00 6.26583 C 76.7250 % 2.49 C
592 04-12-2011 00:00:00 8.2975 C 80.9000 % 5.22 C
593 05-12-2011 00:00:00 4.38417 C 71.7167 % -0.26 C
594 06-12-2011 00:00:00 4.445 C 67.2500 % -1.08 C
595 07-12-2011 00:00:00 5.57833 C 70.8167 % 0.71 C
596 08-12-2011 00:00:00 6.22333 C 62.1250 % -0.48 C
597 09-12-2011 00:00:00 5.94583 C 71.2167 % 1.14 C
598 10-12-2011 00:00:00 1.885 C 76.4500 % -1.81 C
599 11-12-2011 00:00:00 0.43667 C 83.0417 % -2.1 C
600 12-12-2011 00:00:00 5.96583 C 76.8000 % 2.21 C
Sensor: Nr:Datum:Temp:Feuchte:Taupunkt:
Aussen-T/F 601 13-12-2011 00:00:00 6.86417 C 68.8250 % 1.55 C
602 14-12-2011 00:00:00 6.68371 C 80.3447 % 3.55 C
603 15-12-2011 00:00:00 6.13646 C 77.7778 % 2.56 C
604 16-12-2011 00:00:00 6.07222 C 83.0347 % 3.41 C
605 17-12-2011 00:00:00 3.63507 C 84.7535 % 1.31 C
606 18-12-2011 00:00:00 2.25764 C 86.7604 % 0.29 C
607 19-12-2011 00:00:00 1.70208 C 86.1250 % -0.36 C
608 20-12-2011 00:00:00 2.28715 C 90.9132 % 0.96 C
609 21-12-2011 00:00:00 4.19792 C 87.9167 % 2.38 C
610 22-12-2011 00:00:00 6.57917 C 94.6910 % 5.79 C
611 23-12-2011 00:00:00 8.41806 C 90.8021 % 7 C
612 24-12-2011 00:00:00 5.63368 C 83.5243 % 3.07 C
613 25-12-2011 00:00:00 5.68472 C 86.3750 % 3.59 C
614 26-12-2011 00:00:00 8.12222 C 89.4931 % 6.5 C
615 27-12-2011 00:00:00 8.25139 C 89.0139 % 6.55 C
616 28-12-2011 00:00:00 5.71424 C 86.6597 % 3.67 C
617 29-12-2011 00:00:00 5.51667 C 80.4757 % 2.43 C
618 30-12-2011 00:00:00 4.24861 C 83.3125 % 1.68 C
619 31-12-2011 00:00:00 5.15729 C 93.6007 % 4.21 C
620 01-01-2012 00:00:00 12.02807 C 88.3754 % 10.17 C
621 02-01-2012 00:00:00 8.87847 C 88.2917 % 7.05 C
622 03-01-2012 00:00:00 7.43403 C 81.7917 % 4.53 C
623 04-01-2012 00:00:00 6.56875 C 76.5174 % 2.75 C
624 05-01-2012 00:00:00 6.88368 C 80.3785 % 3.75 C
625 06-01-2012 00:00:00 5.40208 C 81.6389 % 2.52 C
Sensor: Nr:Datum:Temp:Feuchte:Taupunkt:
Aussen-T/F 626 07-01-2012 00:00:00 5.54653 C 84.9201 % 3.22 C
627 08-01-2012 00:00:00 5.96042 C 84.6111 % 3.57 C
628 09-01-2012 00:00:00 6.11424 C 89.9479 % 4.59 C
629 10-01-2012 00:00:00 6.93056 C 91.1319 % 5.59 C
630 11-01-2012 00:00:00 8.11597 C 82.0938 % 5.25 C
631 12-01-2012 00:00:00 8.18819 C 82.4028 % 5.37 C
632 13-01-2012 00:00:00 5.12569 C 75.8264 % 1.22 C
633 14-01-2012 00:00:00 3.95417 C 78.8958 % 0.63 C
634 15-01-2012 00:00:00 -0.23715 C 94.8993 % -0.95 C
635 16-01-2012 00:00:00 -1.80312 C 94.0521 % -2.63 C
636 17-01-2012 00:00:00 -2.78368 C 92.5069 % -3.83 C
637 18-01-2012 00:00:00 -0.12708 C 89.9653 % -1.57 C
638 19-01-2012 00:00:00 6.67639 C 90.1007 % 5.17 C
639 20-01-2012 00:00:00 4.025 C 86.9236 % 2.05 C
640 21-01-2012 00:00:00 5.73681 C 89.5382 % 4.15 C
641 22-01-2012 00:00:00 6.85764 C 76.0660 % 2.94 C
642 23-01-2012 00:00:00 5.22708 C 82.6806 % 2.53 C
643 24-01-2012 00:00:00 3.1191 C 90.7222 % 1.75 C
644 25-01-2012 00:00:00 0.47708 C 94.7813 % -0.26 C
645 26-01-2012 00:00:00 1.84132 C 84.3368 % -0.51 C
646 27-01-2012 00:00:00 2.58437 C 92.0104 % 1.42 C
647 28-01-2012 00:00:00 2.69896 C 87.8090 % 0.89 C
648 29-01-2012 00:00:00 0.84583 C 81.3299 % -1.98 C
649 30-01-2012 00:00:00 -0.00208 C 80.3854 % -2.97 C
650 31-01-2012 00:00:00 -1.90972 C 70.0243 % -6.64 C
Sensor: Nr:Datum:Temp:Feuchte:Taupunkt:
Aussen-T/F 651 01-02-2012 00:00:00 -5.28403 C 61.1667 % -11.58 C
652 02-02-2012 00:00:00 -7.12396 C 51.7535 % -15.35 C
653 03-02-2012 00:00:00 -8.52361 C 68.2153 % -13.32 C
654 04-02-2012 00:00:00 -8.31389 C 77.7396 % -11.5 C
655 05-02-2012 00:00:00 -9.04861 C 72.3715 % -13.1 C
656 06-02-2012 00:00:00 -9.67674 C 69.6979 % -14.16 C
657 07-02-2012 00:00:00 -9.19832 C 69.3067 % -13.77 C
658 08-02-2012 00:00:00 -5.57083 C 72.6528 % -9.69 C
659 09-02-2012 00:00:00 -7.39479 C 86.5868 % -9.24 C
660 10-02-2012 00:00:00 -6.11875 C 75.6354 % -9.71 C
661 11-02-2012 00:00:00 -8.24931 C 70.5451 % -12.64 C
662 12-02-2012 00:00:00 -6.58063 C 72.4466 % -10.7 C
663 13-02-2012 00:00:00 -0.88993 C 82.6458 % -3.46 C
664 14-02-2012 00:00:00 1.59931 C 93.4410 % 0.66 C
665 15-02-2012 00:00:00 3.97674 C 86.0694 % 1.86 C
666 16-02-2012 00:00:00 3.54896 C 91.1875 % 2.25 C
667 17-02-2012 00:00:00 5.57917 C 87.8576 % 3.73 C
668 18-02-2012 00:00:00 6.37083 C 88.0556 % 4.54 C
669 19-02-2012 00:00:00 2.99271 C 87.9861 % 1.2 C
670 20-02-2012 00:00:00 1.18333 C 84.9583 % -1.06 C
671 21-02-2012 00:00:00 1.84583 C 78.4063 % -1.5 C
672 22-02-2012 00:00:00 3.17951 C 81.1493 % 0.27 C
673 23-02-2012 00:00:00 6.17352 C 81.6864 % 3.28 C
674 24-02-2012 00:00:00 9.38101 C 86.6938 % 7.28 C
675 25-02-2012 00:00:00 8.6186 C 80.9439 % 5.54 C
Sensor: Nr:Datum:Temp:Feuchte:Taupunkt:
Aussen-T/F 676 26-02-2012 00:00:00 5.29167 C 88.4757 % 3.55 C
677 27-02-2012 00:00:00 5.81944 C 83.3333 % 3.22 C
678 28-02-2012 00:00:00 8.57639 C 85.4861 % 6.28 C
679 29-02-2012 00:00:00 9.49583 C 92.3403 % 8.32 C
680 01-03-2012 00:00:00 9.01563 C 93.6979 % 8.06 C
681 02-03-2012 00:00:00 8.57986 C 92.6771 % 7.46 C
682 03-03-2012 00:00:00 7.91597 C 90.3438 % 6.43 C
683 04-03-2012 00:00:00 8.65625 C 81.6354 % 5.7 C
684 05-03-2012 00:00:00 5.81597 C 77.6597 % 2.22 C
685 06-03-2012 00:00:00 5.43924 C 73.2222 % 1.04 C
686 07-03-2012 00:00:00 2.91784 C 81.1970 % 0.02 C
687 08-03-2012 00:00:00 5.35833 C 80.5347 % 2.29 C
688 09-03-2012 00:00:00 4.88437 C 78.4410 % 1.46 C
689 10-03-2012 00:00:00 8.58723 C 78.8759 % 5.14 C
690 11-03-2012 00:00:00 9.26151 C 82.9496 % 6.52 C
691 12-03-2012 00:00:00 8.06347 C 86.5240 % 5.96 C
692 13-03-2012 00:00:00 7.68299 C 83.6458 % 5.1 C
693 14-03-2012 00:00:00 6.93542 C 78.8819 % 3.53 C
694 15-03-2012 00:00:00 7.07812 C 79.2431 % 3.73 C
695 16-03-2012 00:00:00 10.0412 C 69.7077 % 4.77 C
696 17-03-2012 00:00:00 9.42917 C 75.0799 % 5.24 C
697 18-03-2012 00:00:00 8.64931 C 83.8368 % 6.07 C
698 19-03-2012 00:00:00 7.34303 C 72.1270 % 2.66 C
699 20-03-2012 00:00:00 6.68807 C 68.1687 % 1.25 C
700 21-03-2012 00:00:00 7.73902 C 69.3206 % 2.49 C
Sensor: Nr:Datum:Temp:Feuchte:Taupunkt:
Aussen-T/F 701 22-03-2012 00:00:00 10.04583 C 71.3403 % 5.1 C
702 23-03-2012 00:00:00 11.69132 C 71.9826 % 6.82 C
703 24-03-2012 00:00:00 11.62674 C 70.9132 % 6.54 C
704 25-03-2012 00:00:00 12.80873 C 62.8291 % 5.91 C
705 26-03-2012 00:00:00 11.16806 C 58.5764 % 3.36 C
706 27-03-2012 00:00:00 11.10694 C 65.9826 % 5 C
707 28-03-2012 00:00:00 11.74201 C 67.7188 % 5.98 C
708 29-03-2012 00:00:00 9.58194 C 71.1354 % 4.62 C
709 30-03-2012 00:00:00 9.39062 C 79.1701 % 5.97 C
710 31-03-2012 00:00:00 7.98706 C 76.3042 % 4.08 C
711 01-04-2012 00:00:00 4.77396 C 63.6736 % -1.51 C
712 02-04-2012 00:00:00 6.69514 C 71.1493 % 1.85 C
713 03-04-2012 00:00:00 11.08125 C 62.9931 % 4.31 C
714 04-04-2012 00:00:00 9.89722 C 82.2743 % 7.02 C
715 05-04-2012 00:00:00 7.74514 C 80.8958 % 4.68 C
716 06-04-2012 00:00:00 7.88292 C 67.6655 % 2.28 C
717 07-04-2012 00:00:00 5.61389 C 72.7882 % 1.13 C
718 08-04-2012 00:00:00 5.19194 C 54.1941 % -3.29 C
719 09-04-2012 00:00:00 7.24583 C 83.3264 % 4.61 C
720 10-04-2012 00:00:00 11.25451 C 77.8646 % 7.54 C
721 11-04-2012 00:00:00 9.71215 C 72.8056 % 5.08 C
722 12-04-2012 00:00:00 6.41736 C 84.4444 % 3.99 C
723 13-04-2012 00:00:00 6.76632 C 81.2847 % 3.79 C
724 14-04-2012 00:00:00 7.83021 C 71.5486 % 3.02 C
725 15-04-2012 00:00:00 8.52361 C 73.9826 % 4.16 C
Sensor: Nr:Datum:Temp:Feuchte:Taupunkt:
Aussen-T/F 726 16-04-2012 00:00:00 5.92438 C 63.9835 % -0.36 C
727 17-04-2012 00:00:00 5.90382 C 59.8090 % -1.3 C
728 18-04-2012 00:00:00 8.72674 C 72.5451 % 4.08 C
729 19-04-2012 00:00:00 8.47422 C 80.8084 % 5.37 C
730 20-04-2012 00:00:00 7.34574 C 84.4529 % 4.9 C
731 21-04-2012 00:00:00 8.16701 C 81.3229 % 5.16 C
732 22-04-2012 00:00:00 7.84306 C 80.2049 % 4.65 C
733 23-04-2012 00:00:00 8.39097 C 79.6389 % 5.08 C
734 24-04-2012 00:00:00 8.89757 C 84.6181 % 6.45 C
735 25-04-2012 00:00:00 10.14167 C 78.2292 % 6.53 C
736 26-04-2012 00:00:00 11.47083 C 79.8958 % 8.13 C
737 27-04-2012 00:00:00 12.5625 C 82.5104 % 9.67 C
738 28-04-2012 00:00:00 18.10903 C 72.5139 % 13.09 C
739 29-04-2012 00:00:00 16.89826 C 73.1979 % 12.07 C
740 30-04-2012 00:00:00 17.93194 C 63.6007 % 10.94 C
741 01-05-2012 00:00:00 17.12465 C 71.7708 % 11.99 C
742 02-05-2012 00:00:00 15.24479 C 86.9549 % 13.09 C
743 03-05-2012 00:00:00 13.43472 C 77.5035 % 9.59 C
744 04-05-2012 00:00:00 14.57083 C 73.6806 % 9.93 C
745 05-05-2012 00:00:00 11.45069 C 92.9271 % 10.35 C
746 06-05-2012 00:00:00 10.57674 C 92.8021 % 9.46 C
747 07-05-2012 00:00:00 10.38681 C 83.5556 % 7.73 C
748 08-05-2012 00:00:00 13.89063 C 73.1215 % 9.16 C
749 09-05-2012 00:00:00 16.78229 C 82.0903 % 13.71 C
750 10-05-2012 00:00:00 19.11111 C 78.7257 % 15.33 C
Sensor: Nr:Datum:Temp:Feuchte:Taupunkt:
Aussen-T/F 751 11-05-2012 00:00:00 19.125 C 80.7014 % 15.73 C
752 12-05-2012 00:00:00 11.31289 C 69.8188 % 6.01 C
753 13-05-2012 00:00:00 9.38646 C 66.5382 % 3.48 C
754 14-05-2012 00:00:00 11.40799 C 62.7778 % 4.57 C
755 15-05-2012 00:00:00 9.5625 C 74.6979 % 5.3 C
756 16-05-2012 00:00:00 8.66597 C 76.0417 % 4.69 C
757 17-05-2012 00:00:00 9.38889 C 67.5799 % 3.7 C
758 18-05-2012 00:00:00 12.68299 C 77.1667 % 8.79 C
759 19-05-2012 00:00:00 15.71389 C 82.6667 % 12.77 C
760 20-05-2012 00:00:00 17.6684 C 78.6076 % 13.91 C
761 21-05-2012 00:00:00 18.52986 C 81.4410 % 15.29 C
762 22-05-2012 00:00:00 21.31944 C 73.3576 % 16.36 C
763 23-05-2012 00:00:00 18.79965 C 89.2743 % 17 C
764 24-05-2012 00:00:00 20.69687 C 73.7639 % 15.85 C
765 25-05-2012 00:00:00 19.45313 C 48.2882 % 8.25 C
766 26-05-2012 00:00:00 18.11007 C 54.3056 % 8.75 C
767 27-05-2012 00:00:00 18.05868 C 62.2743 % 10.74 C
768 28-05-2012 00:00:00 18.93417 C 63.8705 % 11.95 C
769 29-05-2012 00:00:00 18.46288 C 64.9508 % 11.76 C
770 30-05-2012 00:00:00 17.68438 C 78.7569 % 13.95 C
771 31-05-2012 00:00:00 16.03021 C 84.4167 % 13.4 C
772 01-06-2012 00:00:00 15.74271 C 76.1632 % 11.56 C
773 02-06-2012 00:00:00 15.19271 C 70.5938 % 9.89 C
774 03-06-2012 00:00:00 12.60255 C 88.8727 % 10.82 C
775 04-06-2012 00:00:00 13.31389 C 85.8576 % 11 C
Sensor: Nr:Datum:Temp:Feuchte:Taupunkt:
Aussen-T/F 776 05-06-2012 00:00:00 12.15312 C 69.0486 % 6.65 C
777 06-06-2012 00:00:00 13.09444 C 86.8056 % 10.95 C
778 07-06-2012 00:00:00 16.45799 C 88.8576 % 14.62 C
779 08-06-2012 00:00:00 17.34097 C 72.3854 % 12.33 C
780 09-06-2012 00:00:00 14.79028 C 66.1215 % 8.53 C
781 10-06-2012 00:00:00 15.29514 C 66.6736 % 9.14 C
782 11-06-2012 00:00:00 14.57014 C 84.7083 % 12.03 C
783 12-06-2012 00:00:00 14.40729 C 86.0764 % 12.11 C
784 13-06-2012 00:00:00 12.57363 C 92.7692 % 11.44 C
785 14-06-2012 00:00:00 14.15694 C 81.5104 % 11.04 C
786 15-06-2012 00:00:00 16.11806 C 85.0833 % 13.61 C
787 16-06-2012 00:00:00 15.40799 C 92.7326 % 14.24 C
788 17-06-2012 00:00:00 17.28021 C 70.4549 % 11.86 C
789 18-06-2012 00:00:00 18.57292 C 74.0694 % 13.87 C
790 19-06-2012 00:00:00 17.44028 C 82.5590 % 14.44 C
791 20-06-2012 00:00:00 16.35833 C 96.8785 % 15.86 C
792 21-06-2012 00:00:00 18.41354 C 89.4583 % 16.65 C
793 22-06-2012 00:00:00 16.36181 C 75.7083 % 12.07 C
794 23-06-2012 00:00:00 16.63472 C 71.3924 % 11.44 C
795 24-06-2012 00:00:00 14.73507 C 82.4306 % 11.78 C
796 25-06-2012 00:00:00 15.09028 C 78.7917 % 11.44 C
797 26-06-2012 00:00:00 16.43125 C 73.6111 % 11.71 C
798 27-06-2012 00:00:00 18.07569 C 84.8264 % 15.48 C
799 28-06-2012 00:00:00 21.87465 C 80.2743 % 18.32 C
800 29-06-2012 00:00:00 20.49063 C 90.0868 % 18.81 C
Sensor: Nr:Datum:Temp:Feuchte:Taupunkt:
Aussen-T/F 801 30-06-2012 00:00:00 20.14965 C 78.6563 % 16.32 C
802 01-07-2012 00:00:00 17.98889 C 81.2882 % 14.74 C
803 02-07-2012 00:00:00 15.24444 C 86.4826 % 13 C
804 03-07-2012 00:00:00 18.02153 C 76.9132 % 13.91 C
805 04-07-2012 00:00:00 19.87465 C 76.5000 % 15.62 C
806 05-07-2012 00:00:00 19.09722 C 91.7153 % 17.72 C
807 06-07-2012 00:00:00 19.21042 C 82.2708 % 16.11 C
808 07-07-2012 00:00:00 19.57743 C 72.4514 % 14.49 C
809 08-07-2012 00:00:00 17.84097 C 81.3542 % 14.6 C
810 09-07-2012 00:00:00 18.63611 C 72.1944 % 13.53 C
811 10-07-2012 00:00:00 19.1441 C 76.7604 % 14.97 C
812 11-07-2012 00:00:00 16.03394 C 79.6861 % 12.53 C
813 12-07-2012 00:00:00 14.8191 C 77.8715 % 11 C
814 13-07-2012 00:00:00 15.50417 C 89.5694 % 13.8 C
815 14-07-2012 00:00:00 15.27708 C 87.8125 % 13.27 C
816 15-07-2012 00:00:00 14.52014 C 86.8542 % 12.36 C
817 16-07-2012 00:00:00 15.02292 C 79.1840 % 11.45 C
818 17-07-2012 00:00:00 17.55035 C 76.7431 % 13.42 C
819 18-07-2012 00:00:00 19.89649 C 72.5088 % 14.81 C
820 19-07-2012 00:00:00 18.18194 C 70.2743 % 12.68 C
821 20-07-2012 00:00:00 14.85872 C 85.6406 % 12.48 C
822 21-07-2012 00:00:00 15.04167 C 80.6493 % 11.74 C
823 22-07-2012 00:00:00 14.62049 C 74.5139 % 10.15 C
824 23-07-2012 00:00:00 17.15069 C 68.0972 % 11.22 C
825 24-07-2012 00:00:00 19.81701 C 70.4826 % 14.3 C
Sensor: Nr:Datum:Temp:Feuchte:Taupunkt:
Aussen-T/F 826 25-07-2012 00:00:00 22.11408 C 72.7218 % 16.99 C
827 26-07-2012 00:00:00 23.10764 C 73.2326 % 18.05 C
828 27-07-2012 00:00:00 22.2566 C 82.8021 % 19.19 C
829 28-07-2012 00:00:00 19.03507 C 92.5660 % 17.8 C
830 29-07-2012 00:00:00 17.61875 C 75.5799 % 13.26 C
831 30-07-2012 00:00:00 16.17396 C 70.1250 % 10.73 C
832 31-07-2012 00:00:00 16.33993 C 79.2778 % 12.75 C
833 01-08-2012 00:00:00 20.08194 C 75.0521 % 15.52 C
834 02-08-2012 00:00:00 20.75938 C 75.0938 % 16.19 C
835 03-08-2012 00:00:00 19.31771 C 71.6042 % 14.06 C
836 04-08-2012 00:00:00 19.1 C 71.9653 % 13.93 C
837 05-08-2012 00:00:00 19.0875 C 83.3889 % 16.21 C
838 06-08-2012 00:00:00 18.40312 C 78.4965 % 14.6 C
839 07-08-2012 00:00:00 17.15556 C 73.1701 % 12.31 C
840 08-08-2012 00:00:00 16.59132 C 79.3229 % 13 C
841 09-08-2012 00:00:00 18.49479 C 77.0868 % 14.41 C
842 10-08-2012 00:00:00 17.33299 C 71.4028 % 12.11 C
843 11-08-2012 00:00:00 16.29444 C 73.2604 % 11.5 C
844 12-08-2012 00:00:00 17.40486 C 68.6181 % 11.58 C
845 13-08-2012 00:00:00 18.22326 C 73.1944 % 13.35 C
846 14-08-2012 00:00:00 19.78993 C 79.0521 % 16.05 C
847 15-08-2012 00:00:00 22.31354 C 70.9549 % 16.79 C
848 16-08-2012 00:00:00 21.27535 C 67.3125 % 14.97 C
849 17-08-2012 00:00:00 20.12986 C 70.1146 % 14.51 C
850 18-08-2012 00:00:00 23.0066 C 67.4271 % 16.65 C
Sensor: Nr:Datum:Temp:Feuchte:Taupunkt:
Aussen-T/F 851 19-08-2012 00:00:00 24.67083 C 69.9722 % 18.82 C
852 20-08-2012 00:00:00 23.43229 C 80.3090 % 19.84 C
853 21-08-2012 00:00:00 22.6875 C 81.6771 % 19.39 C
854 22-08-2012 00:00:00 20.95729 C 64.6042 % 14.04 C
855 23-08-2012 00:00:00 17.78194 C 65.1285 % 11.15 C
856 24-08-2012 00:00:00 18.62842 C 81.4105 % 15.38 C
857 25-08-2012 00:00:00 18.46493 C 78.6458 % 14.69 C
858 26-08-2012 00:00:00 16.26667 C 78.3021 % 12.49 C
859 27-08-2012 00:00:00 16.32049 C 79.0486 % 12.68 C
860 28-08-2012 00:00:00 18.03507 C 74.6076 % 13.46 C
861 29-08-2012 00:00:00 20.02396 C 77.5486 % 15.98 C
862 30-08-2012 00:00:00 17.48889 C 81.0208 % 14.2 C
863 31-08-2012 00:00:00 13.93646 C 84.9132 % 11.44 C
864 01-09-2012 00:00:00 14.49236 C 76.3785 % 10.39 C
865 02-09-2012 00:00:00 13.96285 C 82.2604 % 10.99 C
866 03-09-2012 00:00:00 16.22222 C 79.7535 % 12.72 C
867 04-09-2012 00:00:00 16.86098 C 82.0105 % 13.77 C
868 05-09-2012 00:00:00 16.4125 C 79.7500 % 12.91 C
869 06-09-2012 00:00:00 14.63604 C 70.9187 % 9.42 C
870 07-09-2012 00:00:00 14.4309 C 73.8368 % 9.83 C
871 08-09-2012 00:00:00 16.83403 C 70.1076 % 11.36 C
872 09-09-2012 00:00:00 18.54722 C 68.1563 % 12.57 C
873 10-09-2012 00:00:00 19.67847 C 67.2465 % 13.44 C
874 11-09-2012 00:00:00 17.74028 C 83.6910 % 14.95 C
875 12-09-2012 00:00:00 11.13646 C 93.3750 % 10.11 C
Sensor: Nr:Datum:Temp:Feuchte:Taupunkt:
Aussen-T/F 876 13-09-2012 00:00:00 10.78611 C 90.3368 % 9.27 C
877 14-09-2012 00:00:00 13.01424 C 83.7639 % 10.33 C
878 15-09-2012 00:00:00 13.44514 C 88.4410 % 11.57 C
879 16-09-2012 00:00:00 13.24236 C 85.5903 % 10.88 C
880 17-09-2012 00:00:00 15.15729 C 83.0208 % 12.3 C
881 18-09-2012 00:00:00 14.10868 C 84.2188 % 11.49 C
882 19-09-2012 00:00:00 11.7684 C 70.2292 % 6.53 C
883 20-09-2012 00:00:00 9.9566 C 72.9271 % 5.33 C
884 21-09-2012 00:00:00 10.62118 C 79.5069 % 7.23 C
885 22-09-2012 00:00:00 11.53611 C 80.2917 % 8.26 C
886 23-09-2012 00:00:00 11.58819 C 78.6007 % 8 C
887 24-09-2012 00:00:00 14.89201 C 84.5486 % 12.31 C
888 25-09-2012 00:00:00 12.86597 C 88.1563 % 10.96 C
889 26-09-2012 00:00:00 12.27917 C 95.0382 % 11.51 C
890 27-09-2012 00:00:00 12.68611 C 88.7257 % 10.88 C
891 28-09-2012 00:00:00 12.56701 C 85.9757 % 10.29 C
892 29-09-2012 00:00:00 11.68819 C 84.0382 % 9.08 C
893 30-09-2012 00:00:00 9.30035 C 89.3681 % 7.64 C
894 01-10-2012 00:00:00 9.46319 C 85.2118 % 7.11 C
895 02-10-2012 00:00:00 12.25764 C 84.6736 % 9.75 C
896 03-10-2012 00:00:00 14.55312 C 82.0139 % 11.52 C
897 04-10-2012 00:00:00 12.89722 C 83.2569 % 10.13 C
898 05-10-2012 00:00:00 13.57986 C 85.1285 % 11.13 C
899 06-10-2012 00:00:00 14.99065 C 84.0244 % 12.32 C
900 07-10-2012 00:00:00 10.63669 C 85.8058 % 8.36 C
Sensor: Nr:Datum:Temp:Feuchte:Taupunkt:
Aussen-T/F 901 08-10-2012 00:00:00 8.1958 C 91.4790 % 6.89 C
902 09-10-2012 00:00:00 10.60348 C 82.4776 % 7.75 C
903 10-10-2012 00:00:00 6.21146 C 91.4826 % 4.93 C
904 11-10-2012 00:00:00 6.67361 C 92.2431 % 5.51 C
905 12-10-2012 00:00:00 10.79653 C 89.9479 % 9.22 C
906 13-10-2012 00:00:00 9.08472 C 85.8854 % 6.85 C
907 14-10-2012 00:00:00 8.15833 C 90.5868 % 6.71 C
908 15-10-2012 00:00:00 7.43264 C 92.8646 % 6.36 C
909 16-10-2012 00:00:00 7.85556 C 89.7188 % 6.27 C
910 17-10-2012 00:00:00 10.85972 C 90.2361 % 9.33 C
911 18-10-2012 00:00:00 14.37569 C 85.3924 % 11.96 C
912 19-10-2012 00:00:00 14.37187 C 89.1111 % 12.6 C
913 20-10-2012 00:00:00 13.74722 C 92.9722 % 12.63 C
914 21-10-2012 00:00:00 13.32917 C 93.7014 % 12.34 C
915 22-10-2012 00:00:00 11.79062 C 93.9931 % 10.86 C
916 23-10-2012 00:00:00 11.38403 C 87.8194 % 9.44 C
917 24-10-2012 00:00:00 9.71528 C 91.8819 % 8.46 C
918 25-10-2012 00:00:00 9.9441 C 92.9271 % 8.85 C
919 26-10-2012 00:00:00 6.73542 C 93.3472 % 5.74 C
920 27-10-2012 00:00:00 2.98993 C 78.3160 % -0.41 C
921 28-10-2012 00:00:00 0.51181 C 90.1007 % -0.92 C
922 29-10-2012 00:00:00 0.69306 C 92.2292 % -0.42 C
923 30-10-2012 00:00:00 6.0566 C 90.8507 % 4.68 C
924 31-10-2012 00:00:00 5.97118 C 91.2778 % 4.66 C
925 01-11-2012 00:00:00 7.64965 C 85.8819 % 5.44 C
Sensor: Nr:Datum:Temp:Feuchte:Taupunkt:
Aussen-T/F 926 02-11-2012 00:00:00 7.75417 C 81.4132 % 4.78 C
927 03-11-2012 00:00:00 7.38542 C 94.0104 % 6.49 C
928 04-11-2012 00:00:00 7.74028 C 92.3472 % 6.58 C
929 05-11-2012 00:00:00 8.00382 C 84.4444 % 5.55 C
930 06-11-2012 00:00:00 6.03264 C 87.7708 % 4.16 C
931 07-11-2012 00:00:00 8.52535 C 86.8021 % 6.46 C
932 08-11-2012 00:00:00 8.82222 C 80.7188 % 5.7 C
933 09-11-2012 00:00:00 8.19861 C 83.9444 % 5.65 C
934 10-11-2012 00:00:00 8.89201 C 93.0243 % 7.83 C
935 11-11-2012 00:00:00 8.24097 C 92.3333 % 7.07 C
936 12-11-2012 00:00:00 5.70868 C 88.6701 % 3.99 C
937 13-11-2012 00:00:00 3.26076 C 94.2639 % 2.43 C
938 14-11-2012 00:00:00 2.60312 C 94.3438 % 1.79 C
939 15-11-2012 00:00:00 4.53958 C 88.2361 % 2.77 C
940 16-11-2012 00:00:00 3.22222 C 87.5313 % 1.36 C
941 17-11-2012 00:00:00 4.33472 C 93.4931 % 3.38 C
942 18-11-2012 00:00:00 7.54896 C 95.9792 % 6.95 C
943 19-11-2012 00:00:00 7.68403 C 95.0035 % 6.94 C
944 20-11-2012 00:00:00 5.27188 C 93.6215 % 4.33 C
945 21-11-2012 00:00:00 4.38681 C 91.7778 % 3.17 C
946 22-11-2012 00:00:00 5.51111 C 94.8819 % 4.76 C
947 23-11-2012 00:00:00 6.88472 C 93.0660 % 5.84 C
948 24-11-2012 00:00:00 9.16042 C 89.4167 % 7.51 C
949 25-11-2012 00:00:00 10.6066 C 72.8889 % 5.95 C
950 26-11-2012 00:00:00 6.01493 C 95.3368 % 5.33 C
Sensor: Nr:Datum:Temp:Feuchte:Taupunkt:
Aussen-T/F 951 27-11-2012 00:00:00 7.67986 C 89.1875 % 6.02 C
952 28-11-2012 00:00:00 5.5184 C 91.1563 % 4.19 C
953 29-11-2012 00:00:00 4.01319 C 86.8021 % 2.02 C
954 30-11-2012 00:00:00 1.44375 C 93.9375 % 0.58 C
955 01-12-2012 00:00:00 -0.39861 C 93.9271 % -1.25 C
956 02-12-2012 00:00:00 2.39375 C 89.5035 % 0.85 C
957 03-12-2012 00:00:00 2.27222 C 89.5486 % 0.74 C
958 04-12-2012 00:00:00 3.75312 C 89.4653 % 2.18 C
959 05-12-2012 00:00:00 2.86667 C 90.6389 % 1.49 C
960 06-12-2012 00:00:00 0.5625 C 84.7813 % -1.7 C
961 07-12-2012 00:00:00 -1.00382 C 91.2500 % -2.25 C
962 08-12-2012 00:00:00 -4.66111 C 93.4826 % -5.55 C
963 09-12-2012 00:00:00 0.22326 C 90.9479 % -1.08 C
964 10-12-2012 00:00:00 2.70764 C 86.9965 % 0.77 C
965 11-12-2012 00:00:00 -0.72396 C 86.9514 % -2.62 C
966 12-12-2012 00:00:00 -3.40937 C 85.1563 % -5.54 C
967 13-12-2012 00:00:00 -3.53646 C 88.4896 % -5.16 C
968 14-12-2012 00:00:00 2.76076 C 92.6389 % 1.69 C
969 15-12-2012 00:00:00 6.97153 C 92.2500 % 5.8 C
970 16-12-2012 00:00:00 6.60868 C 91.0278 % 5.25 C
971 17-12-2012 00:00:00 6.04792 C 93.6910 % 5.11 C
972 18-12-2012 00:00:00 5.04583 C 93.1146 % 4.03 C
973 19-12-2012 00:00:00 3.47361 C 96.2708 % 2.94 C
974 20-12-2012 00:00:00 1.32396 C 93.7708 % 0.43 C
975 21-12-2012 00:00:00 3.19236 C 97.7708 % 2.87 C
Sensor: Nr:Datum:Temp:Feuchte:Taupunkt:
Aussen-T/F 976 22-12-2012 00:00:00 6.1691 C 95.2361 % 5.47 C
977 23-12-2012 00:00:00 11.85 C 90.7014 % 10.38 C
978 24-12-2012 00:00:00 11.08715 C 83.9306 % 8.48 C
979 25-12-2012 00:00:00 9.61181 C 81.7431 % 6.65 C
980 26-12-2012 00:00:00 8.15278 C 84.2465 % 5.66 C
981 27-12-2012 00:00:00 7.84757 C 87.0868 % 5.84 C
982 28-12-2012 00:00:00 6.19479 C 93.6806 % 5.25 C
983 29-12-2012 00:00:00 8.19931 C 92.4514 % 7.05 C
984 30-12-2012 00:00:00 8.44618 C 76.8021 % 4.62 C
985 31-12-2012 00:00:00 8.92569 C 76.6319 % 5.05 C
986 01-01-2013 00:00:00 6.59132 C 85.2465 % 4.3 C
987 02-01-2013 00:00:00 4.69861 C 86.2326 % 2.6 C
988 03-01-2013 00:00:00 7.62951 C 90.5069 % 6.18 C
989 04-01-2013 00:00:00 9.87292 C 91.9063 % 8.62 C
990 05-01-2013 00:00:00 7.8816 C 90.6528 % 6.45 C
991 06-01-2013 00:00:00 8.15069 C 89.3438 % 6.51 C
992 07-01-2013 00:00:00 7.30764 C 88.5938 % 5.55 C
993 08-01-2013 00:00:00 6.15417 C 86.4549 % 4.07 C
994 09-01-2013 00:00:00 4.72465 C 87.9271 % 2.9 C
995 10-01-2013 00:00:00 4.44028 C 90.6840 % 3.05 C
996 11-01-2013 00:00:00 1.09201 C 80.8958 % -1.81 C
997 12-01-2013 00:00:00 -2.64514 C 86.8611 % -4.53 C
998 13-01-2013 00:00:00 -3.28368 C 83.3715 % -5.69 C
999 14-01-2013 00:00:00 -4.44028 C 89.7431 % -5.87 C
1000 15-01-2013 00:00:00 -2.1941 C 89.2222 % -3.72 C
Sensor: Nr:Datum:Temp:Feuchte:Taupunkt:
Aussen-T/F 1001 16-01-2013 00:00:00 -2.65521 C 90.0208 % -4.06 C
1002 17-01-2013 00:00:00 -2.48542 C 88.3472 % -4.14 C
1003 18-01-2013 00:00:00 -1.70729 C 86.0417 % -3.73 C
1004 19-01-2013 00:00:00 -2.39375 C 81.1181 % -5.18 C
1005 20-01-2013 00:00:00 -3.06146 C 87.3229 % -4.87 C
1006 21-01-2013 00:00:00 -0.75938 C 92.5590 % -1.81 C
1007 22-01-2013 00:00:00 -1.20382 C 91.8194 % -2.36 C
1008 23-01-2013 00:00:00 -1.0566 C 91.6736 % -2.24 C
1009 24-01-2013 00:00:00 -2.40833 C 86.2639 % -4.38 C
1010 25-01-2013 00:00:00 -2.18368 C 84.2292 % -4.48 C
1011 26-01-2013 00:00:00 -1.99549 C 84.4306 % -4.26 C
1012 27-01-2013 00:00:00 2.22882 C 88.1528 % 0.48 C
1013 28-01-2013 00:00:00 3.96389 C 87.7361 % 2.12 C
1014 29-01-2013 00:00:00 9.00868 C 87.2743 % 7.01 C
1015 30-01-2013 00:00:00 11.32361 C 82.5660 % 8.47 C
1016 31-01-2013 00:00:00 7.765 C 75.5864 % 3.73 C
1017 01-02-2013 00:00:00 6.26378 C 91.9921 % 5.06 C
1018 02-02-2013 00:00:00 3.24097 C 87.7743 % 1.41 C
1019 03-02-2013 00:00:00 3.41458 C 84.2292 % 1.01 C
1020 04-02-2013 00:00:00 5.84792 C 89.4167 % 4.24 C
1021 05-02-2013 00:00:00 4.44583 C 78.9896 % 1.13 C
1022 06-02-2013 00:00:00 1.58819 C 91.4306 % 0.35 C
1023 07-02-2013 00:00:00 1.88576 C 90.5625 % 0.51 C
1024 08-02-2013 00:00:00 0.56424 C 91.6042 % -0.64 C
1025 09-02-2013 00:00:00 -0.7941 C 88.5694 % -2.44 C
Sensor: Nr:Datum:Temp:Feuchte:Taupunkt:
Aussen-T/F 1026 10-02-2013 00:00:00 -1.98681 C 82.7569 % -4.52 C
1027 11-02-2013 00:00:00 -0.9316 C 70.8750 % -5.54 C
1028 12-02-2013 00:00:00 -0.84618 C 72.2569 % -5.2 C
1029 13-02-2013 00:00:00 -0.98125 C 73.6458 % -5.08 C
1030 14-02-2013 00:00:00 -2.40382 C 83.6806 % -4.78 C
1031 15-02-2013 00:00:00 0.91806 C 93.3993 % -0.02 C
1032 16-02-2013 00:00:00 2.92847 C 95.7014 % 2.31 C
1033 17-02-2013 00:00:00 2.97465 C 92.8229 % 1.93 C
1034 18-02-2013 00:00:00 0.52847 C 89.7049 % -0.96 C
1035 19-02-2013 00:00:00 0.79306 C 91.9375 % -0.36 C
1036 20-02-2013 00:00:00 0.4316 C 79.5799 % -2.68 C
1037 21-02-2013 00:00:00 -1.21979 C 76.7188 % -4.77 C
1038 22-02-2013 00:00:00 -2.3066 C 72.8819 % -6.5 C
1039 23-02-2013 00:00:00 -2.80139 C 85.8924 % -4.83 C
1040 24-02-2013 00:00:00 -0.43958 C 90.7604 % -1.76 C
1041 25-02-2013 00:00:00 0.88785 C 95.9375 % 0.32 C
1042 26-02-2013 00:00:00 2.31215 C 94.4792 % 1.52 C
1043 27-02-2013 00:00:00 1.69271 C 89.6667 % 0.18 C
1044 28-02-2013 00:00:00 2.41771 C 88.3368 % 0.69 C
1045 01-03-2013 00:00:00 2.75278 C 82.7014 % 0.11 C
1046 02-03-2013 00:00:00 2.60208 C 75.2674 % -1.32 C
1047 03-03-2013 00:00:00 1.90104 C 84.2535 % -0.47 C
1048 04-03-2013 00:00:00 1.8934 C 82.4444 % -0.77 C
1049 05-03-2013 00:00:00 2.56979 C 83.8611 % 0.12 C
1050 06-03-2013 00:00:00 5.45035 C 78.0139 % 1.93 C
Sensor: Nr:Datum:Temp:Feuchte:Taupunkt:
Aussen-T/F 1051 07-03-2013 00:00:00 8.96146 C 79.3646 % 5.59 C
1052 08-03-2013 00:00:00 10.92049 C 83.9063 % 8.31 C
1053 09-03-2013 00:00:00 10.42118 C 84.5660 % 7.94 C
1054 10-03-2013 00:00:00 3.88611 C 90.5799 % 2.49 C
1055 11-03-2013 00:00:00 -0.5191 C 89.0764 % -2.09 C
1056 12-03-2013 00:00:00 -2.72153 C 90.2674 % -4.09 C
1057 13-03-2013 00:00:00 -2.95907 C 81.1566 % -5.73 C
1058 14-03-2013 00:00:00 -1.88944 C 86.0493 % -3.91 C
1059 15-03-2013 00:00:00 -2.50139 C 79.4063 % -5.57 C
1060 16-03-2013 00:00:00 2.40938 C 66.0729 % -3.26 C
1061 17-03-2013 00:00:00 3.22014 C 86.2431 % 1.15 C
1062 18-03-2013 00:00:00 4.14479 C 82.4410 % 1.43 C
1063 19-03-2013 00:00:00 4.10313 C 82.7500 % 1.44 C
1064 20-03-2013 00:00:00 3.59201 C 90.7639 % 2.23 C
1065 21-03-2013 00:00:00 1.33993 C 86.7153 % -0.62 C
1066 22-03-2013 00:00:00 1.7441 C 78.1840 % -1.64 C
1067 23-03-2013 00:00:00 1.46875 C 67.2951 % -3.92 C
1068 24-03-2013 00:00:00 0.48854 C 50.8924 % -8.48 C
1069 25-03-2013 00:00:00 0.18681 C 56.3854 % -7.45 C
1070 26-03-2013 00:00:00 0.3309 C 54.9167 % -7.65 C
1071 27-03-2013 00:00:00 1.19896 C 57.4340 % -6.26 C
1072 28-03-2013 00:00:00 2.07639 C 68.6563 % -3.07 C
1073 29-03-2013 00:00:00 0.53715 C 86.8750 % -1.39 C
1074 30-03-2013 00:00:00 1.50903 C 75.2361 % -2.39 C
1075 31-03-2013 00:00:00 1.17246 C 77.9094 % -2.24 C
Sensor: Nr:Datum:Temp:Feuchte:Taupunkt:
Aussen-T/F 1076 01-04-2013 00:00:00 1.44201 C 69.0382 % -3.6 C
1077 02-04-2013 00:00:00 2.12708 C 62.2396 % -4.33 C
1078 03-04-2013 00:00:00 1.88194 C 70.0521 % -2.99 C
1079 04-04-2013 00:00:00 3.97465 C 65.6701 % -1.85 C
1080 05-04-2013 00:00:00 2.45382 C 75.3299 % -1.46 C
1081 06-04-2013 00:00:00 3.55104 C 83.4028 % 1.01 C
1082 07-04-2013 00:00:00 3.40382 C 71.6181 % -1.23 C
1083 08-04-2013 00:00:00 4.46979 C 71.6076 % -0.2 C
1084 09-04-2013 00:00:00 5.89479 C 88.8681 % 4.2 C
1085 10-04-2013 00:00:00 8.34653 C 86.5139 % 6.23 C
1086 11-04-2013 00:00:00 12.25972 C 76.2674 % 8.21 C
1087 12-04-2013 00:00:00 10.42708 C 83.9722 % 7.84 C
1088 13-04-2013 00:00:00 11.30243 C 70.4826 % 6.14 C
1089 14-04-2013 00:00:00 15.49271 C 69.5903 % 9.96 C
1090 15-04-2013 00:00:00 15.52118 C 73.4931 % 10.81 C
1091 16-04-2013 00:00:00 16.01215 C 73.3854 % 11.26 C
1092 17-04-2013 00:00:00 17.14167 C 64.9028 % 10.49 C
1093 18-04-2013 00:00:00 15.57153 C 62.1528 % 8.36 C
1094 19-04-2013 00:00:00 11.46389 C 56.8333 % 3.21 C
1095 20-04-2013 00:00:00 10.16944 C 61.6736 % 3.15 C
1096 21-04-2013 00:00:00 10.71389 C 59.7014 % 3.21 C
1097 22-04-2013 00:00:00 12.26562 C 60.0069 % 4.74 C
1098 23-04-2013 00:00:00 12.48924 C 62.8681 % 5.62 C
1099 24-04-2013 00:00:00 14.60278 C 69.3472 % 9.06 C
1100 25-04-2013 00:00:00 17.28958 C 64.4965 % 10.54 C
Sensor: Nr:Datum:Temp:Feuchte:Taupunkt:
Aussen-T/F 1101 26-04-2013 00:00:00 12.59896 C 84.6528 % 10.09 C
1102 27-04-2013 00:00:00 6.70972 C 88.6111 % 4.97 C
1103 28-04-2013 00:00:00 7.57118 C 83.3438 % 4.93 C
1104 29-04-2013 00:00:00 11.20139 C 67.0556 % 5.32 C
1105 30-04-2013 00:00:00 9.40104 C 78.5139 % 5.86 C
1106 01-05-2013 00:00:00 12.25 C 80.0972 % 8.92 C
1107 02-05-2013 00:00:00 15.26458 C 71.7535 % 10.2 C
1108 03-05-2013 00:00:00 14.28056 C 76.8472 % 10.28 C
1109 04-05-2013 00:00:00 15.30521 C 68.4132 % 9.53 C
1110 05-05-2013 00:00:00 14.71458 C 67.0556 % 8.67 C
1111 06-05-2013 00:00:00 15.4691 C 70.1458 % 10.06 C
1112 07-05-2013 00:00:00 14.47708 C 86.2465 % 12.21 C
1113 08-05-2013 00:00:00 15.69062 C 80.7188 % 12.39 C
1114 09-05-2013 00:00:00 16.1566 C 79.2674 % 12.57 C
1115 10-05-2013 00:00:00 13.28785 C 70.3924 % 8.02 C
1116 11-05-2013 00:00:00 12.72431 C 79.9549 % 9.36 C
1117 12-05-2013 00:00:00 9.44583 C 87.2049 % 7.43 C
1118 13-05-2013 00:00:00 11.19688 C 87.3056 % 9.17 C
1119 14-05-2013 00:00:00 12.63125 C 81.3576 % 9.53 C
1120 15-05-2013 00:00:00 13.05694 C 84.4688 % 10.5 C
1121 16-05-2013 00:00:00 13.25521 C 93.0174 % 12.15 C
1122 17-05-2013 00:00:00 10.33125 C 94.0278 % 9.41 C
1123 18-05-2013 00:00:00 13.12118 C 83.2813 % 10.35 C
1124 19-05-2013 00:00:00 13.29792 C 84.1910 % 10.69 C
1125 20-05-2013 00:00:00 10.92014 C 91.6771 % 9.62 C
Sensor: Nr:Datum:Temp:Feuchte:Taupunkt:
Aussen-T/F 1126 21-05-2013 00:00:00 12.35104 C 85.9826 % 10.08 C
1127 22-05-2013 00:00:00 9.34444 C 87.3438 % 7.35 C
1128 23-05-2013 00:00:00 7.90764 C 85.7535 % 5.67 C
1129 24-05-2013 00:00:00 7.60521 C 78.8576 % 4.18 C
1130 25-05-2013 00:00:00 8.39687 C 79.6493 % 5.09 C
1131 26-05-2013 00:00:00 8.03611 C 93.6493 % 7.08 C
1132 27-05-2013 00:00:00 12.39201 C 76.8368 % 8.45 C
1133 28-05-2013 00:00:00 13.87465 C 75.0903 % 9.54 C
1134 29-05-2013 00:00:00 10.21285 C 92.6875 % 9.08 C
1135 30-05-2013 00:00:00 11.70208 C 80.4896 % 8.46 C
1136 31-05-2013 00:00:00 13.19792 C 90.3090 % 11.65 C
1137 01-06-2013 00:00:00 12.09549 C 87.9410 % 10.16 C
1138 02-06-2013 00:00:00 13.08125 C 66.3472 % 6.96 C
1139 03-06-2013 00:00:00 12.7375 C 64.3750 % 6.19 C
1140 04-06-2013 00:00:00 13.85833 C 72.3507 % 8.97 C
1141 05-06-2013 00:00:00 16.28889 C 78.3125 % 12.51 C
1142 06-06-2013 00:00:00 18.00868 C 68.3264 % 12.09 C
1143 07-06-2013 00:00:00 18.14826 C 71.4236 % 12.9 C
1144 08-06-2013 00:00:00 18.53125 C 79.0556 % 14.83 C
1145 09-06-2013 00:00:00 15.18819 C 89.5868 % 13.49 C
1146 10-06-2013 00:00:00 12.77396 C 94.5868 % 11.93 C
1147 11-06-2013 00:00:00 15.40451 C 84.7708 % 12.86 C
1148 12-06-2013 00:00:00 17.48576 C 83.4236 % 14.65 C
1149 13-06-2013 00:00:00 18.45313 C 85.0625 % 15.9 C
1150 14-06-2013 00:00:00 14.47917 C 78.2500 % 10.74 C
Sensor: Nr:Datum:Temp:Feuchte:Taupunkt:
Aussen-T/F 1151 15-06-2013 00:00:00 15.22674 C 77.9653 % 11.41 C
1152 16-06-2013 00:00:00 16.60104 C 70.9306 % 11.31 C
1153 17-06-2013 00:00:00 20.99236 C 73.9583 % 16.17 C
1154 18-06-2013 00:00:00 23.88576 C 78.5104 % 19.92 C
1155 19-06-2013 00:00:00 24.9691 C 80.3924 % 21.36 C
1156 20-06-2013 00:00:00 21.63299 C 83.6493 % 18.74 C
1157 21-06-2013 00:00:00 17.72778 C 79.6563 % 14.17 C
1158 22-06-2013 00:00:00 18.08576 C 74.9688 % 13.58 C
1159 23-06-2013 00:00:00 16.03403 C 77.5938 % 12.12 C
1160 24-06-2013 00:00:00 14.4184 C 80.7326 % 11.15 C
1161 25-06-2013 00:00:00 13.24861 C 81.2049 % 10.1 C
1162 26-06-2013 00:00:00 12.21597 C 78.8819 % 8.66 C
1163 27-06-2013 00:00:00 12.77257 C 85.6111 % 10.42 C
1164 28-06-2013 00:00:00 12.51979 C 89.5764 % 10.85 C
1165 29-06-2013 00:00:00 15.31319 C 83.5000 % 12.54 C
1166 30-06-2013 00:00:00 14.36458 C 77.9931 % 10.58 C
1167 01-07-2013 00:00:00 18.46319 C 74.8715 % 13.93 C
1168 02-07-2013 00:00:00 18.88542 C 76.4132 % 14.65 C
1169 03-07-2013 00:00:00 17.18993 C 93.0868 % 16.06 C
1170 04-07-2013 00:00:00 18.03542 C 87.4410 % 15.92 C
1171 05-07-2013 00:00:00 19.17361 C 80.8785 % 15.81 C
1172 06-07-2013 00:00:00 19.30833 C 81.3438 % 16.03 C
1173 07-07-2013 00:00:00 20.55243 C 74.5069 % 15.86 C
1174 08-07-2013 00:00:00 20.53924 C 71.9444 % 15.31 C
1175 09-07-2013 00:00:00 20.80694 C 73.6597 % 15.93 C
Sensor: Nr:Datum:Temp:Feuchte:Taupunkt:
Aussen-T/F 1176 10-07-2013 00:00:00 20.12292 C 72.3368 % 14.99 C
1177 11-07-2013 00:00:00 17.10417 C 69.4097 % 11.47 C
1178 12-07-2013 00:00:00 16.90868 C 73.6806 % 12.18 C
1179 13-07-2013 00:00:00 17.26424 C 74.3160 % 12.66 C
1180 14-07-2013 00:00:00 18.30139 C 74.2847 % 13.65 C
1181 15-07-2013 00:00:00 18.85486 C 75.3333 % 14.4 C
1182 16-07-2013 00:00:00 20.18438 C 72.0590 % 14.99 C
1183 17-07-2013 00:00:00 20.29896 C 74.5729 % 15.63 C
1184 18-07-2013 00:00:00 21.84757 C 69.7014 % 16.06 C
1185 19-07-2013 00:00:00 22.12674 C 67.1042 % 15.74 C
1186 20-07-2013 00:00:00 21.31076 C 69.5417 % 15.52 C
1187 21-07-2013 00:00:00 22.30521 C 69.0000 % 16.34 C
1188 22-07-2013 00:00:00 22.41562 C 70.3958 % 16.76 C
1189 23-07-2013 00:00:00 21.37396 C 86.5069 % 19.03 C
1190 24-07-2013 00:00:00 21.35972 C 80.1076 % 17.79 C
1191 25-07-2013 00:00:00 20.88542 C 86.3472 % 18.52 C
1192 26-07-2013 00:00:00 21.25729 C 95.1007 % 20.44 C
1193 27-07-2013 00:00:00 23.54236 C 84.8646 % 20.85 C
1194 28-07-2013 00:00:00 21.69965 C 82.3889 % 18.57 C
1195 29-07-2013 00:00:00 19.41007 C 88.3993 % 17.44 C
1196 30-07-2013 00:00:00 18.99028 C 79.0139 % 15.27 C
1197 31-07-2013 00:00:00 20.83715 C 75.4653 % 16.34 C
1198 01-08-2013 00:00:00 21.89653 C 75.0764 % 17.28 C
1199 02-08-2013 00:00:00 23.37049 C 72.4132 % 18.13 C
1200 03-08-2013 00:00:00 21.1934 C 85.6146 % 18.69 C
Sensor: Nr:Datum:Temp:Feuchte:Taupunkt:
Aussen-T/F 1201 04-08-2013 00:00:00 19.79549 C 78.0382 % 15.86 C
1202 05-08-2013 00:00:00 20.42639 C 78.9618 % 16.65 C
1203 06-08-2013 00:00:00 19.98646 C 87.9132 % 17.92 C
1204 07-08-2013 00:00:00 18.91562 C 91.5833 % 17.51 C
1205 08-08-2013 00:00:00 16.92118 C 86.3229 % 14.62 C
1206 09-08-2013 00:00:00 16.41597 C 86.1181 % 14.09 C
1207 10-08-2013 00:00:00 18.10764 C 74.2986 % 13.46 C
1208 11-08-2013 00:00:00 16.80278 C 69.1771 % 11.13 C
1209 12-08-2013 00:00:00 15.88229 C 83.6007 % 13.11 C
1210 13-08-2013 00:00:00 15.61319 C 81.7326 % 12.5 C
1211 14-08-2013 00:00:00 14.4559 C 81.5660 % 11.34 C
1212 15-08-2013 00:00:00 16.30035 C 77.9028 % 12.44 C
1213 16-08-2013 00:00:00 17.96319 C 75.3750 % 13.55 C
1214 17-08-2013 00:00:00 20.47965 C 70.5158 % 14.94 C
1215 18-08-2013 00:00:00 19.29614 C 82.4596 % 16.23 C
1216 19-08-2013 00:00:00 17.75764 C 80.2465 % 14.31 C
1217 20-08-2013 00:00:00 14.96458 C 79.6111 % 11.47 C
1218 21-08-2013 00:00:00 15.16285 C 81.7743 % 12.07 C
1219 22-08-2013 00:00:00 16.33576 C 83.6111 % 13.56 C
1220 23-08-2013 00:00:00 18.61667 C 76.7708 % 14.46 C
1221 24-08-2013 00:00:00 16.10208 C 89.7396 % 14.42 C
1222 25-08-2013 00:00:00 16.06806 C 95.2708 % 15.31 C
1223 26-08-2013 00:00:00 15.16806 C 96.5451 % 14.62 C
1224 27-08-2013 00:00:00 15.88472 C 89.9792 % 14.24 C
1225 28-08-2013 00:00:00 15.65312 C 87.5035 % 13.59 C
Sensor: Nr:Datum:Temp:Feuchte:Taupunkt:
Aussen-T/F 1226 29-08-2013 00:00:00 14.74062 C 90.2153 % 13.15 C
1227 30-08-2013 00:00:00 15.73924 C 87.8472 % 13.73 C
1228 31-08-2013 00:00:00 16.33229 C 86.2986 % 14.04 C
1229 01-09-2013 00:00:00 14.50938 C 73.5035 % 9.83 C
1230 02-09-2013 00:00:00 17.48924 C 69.9375 % 11.95 C
1231 03-09-2013 00:00:00 18.08299 C 80.6319 % 14.7 C
1232 04-09-2013 00:00:00 17.74583 C 85.1701 % 15.22 C
1233 05-09-2013 00:00:00 18.47349 C 84.5181 % 15.82 C
1234 06-09-2013 00:00:00 22.68615 C 74.2769 % 17.87 C
1235 07-09-2013 00:00:00 18.36354 C 91.5208 % 16.96 C
1236 08-09-2013 00:00:00 14.78542 C 93.9097 % 13.81 C
1237 09-09-2013 00:00:00 14.16944 C 86.9965 % 12.04 C
1238 10-09-2013 00:00:00 13.35073 C 82.4891 % 10.43 C
1239 11-09-2013 00:00:00 13.00912 C 87.8066 % 11.04 C
1240 12-09-2013 00:00:00 13.53472 C 92.7535 % 12.39 C
1241 13-09-2013 00:00:00 14.67363 C 88.3553 % 12.77 C
1242 14-09-2013 00:00:00 15.8191 C 93.1007 % 14.71 C
1243 15-09-2013 00:00:00 14.41667 C 87.2500 % 12.33 C
1244 16-09-2013 00:00:00 13.23333 C 81.3229 % 10.11 C
1245 17-09-2013 00:00:00 10.58958 C 82.5833 % 7.75 C
1246 18-09-2013 00:00:00 12.57951 C 92.8750 % 11.46 C
1247 19-09-2013 00:00:00 11.89444 C 86.6076 % 9.73 C
1248 20-09-2013 00:00:00 13.91806 C 85.7778 % 11.58 C
1249 21-09-2013 00:00:00 12.20868 C 91.0000 % 10.78 C
1250 22-09-2013 00:00:00 13.3788 C 90.7668 % 11.9 C
Sensor: Nr:Datum:Temp:Feuchte:Taupunkt:
Aussen-T/F 1251 23-09-2013 00:00:00 15.46493 C 89.1076 % 13.68 C
1252 24-09-2013 00:00:00 12.34792 C 94.6979 % 11.52 C
1253 25-09-2013 00:00:00 14.08646 C 94.5347 % 13.22 C
1254 26-09-2013 00:00:00 14.58924 C 91.1389 % 13.16 C
1255 27-09-2013 00:00:00 11.25312 C 89.0660 % 9.52 C
1256 28-09-2013 00:00:00 10.575 C 88.4286 % 8.74 C
1257 29-09-2013 00:00:00 11.89028 C 85.1667 % 9.48 C
1258 30-09-2013 00:00:00 9.80833 C 87.1910 % 7.78 C
1259 01-10-2013 00:00:00 11.38264 C 80.5903 % 8.17 C
1260 02-10-2013 00:00:00 9.01493 C 82.1111 % 6.13 C
1261 03-10-2013 00:00:00 8.84479 C 80.9549 % 5.76 C
1262 04-10-2013 00:00:00 11.33993 C 91.6215 % 10.03 C
1263 05-10-2013 00:00:00 12.69583 C 97.5486 % 12.32 C
1264 06-10-2013 00:00:00 13.60313 C 92.6910 % 12.44 C
1265 07-10-2013 00:00:00 13.21667 C 94.6806 % 12.38 C
1266 08-10-2013 00:00:00 13.44791 C 95.3505 % 12.72 C
1267 09-10-2013 00:00:00 13.86667 C 91.5938 % 12.52 C
1268 10-10-2013 00:00:00 8.4625 C 94.6285 % 7.65 C
1269 11-10-2013 00:00:00 6.86042 C 97.1285 % 6.44 C
1270 12-10-2013 00:00:00 6.31215 C 95.1910 % 5.6 C
1271 13-10-2013 00:00:00 7.69167 C 90.0208 % 6.16 C
1272 14-10-2013 00:00:00 9.89091 C 92.2182 % 8.69 C
1273 15-10-2013 00:00:00 10.43275 C 94.2113 % 9.54 C
1274 16-10-2013 00:00:00 10.04523 C 95.8799 % 9.42 C
1275 17-10-2013 00:00:00 12.70972 C 88.6771 % 10.89 C
Sensor: Nr:Datum:Temp:Feuchte:Taupunkt:
Aussen-T/F 1276 18-10-2013 00:00:00 11.80868 C 95.7083 % 11.15 C
1277 19-10-2013 00:00:00 11.72702 C 95.4877 % 11.03 C
1278 20-10-2013 00:00:00 15.28507 C 93.8021 % 14.29 C
1279 21-10-2013 00:00:00 15.075 C 89.9861 % 13.45 C
1280 22-10-2013 00:00:00 15.7614 C 91.7404 % 14.42 C
1281 23-10-2013 00:00:00 15.81476 C 92.6790 % 14.63 C
1282 24-10-2013 00:00:00 13.67431 C 95.5069 % 12.97 C
1283 25-10-2013 00:00:00 13.01701 C 96.8958 % 12.54 C
1284 26-10-2013 00:00:00 16.41144 C 95.1808 % 15.64 C
1285 27-10-2013 00:00:00 14.94896 C 83.9028 % 12.25 C
1286 28-10-2013 00:00:00 15.40962 C 78.1385 % 11.62 C
1287 29-10-2013 00:00:00 11.12569 C 77.4901 % 7.34 C
1288 30-10-2013 00:00:00 7.81825 C 86.6702 % 5.74 C
1289 31-10-2013 00:00:00 5.27708 C 94.3854 % 4.45 C
1290 01-11-2013 00:00:00 9.4316 C 89.5208 % 7.8 C
1291 02-11-2013 00:00:00 12.79889 C 90.4354 % 11.27 C
1292 03-11-2013 00:00:00 9.93611 C 83.6701 % 7.31 C
1293 04-11-2013 00:00:00 9.80526 C 87.0912 % 7.76 C
1294 05-11-2013 00:00:00 6.72153 C 87.5556 % 4.81 C
1295 06-11-2013 00:00:00 10.70215 C 88.7348 % 8.92 C
1296 07-11-2013 00:00:00 15.04132 C 84.5243 % 12.46 C
1297 08-11-2013 00:00:00 11.92093 C 93.0372 % 10.83 C
1298 09-11-2013 00:00:00 9.48785 C 80.9931 % 6.39 C
1299 10-11-2013 00:00:00 6.68715 C 90.9653 % 5.32 C
1300 11-11-2013 00:00:00 4.00764 C 96.3542 % 3.48 C
Sensor: Nr:Datum:Temp:Feuchte:Taupunkt:
Aussen-T/F 1301 12-11-2013 00:00:00 4.41146 C 93.7951 % 3.5 C
1302 13-11-2013 00:00:00 6.28491 C 93.5579 % 5.32 C
1303 14-11-2013 00:00:00 3.2816 C 95.0833 % 2.57 C
1304 15-11-2013 00:00:00 4.99201 C 90.5035 % 3.57 C
1305 16-11-2013 00:00:00 3.05 C 91.8507 % 1.86 C
1306 17-11-2013 00:00:00 3.2184 C 94.6285 % 2.44 C
1307 18-11-2013 00:00:00 5.38287 C 94.0916 % 4.51 C
1308 19-11-2013 00:00:00 6.22 C 91.5647 % 4.95 C
1309 20-11-2013 00:00:00 3.96643 C 91.7483 % 2.75 C
1310 21-11-2013 00:00:00 4.05603 C 89.4310 % 2.48 C
1311 22-11-2013 00:00:00 4.42 C 86.5545 % 2.38 C
1312 23-11-2013 00:00:00 7.03092 C 87.0000 % 5.02 C
1313 24-11-2013 00:00:00 5.71435 C 88.4739 % 3.96 C
1314 25-11-2013 00:00:00 2.65439 C 93.3216 % 1.69 C
1315 26-11-2013 00:00:00 0.53125 C 94.5590 % -0.24 C
1316 27-11-2013 00:00:00 0.63854 C 92.5035 % -0.43 C
1317 28-11-2013 00:00:00 3.45709 C 94.3022 % 2.63 C
1318 29-11-2013 00:00:00 5.6434 C 91.5833 % 4.38 C
1319 30-11-2013 00:00:00 4.32604 C 93.7951 % 3.42 C
1320 01-12-2013 00:00:00 5.01254 C 94.7178 % 4.24 C
1321 02-12-2013 00:00:00 4.76458 C 93.0486 % 3.74 C
1322 03-12-2013 00:00:00 -0.45729 C 97.1806 % -0.85 C
1323 04-12-2013 00:00:00 3.27917 C 91.8924 % 2.09 C
1324 05-12-2013 00:00:00 3.93475 C 87.9291 % 2.12 C
1325 06-12-2013 00:00:00 3.76181 C 74.9583 % -0.26 C
Sensor: Nr:Datum:Temp:Feuchte:Taupunkt:
Aussen-T/F 1326 07-12-2013 00:00:00 4.38715 C 85.8194 % 2.23 C
1327 08-12-2013 00:00:00 6.92188 C 87.3785 % 4.97 C
1328 09-12-2013 00:00:00 6.42222 C 84.1806 % 3.95 C
1329 10-12-2013 00:00:00 3.24896 C 95.9236 % 2.66 C
1330 11-12-2013 00:00:00 3.72465 C 96.5903 % 3.23 C
1331 12-12-2013 00:00:00 4.08993 C 92.2118 % 2.94 C
1332 13-12-2013 00:00:00 2.65694 C 90.5313 % 1.27 C
1333 14-12-2013 00:00:00 3.58986 C 92.6923 % 2.52 C
1334 15-12-2013 00:00:00 4.99688 C 85.9340 % 2.84 C
1335 16-12-2013 00:00:00 1.49676 C 94.6511 % 0.73 C
1336 17-12-2013 00:00:00 1.25451 C 95.3924 % 0.6 C
1337 18-12-2013 00:00:00 4.19965 C 94.2153 % 3.35 C
1338 19-12-2013 00:00:00 8.13715 C 88.2813 % 6.32 C
1339 20-12-2013 00:00:00 4.38403 C 92.2708 % 3.24 C
1340 21-12-2013 00:00:00 4.81354 C 81.8229 % 1.98 C
1341 22-12-2013 00:00:00 8.81493 C 82.7222 % 6.04 C
1342 23-12-2013 00:00:00 8.42341 C 85.6230 % 6.16 C
1343 24-12-2013 00:00:00 11.57579 C 73.6140 % 7.03 C
1344 25-12-2013 00:00:00 8.41944 C 92.4444 % 7.27 C
1345 26-12-2013 00:00:00 6.06579 C 94.8195 % 5.3 C
1346 27-12-2013 00:00:00 6.6549 C 85.1608 % 4.34 C
1347 28-12-2013 00:00:00 9.14444 C 90.1181 % 7.61 C
1348 29-12-2013 00:00:00 4.76463 C 93.9695 % 3.88 C
1349 30-12-2013 00:00:00 4.17107 C 89.7934 % 2.65 C
1350 31-12-2013 00:00:00 2.91045 C 89.5522 % 1.37 C
Sensor: Nr:Datum:Temp:Feuchte:Taupunkt:
Aussen-T/F 1351 01-01-2014 00:00:00 6.46912 C 86.4737 % 4.38 C
1352 02-01-2014 00:00:00 8.31947 C 88.5649 % 6.54 C
1353 03-01-2014 00:00:00 8.74861 C 86.5347 % 6.63 C
1354 04-01-2014 00:00:00 7.47049 C 88.5833 % 5.71 C
1355 05-01-2014 00:00:00 6.13111 C 91.4622 % 4.85 C
1356 06-01-2014 00:00:00 8.33819 C 89.1736 % 6.66 C
1357 07-01-2014 00:00:00 10.72882 C 85.7708 % 8.45 C
1358 08-01-2014 00:00:00 10.3965 C 86.9027 % 8.31 C
1359 09-01-2014 00:00:00 9.27876 C 85.9961 % 7.06 C
1360 10-01-2014 00:00:00 5.59896 C 86.9757 % 3.61 C
1361 11-01-2014 00:00:00 3.80382 C 93.2049 % 2.81 C
1362 12-01-2014 00:00:00 0.34545 C 97.0618 % -0.06 C
1363 13-01-2014 00:00:00 3.73194 C 95.9965 % 3.15 C
1364 14-01-2014 00:00:00 5.06036 C 94.4536 % 4.25 C
1365 15-01-2014 00:00:00 4.1934 C 91.9444 % 3 C
1366 16-01-2014 00:00:00 6.5375 C 93.3160 % 5.54 C
1367 17-01-2014 00:00:00 6.75 C 92.8021 % 5.67 C
1368 18-01-2014 00:00:00 4.5321 C 90.4686 % 3.11 C
1369 19-01-2014 00:00:00 4.621 C 92.0569 % 3.44 C
1370 20-01-2014 00:00:00 4.32836 C 94.6567 % 3.55 C
1371 21-01-2014 00:00:00 3.49792 C 93.6632 % 2.58 C
1372 22-01-2014 00:00:00 3.18571 C 95.3022 % 2.51 C
1373 23-01-2014 00:00:00 3.72927 C 92.3049 % 2.6 C
1374 24-01-2014 00:00:00 3.90268 C 93.5670 % 2.96 C
1375 25-01-2014 00:00:00 2.8165 C 94.8000 % 2.07 C
Sensor: Nr:Datum:Temp:Feuchte:Taupunkt:
Aussen-T/F 1376 26-01-2014 00:00:00 5.11851 C 83.3630 % 2.54 C
1377 27-01-2014 00:00:00 4.4199 C 87.2094 % 2.48 C
1378 28-01-2014 00:00:00 2.36869 C 88.8889 % 0.73 C
1379 29-01-2014 00:00:00 1.54036 C 85.8253 % -0.57 C
1380 30-01-2014 00:00:00 1.98611 C 84.2049 % -0.39 C
1381 31-01-2014 00:00:00 1.03819 C 91.0799 % -0.25 C
1382 01-02-2014 00:00:00 4.63819 C 89.8646 % 3.12 C
1383 02-02-2014 00:00:00 4.14306 C 90.0729 % 2.66 C
1384 03-02-2014 00:00:00 1.00938 C 95.5486 % 0.38 C
1385 04-02-2014 00:00:00 4.28785 C 89.7083 % 2.75 C
1386 05-02-2014 00:00:00 4.74236 C 89.7049 % 3.2 C
1387 06-02-2014 00:00:00 8.42431 C 76.6181 % 4.56 C
1388 07-02-2014 00:00:00 8.79132 C 78.4410 % 5.25 C
1389 08-02-2014 00:00:00 6.5309 C 83.7222 % 3.98 C
1390 09-02-2014 00:00:00 5.34375 C 80.9306 % 2.34 C
1391 10-02-2014 00:00:00 3.38819 C 87.2500 % 1.48 C
1392 11-02-2014 00:00:00 5.41354 C 82.3819 % 2.66 C
1393 12-02-2014 00:00:00 5.44028 C 81.1319 % 2.47 C
1394 13-02-2014 00:00:00 5.71771 C 88.4479 % 3.96 C
1395 14-02-2014 00:00:00 5.64722 C 85.6979 % 3.44 C
1396 15-02-2014 00:00:00 9.70669 C 79.3415 % 6.31 C
1397 16-02-2014 00:00:00 7.36493 C 80.5694 % 4.25 C
1398 17-02-2014 00:00:00 3.59861 C 91.7118 % 2.38 C
1399 18-02-2014 00:00:00 3.38715 C 94.0590 % 2.52 C
1400 19-02-2014 00:00:00 7.825 C 84.9722 % 5.46 C
Sensor: Nr:Datum:Temp:Feuchte:Taupunkt:
Aussen-T/F 1401 20-02-2014 00:00:00 8.68958 C 82.6215 % 5.9 C
1402 21-02-2014 00:00:00 7.64062 C 84.5451 % 5.21 C
1403 22-02-2014 00:00:00 4.99861 C 87.1563 % 3.05 C
1404 23-02-2014 00:00:00 5.94204 C 83.6694 % 3.39 C
1405 24-02-2014 00:00:00 5.86389 C 80.9444 % 2.85 C
1406 25-02-2014 00:00:00 6.68681 C 82.1910 % 3.87 C
1407 26-02-2014 00:00:00 8.58182 C 81.5382 % 5.61 C
1408 27-02-2014 00:00:00 5.86275 C 84.1961 % 3.41 C
1409 28-02-2014 00:00:00 6.2146 C 87.8248 % 4.35 C
1410 01-03-2014 00:00:00 5.44375 C 88.4410 % 3.69 C
1411 02-03-2014 00:00:00 3.55069 C 87.5208 % 1.68 C
1412 03-03-2014 00:00:00 5.27743 C 86.6458 % 3.24 C
1413 04-03-2014 00:00:00 4.21701 C 86.7118 % 2.2 C
1414 05-03-2014 00:00:00 4.68235 C 86.5059 % 2.63 C
1415 06-03-2014 00:00:00 3.87951 C 89.4306 % 2.3 C
1416 07-03-2014 00:00:00 6.23037 C 80.7383 % 3.17 C
1417 08-03-2014 00:00:00 7.3847 C 80.0427 % 4.18 C
1418 09-03-2014 00:00:00 7.27263 C 76.4772 % 3.42 C
1419 10-03-2014 00:00:00 7.44444 C 75.5035 % 3.41 C
1420 11-03-2014 00:00:00 8.4184 C 78.6424 % 4.93 C
1421 12-03-2014 00:00:00 9.07812 C 74.1354 % 4.72 C
1422 13-03-2014 00:00:00 8.16007 C 73.3681 % 3.69 C
1423 14-03-2014 00:00:00 7.91944 C 76.8993 % 4.12 C
1424 15-03-2014 00:00:00 8.97326 C 77.3021 % 5.22 C
1425 16-03-2014 00:00:00 11.50486 C 77.2500 % 7.67 C
Sensor: Nr:Datum:Temp:Feuchte:Taupunkt:
Aussen-T/F 1426 17-03-2014 00:00:00 10.27882 C 81.5486 % 7.27 C
1427 18-03-2014 00:00:00 9.4066 C 83.2882 % 6.72 C
1428 19-03-2014 00:00:00 12.2875 C 70.5521 % 7.1 C
1429 20-03-2014 00:00:00 12.49333 C 67.2772 % 6.6 C
1430 21-03-2014 00:00:00 13.1375 C 66.5069 % 7.05 C
1431 22-03-2014 00:00:00 8.65208 C 83.0799 % 5.95 C
1432 23-03-2014 00:00:00 6.03507 C 81.4861 % 3.11 C
1433 24-03-2014 00:00:00 5.42632 C 80.7404 % 2.39 C
1434 25-03-2014 00:00:00 4.1625 C 82.4271 % 1.44 C
1435 26-03-2014 00:00:00 4.56076 C 78.8125 % 1.21 C
1436 27-03-2014 00:00:00 8.14604 C 73.6475 % 3.73 C
1437 28-03-2014 00:00:00 10.60972 C 66.4167 % 4.62 C
1438 29-03-2014 00:00:00 10.34963 C 70.5809 % 5.24 C
1439 30-03-2014 00:00:00 9.15619 C 76.1429 % 5.18 C
1440 31-03-2014 00:00:00 12.96562 C 65.8924 % 6.75 C
1441 01-04-2014 00:00:00 13.77519 C 67.7366 % 7.92 C
1442 02-04-2014 00:00:00 13.90458 C 68.9754 % 8.31 C
1443 03-04-2014 00:00:00 12.54324 C 77.5811 % 8.74 C
1444 04-04-2014 00:00:00 14.95971 C 74.9173 % 10.55 C
1445 05-04-2014 00:00:00 13.00531 C 86.2612 % 10.77 C
1446 06-04-2014 00:00:00 11.67782 C 83.0879 % 8.91 C
1447 07-04-2014 00:00:00 15.95041 C 75.4713 % 11.62 C
1448 08-04-2014 00:00:00 12.18521 C 67.1585 % 6.28 C
1449 09-04-2014 00:00:00 9.27426 C 75.9154 % 5.25 C
1450 10-04-2014 00:00:00 10.31543 C 77.0864 % 6.48 C
Sensor: Nr:Datum:Temp:Feuchte:Taupunkt:
Aussen-T/F 1451 11-04-2014 00:00:00 14.56849 C 72.5000 % 9.69 C
1452 12-04-2014 00:00:00 12.65368 C 70.8982 % 7.52 C
1453 13-04-2014 00:00:00 11.60669 C 71.0599 % 6.55 C
1454 14-04-2014 00:00:00 9.7593 C 71.2491 % 4.81 C
1455 15-04-2014 00:00:00 7.10171 C 73.7991 % 2.75 C
1456 16-04-2014 00:00:00 12.97192 C 49.4521 % 2.65 C
1457 17-04-2014 00:00:00 9.85313 C 63.3021 % 3.22 C
1458 18-04-2014 00:00:00 10.72049 C 64.8750 % 4.39 C
1459 19-04-2014 00:00:00 10.82049 C 71.8993 % 5.96 C
1460 20-04-2014 00:00:00 14.91825 C 70.5509 % 9.62 C
1461 21-04-2014 00:00:00 12.49479 C 77.9896 % 8.77 C
1462 22-04-2014 00:00:00 12.82847 C 85.6076 % 10.48 C
1463 23-04-2014 00:00:00 13.43958 C 81.1771 % 10.28 C
1464 24-04-2014 00:00:00 15.42535 C 79.0035 % 11.8 C
1465 25-04-2014 00:00:00 16.71562 C 74.1319 % 12.09 C
1466 26-04-2014 00:00:00 15.2 C 74.7604 % 10.75 C
1467 27-04-2014 00:00:00 13.07674 C 81.7986 % 10.04 C
1468 28-04-2014 00:00:00 12.80243 C 79.8715 % 9.42 C
1469 29-04-2014 00:00:00 13.43403 C 90.3056 % 11.88 C
1470 30-04-2014 00:00:00 14.53507 C 84.7500 % 12 C
1471 01-05-2014 00:00:00 14.73611 C 81.3611 % 11.58 C
1472 02-05-2014 00:00:00 11.71319 C 86.6736 % 9.57 C
1473 03-05-2014 00:00:00 10.92708 C 61.0069 % 3.71 C
1474 04-05-2014 00:00:00 9.61042 C 68.0590 % 4.02 C
1475 05-05-2014 00:00:00 12.60069 C 67.5521 % 6.76 C
Sensor: Nr:Datum:Temp:Feuchte:Taupunkt:
Aussen-T/F 1476 06-05-2014 00:00:00 13.72083 C 74.2778 % 9.23 C
1477 07-05-2014 00:00:00 13.05764 C 84.9931 % 10.6 C
1478 08-05-2014 00:00:00 12.32847 C 84.6146 % 9.81 C
1479 09-05-2014 00:00:00 15.33403 C 71.0833 % 10.13 C
1480 10-05-2014 00:00:00 12.40903 C 81.6528 % 9.36 C
1481 11-05-2014 00:00:00 11.45764 C 80.1667 % 8.16 C
1482 12-05-2014 00:00:00 11.1941 C 74.9167 % 6.92 C
1483 13-05-2014 00:00:00 10.30729 C 85.3368 % 7.96 C
1484 14-05-2014 00:00:00 10.63542 C 76.9514 % 6.77 C
1485 15-05-2014 00:00:00 10.00382 C 80.4757 % 6.8 C
1486 16-05-2014 00:00:00 13.25347 C 73.1250 % 8.55 C
1487 17-05-2014 00:00:00 14.22292 C 71.7500 % 9.2 C
1488 18-05-2014 00:00:00 15.4809 C 74.3021 % 10.93 C
1489 19-05-2014 00:00:00 17.57188 C 70.6944 % 12.19 C
1490 20-05-2014 00:00:00 19.46562 C 67.3681 % 13.26 C
1491 21-05-2014 00:00:00 20.29792 C 68.1181 % 14.23 C
1492 22-05-2014 00:00:00 20.21806 C 65.7465 % 13.61 C
1493 23-05-2014 00:00:00 15.52639 C 89.6667 % 13.84 C
1494 24-05-2014 00:00:00 14.72993 C 81.1514 % 11.53 C
1495 25-05-2014 00:00:00 15.25071 C 74.9149 % 10.83 C
1496 26-05-2014 00:00:00 16.8625 C 80.3056 % 13.45 C
1497 27-05-2014 00:00:00 15.19431 C 94.7346 % 14.36 C
1498 28-05-2014 00:00:00 14.58118 C 88.4000 % 12.69 C
1499 29-05-2014 00:00:00 13.44653 C 87.1042 % 11.35 C
1500 30-05-2014 00:00:00 13.2316 C 70.4167 % 7.97 C
Sensor: Nr:Datum:Temp:Feuchte:Taupunkt:
Aussen-T/F 1501 31-05-2014 00:00:00 13.40382 C 74.2639 % 8.92 C
1502 01-06-2014 00:00:00 15.49273 C 69.6545 % 9.98 C
1503 02-06-2014 00:00:00 15.88943 C 67.9715 % 9.99 C
1504 03-06-2014 00:00:00 15.78662 C 74.8627 % 11.34 C
1505 04-06-2014 00:00:00 14.95388 C 86.4155 % 12.71 C
1506 05-06-2014 00:00:00 14.55765 C 67.7687 % 8.68 C
1507 06-06-2014 00:00:00 17.20312 C 67.7778 % 11.2 C
1508 07-06-2014 00:00:00 20.77257 C 72.3750 % 15.62 C
1509 08-06-2014 00:00:00 24.09514 C 70.7431 % 18.45 C
1510 09-06-2014 00:00:00 25.74583 C 69.9583 % 19.85 C
1511 10-06-2014 00:00:00 23.66632 C 70.6389 % 18.01 C
1512 11-06-2014 00:00:00 20.10803 C 81.3175 % 16.81 C
1513 12-06-2014 00:00:00 19.97431 C 66.4583 % 13.54 C
1514 13-06-2014 00:00:00 18.37014 C 68.1597 % 12.4 C
1515 14-06-2014 00:00:00 17.27465 C 65.5104 % 10.76 C
1516 15-06-2014 00:00:00 16.86944 C 67.1875 % 10.75 C
1517 16-06-2014 00:00:00 15.61944 C 74.7396 % 11.15 C
1518 17-06-2014 00:00:00 17.41354 C 66.8819 % 11.2 C
1519 18-06-2014 00:00:00 17.76319 C 71.4931 % 12.54 C
1520 19-06-2014 00:00:00 15.70791 C 75.5252 % 11.4 C
1521 20-06-2014 00:00:00 15.64143 C 71.1667 % 10.44 C
1522 21-06-2014 00:00:00 16.62118 C 65.5903 % 10.15 C
1523 22-06-2014 00:00:00 16.62782 C 66.3415 % 10.33 C
1524 23-06-2014 00:00:00 17.14792 C 65.1910 % 10.56 C
1525 24-06-2014 00:00:00 16.64978 C 71.6277 % 11.5 C
Sensor: Nr:Datum:Temp:Feuchte:Taupunkt:
Aussen-T/F 1526 25-06-2014 00:00:00 17.29096 C 56.5426 % 8.58 C
1527 26-06-2014 00:00:00 16.18958 C 64.0764 % 9.4 C
1528 27-06-2014 00:00:00 17.54167 C 67.2604 % 11.41 C
1529 28-06-2014 00:00:00 16.28043 C 87.3950 % 14.18 C
1530 29-06-2014 00:00:00 14.67192 C 93.3251 % 13.61 C
1531 30-06-2014 00:00:00 16.05247 C 75.2167 % 11.67 C
1532 01-07-2014 00:00:00 15.65035 C 70.2917 % 10.26 C
1533 02-07-2014 00:00:00 16.86146 C 65.5313 % 10.37 C
1534 03-07-2014 00:00:00 19.78889 C 59.6493 % 11.72 C
1535 04-07-2014 00:00:00 20.36076 C 67.5382 % 14.16 C
1536 05-07-2014 00:00:00 20.4 C 77.3439 % 16.3 C
1537 06-07-2014 00:00:00 23.48509 C 69.7818 % 17.65 C
1538 07-07-2014 00:00:00 19.86367 C 64.8202 % 13.05 C
1539 08-07-2014 00:00:00 15.57633 C 89.8898 % 13.92 C
1540 09-07-2014 00:00:00 12.97083 C 95.1667 % 12.22 C
1541 10-07-2014 00:00:00 17.68292 C 90.2000 % 16.06 C
1542 11-07-2014 00:00:00 18.42369 C 88.6466 % 16.51 C
1543 12-07-2014 00:00:00 18.68363 C 88.1018 % 16.67 C
1544 13-07-2014 00:00:00 19.06941 C 85.5922 % 16.6 C
1545 14-07-2014 00:00:00 19.60206 C 79.5021 % 15.96 C
1546 15-07-2014 00:00:00 21.3216 C 70.6901 % 15.78 C
1547 16-07-2014 00:00:00 21.88732 C 74.8829 % 17.23 C
1548 17-07-2014 00:00:00 23.77903 C 70.2742 % 18.04 C
1549 18-07-2014 00:00:00 24.87935 C 65.5097 % 17.97 C
1550 19-07-2014 00:00:00 27.76989 C 58.4086 % 18.86 C
Sensor: Nr:Datum:Temp:Feuchte:Taupunkt:
Aussen-T/F 1551 20-07-2014 00:00:00 22.68715 C 80.6840 % 19.19 C
1552 21-07-2014 00:00:00 20.29965 C 91.0660 % 18.79 C
1553 22-07-2014 00:00:00 23.6856 C 82.0494 % 20.44 C
1554 23-07-2014 00:00:00 23.11788 C 73.8869 % 18.2 C
1555 24-07-2014 00:00:00 20.63922 C 73.5020 % 15.74 C
1556 25-07-2014 00:00:00 21.8193 C 72.9825 % 16.76 C
1557 26-07-2014 00:00:00 21.92 C 74.3097 % 17.14 C
1558 27-07-2014 00:00:00 19.66694 C 83.9339 % 16.88 C
1559 28-07-2014 00:00:00 22.3284 C 78.8580 % 18.48 C
1560 29-07-2014 00:00:00 19.88194 C 95.8125 % 19.19 C
1561 30-07-2014 00:00:00 19.93194 C 85.4097 % 17.41 C
1562 31-07-2014 00:00:00 20.20645 C 77.0896 % 16.06 C
1563 01-08-2014 00:00:00 20.08438 C 81.7153 % 16.86 C
1564 02-08-2014 00:00:00 20.10868 C 84.8264 % 17.48 C
1565 03-08-2014 00:00:00 21.3566 C 81.2743 % 18.02 C
1566 04-08-2014 00:00:00 19.00347 C 86.5799 % 16.71 C
1567 05-08-2014 00:00:00 18.77049 C 82.0208 % 15.64 C
1568 06-08-2014 00:00:00 17.59618 C 84.4201 % 14.94 C
1569 07-08-2014 00:00:00 18.9934 C 85.7986 % 16.56 C
1570 08-08-2014 00:00:00 18.87604 C 89.5625 % 17.12 C
1571 09-08-2014 00:00:00 20.16771 C 80.6076 % 16.73 C
1572 10-08-2014 00:00:00 19.0125 C 90.0208 % 17.34 C
1573 11-08-2014 00:00:00 17.0066 C 81.0000 % 13.72 C
1574 12-08-2014 00:00:00 17.62431 C 72.1944 % 12.56 C
1575 13-08-2014 00:00:00 15.97674 C 89.6528 % 14.28 C
Sensor: Nr:Datum:Temp:Feuchte:Taupunkt:
Aussen-T/F 1576 14-08-2014 00:00:00 16.15426 C 84.3298 % 13.51 C
1577 15-08-2014 00:00:00 14.48638 C 92.1720 % 13.23 C
1578 16-08-2014 00:00:00 15.13439 C 89.3930 % 13.4 C
1579 17-08-2014 00:00:00 16.14062 C 77.5243 % 12.21 C
1580 18-08-2014 00:00:00 16.30417 C 74.5313 % 11.77 C
1581 19-08-2014 00:00:00 13.79653 C 83.4410 % 11.04 C
1582 20-08-2014 00:00:00 12.68681 C 83.0799 % 9.89 C
1583 21-08-2014 00:00:00 12.84653 C 82.9965 % 10.03 C
1584 22-08-2014 00:00:00 14.04062 C 78.5000 % 10.36 C
1585 23-08-2014 00:00:00 14.26875 C 83.3194 % 11.48 C
1586 24-08-2014 00:00:00 11.58993 C 93.2465 % 10.54 C
1587 25-08-2014 00:00:00 13.23854 C 93.7743 % 12.26 C
1588 26-08-2014 00:00:00 14.79479 C 96.8681 % 14.3 C
1589 27-08-2014 00:00:00 15.38741 C 91.3237 % 13.98 C
1590 28-08-2014 00:00:00 15.84062 C 93.0556 % 14.72 C
1591 29-08-2014 00:00:00 18.05278 C 88.6979 % 16.16 C
1592 30-08-2014 00:00:00 16.23299 C 90.9965 % 14.76 C
1593 31-08-2014 00:00:00 14.70069 C 92.8125 % 13.55 C
1594 01-09-2014 00:00:00 14.60556 C 91.4896 % 13.24 C
1595 02-09-2014 00:00:00 14.6191 C 90.6771 % 13.11 C
1596 03-09-2014 00:00:00 15.03299 C 89.9549 % 13.4 C
1597 04-09-2014 00:00:00 16.74028 C 89.6910 % 15.04 C
1598 05-09-2014 00:00:00 18.15903 C 91.3819 % 16.73 C
1599 06-09-2014 00:00:00 17.4559 C 92.7604 % 16.27 C
1600 07-09-2014 00:00:00 18.08889 C 88.1264 % 16.09 C
Sensor: Nr:Datum:Temp:Feuchte:Taupunkt:
Aussen-T/F 1601 08-09-2014 00:00:00 17.83403 C 84.0833 % 15.11 C
1602 09-09-2014 00:00:00 15.64965 C 81.4410 % 12.48 C
1603 10-09-2014 00:00:00 14.27882 C 83.4132 % 11.51 C
1604 11-09-2014 00:00:00 14.96111 C 83.0903 % 12.12 C
1605 12-09-2014 00:00:00 14.12153 C 84.7257 % 11.59 C
1606 13-09-2014 00:00:00 16.12118 C 88.7743 % 14.27 C
1607 14-09-2014 00:00:00 16.65196 C 88.0641 % 14.67 C
1608 15-09-2014 00:00:00 16.079 C 91.5516 % 14.7 C
1609 16-09-2014 00:00:00 16.93264 C 90.1458 % 15.31 C
1610 17-09-2014 00:00:00 16.05139 C 92.2118 % 14.79 C
1611 18-09-2014 00:00:00 17.4875 C 95.6215 % 16.78 C
1612 19-09-2014 00:00:00 18.38993 C 95.2708 % 17.62 C
1613 20-09-2014 00:00:00 17.14931 C 96.4583 % 16.58 C
1614 21-09-2014 00:00:00 15.46146 C 95.3090 % 14.71 C
1615 22-09-2014 00:00:00 12.53194 C 86.3194 % 10.31 C
1616 23-09-2014 00:00:00 9.91146 C 90.8993 % 8.5 C
1617 24-09-2014 00:00:00 11.10451 C 89.8056 % 9.5 C
1618 25-09-2014 00:00:00 13.67917 C 85.6806 % 11.33 C
1619 26-09-2014 00:00:00 14.24896 C 88.9653 % 12.46 C
1620 27-09-2014 00:00:00 15.59965 C 91.2743 % 14.18 C
1621 28-09-2014 00:00:00 14.22743 C 95.0660 % 13.45 C
1622 29-09-2014 00:00:00 15.41493 C 94.8472 % 14.59 C
1623 30-09-2014 00:00:00 16.83438 C 93.1875 % 15.73 C
1624 01-10-2014 00:00:00 15.87778 C 94.6389 % 15.02 C
1625 02-10-2014 00:00:00 14.35799 C 95.7326 % 13.69 C
Sensor: Nr:Datum:Temp:Feuchte:Taupunkt:
Aussen-T/F 1626 03-10-2014 00:00:00 13.73785 C 95.4063 % 13.02 C
1627 04-10-2014 00:00:00 12.86979 C 93.2014 % 11.8 C
1628 05-10-2014 00:00:00 12.94097 C 94.0799 % 12.01 C
1629 06-10-2014 00:00:00 14.3 C 90.3750 % 12.75 C
1630 07-10-2014 00:00:00 13.71806 C 92.2986 % 12.49 C
1631 08-10-2014 00:00:00 13.3 C 97.6069 % 12.93 C
1632 09-10-2014 00:00:00 15.17173 C 97.6859 % 14.81 C
1633 10-10-2014 00:00:00 14.20902 C 96.4000 % 13.64 C
1634 11-10-2014 00:00:00 14.77847 C 96.0347 % 14.15 C
1635 12-10-2014 00:00:00 12.52744 C 95.6029 % 11.84 C
1636 13-10-2014 00:00:00 14.72014 C 96.7569 % 14.21 C
1637 14-10-2014 00:00:00 12.54495 C 95.1847 % 11.8 C
1638 15-10-2014 00:00:00 11.65639 C 95.3910 % 10.94 C
1639 16-10-2014 00:00:00 14.02682 C 94.9818 % 13.24 C
1640 17-10-2014 00:00:00 14.05977 C 93.7854 % 13.07 C
1641 18-10-2014 00:00:00 12.49887 C 97.7283 % 12.15 C
1642 19-10-2014 00:00:00 15.09722 C 92.7188 % 13.93 C
1643 20-10-2014 00:00:00 15.06015 C 83.9885 % 12.38 C
1644 21-10-2014 00:00:00 11.78491 C 85.1649 % 9.38 C
1645 22-10-2014 00:00:00 8.88438 C 85.2674 % 6.55 C
1646 23-10-2014 00:00:00 10.3816 C 87.9444 % 8.47 C
1647 24-10-2014 00:00:00 10.59097 C 90.2951 % 9.07 C
1648 25-10-2014 00:00:00 11.53056 C 94.5417 % 10.69 C
1649 26-10-2014 00:00:00 11.35625 C 95.5278 % 10.67 C
1650 27-10-2014 00:00:00 9.22813 C 96.0903 % 8.64 C
Sensor: Nr:Datum:Temp:Feuchte:Taupunkt:
Aussen-T/F 1651 28-10-2014 00:00:00 7.93681 C 88.3750 % 6.14 C
1652 29-10-2014 00:00:00 9.50556 C 91.5347 % 8.2 C
1653 30-10-2014 00:00:00 12.10625 C 96.8819 % 11.63 C
1654 31-10-2014 00:00:00 12.05903 C 97.0694 % 11.61 C
1655 01-11-2014 00:00:00 10.92674 C 98.2674 % 10.66 C
1656 02-11-2014 00:00:00 11.24448 C 97.2776 % 10.83 C
1657 03-11-2014 00:00:00 13.84028 C 90.1806 % 12.26 C
1658 04-11-2014 00:00:00 11.22049 C 96.5521 % 10.69 C
1659 05-11-2014 00:00:00 9.33229 C 95.2257 % 8.61 C
1660 06-11-2014 00:00:00 6.59514 C 92.6250 % 5.49 C
1661 07-11-2014 00:00:00 5.60208 C 94.8160 % 4.84 C
1662 08-11-2014 00:00:00 8.8941 C 91.4340 % 7.58 C
1663 09-11-2014 00:00:00 6.62257 C 96.8125 % 6.15 C
1664 10-11-2014 00:00:00 8.76389 C 96.3715 % 8.22 C
1665 11-11-2014 00:00:00 8.47553 C 95.0106 % 7.72 C
1666 12-11-2014 00:00:00 9.50104 C 95.2604 % 8.78 C
1667 13-11-2014 00:00:00 9.66736 C 96.6806 % 9.17 C
1668 14-11-2014 00:00:00 10.60174 C 90.0313 % 9.04 C
1669 15-11-2014 00:00:00 9.75938 C 94.5347 % 8.93 C
1670 16-11-2014 00:00:00 8.75674 C 97.4468 % 8.38 C
1671 17-11-2014 00:00:00 8.71146 C 97.5799 % 8.35 C
1672 18-11-2014 00:00:00 8.62491 C 96.7473 % 8.14 C
1673 19-11-2014 00:00:00 8.07465 C 95.9514 % 7.47 C
1674 20-11-2014 00:00:00 6.45486 C 94.4826 % 5.63 C
1675 21-11-2014 00:00:00 5.36458 C 95.0799 % 4.64 C
Sensor: Nr:Datum:Temp:Feuchte:Taupunkt:
Aussen-T/F 1676 22-11-2014 00:00:00 5.83576 C 95.7569 % 5.21 C
1677 23-11-2014 00:00:00 6.30104 C 96.9931 % 5.86 C
1678 24-11-2014 00:00:00 7.36679 C 94.6236 % 6.56 C
1679 25-11-2014 00:00:00 3.04781 C 97.7769 % 2.73 C
1680 26-11-2014 00:00:00 5.29848 C 89.8182 % 3.77 C
1681 27-11-2014 00:00:00 5.85447 C 92.9300 % 4.8 C
1682 28-11-2014 00:00:00 5.42203 C 91.8771 % 4.21 C
1683 29-11-2014 00:00:00 4.46596 C 89.4070 % 2.88 C
1684 30-11-2014 00:00:00 3.88993 C 91.8229 % 2.69 C
1685 01-12-2014 00:00:00 3.33299 C 91.1840 % 2.04 C
1686 02-12-2014 00:00:00 1.63731 C 91.3192 % 0.38 C
1687 03-12-2014 00:00:00 1.74095 C 94.0216 % 0.88 C
1688 04-12-2014 00:00:00 2.32917 C 92.6806 % 1.27 C
1689 05-12-2014 00:00:00 4.15278 C 92.7500 % 3.09 C
1690 06-12-2014 00:00:00 4.51389 C 95.0174 % 3.79 C
1691 07-12-2014 00:00:00 4.32049 C 92.1597 % 3.16 C
1692 08-12-2014 00:00:00 3.10625 C 93.1458 % 2.11 C
1693 09-12-2014 00:00:00 2.57569 C 96.3472 % 2.05 C
1694 10-12-2014 00:00:00 4.42118 C 89.8993 % 2.91 C
1695 11-12-2014 00:00:00 6.26736 C 89.8125 % 4.72 C
1696 12-12-2014 00:00:00 9.07951 C 85.8507 % 6.84 C
1697 13-12-2014 00:00:00 4.45625 C 96.4618 % 3.94 C
1698 14-12-2014 00:00:00 2.59063 C 96.5868 % 2.1 C
1699 15-12-2014 00:00:00 3.42986 C 93.8646 % 2.54 C
1700 16-12-2014 00:00:00 6.12049 C 91.8542 % 4.9 C
Sensor: Nr:Datum:Temp:Feuchte:Taupunkt:
Aussen-T/F 1701 17-12-2014 00:00:00 6.08021 C 92.4167 % 4.95 C
1702 18-12-2014 00:00:00 11.91597 C 90.3021 % 10.38 C
1703 19-12-2014 00:00:00 10.45243 C 86.8194 % 8.35 C
1704 20-12-2014 00:00:00 5.90764 C 85.4618 % 3.66 C
1705 21-12-2014 00:00:00 6.41042 C 88.0833 % 4.59 C
1706 22-12-2014 00:00:00 8.375 C 87.5139 % 6.43 C
1707 23-12-2014 00:00:00 10.04444 C 85.6222 % 7.75 C
1708 24-12-2014 00:00:00 8.3214 C 86.1158 % 6.14 C
1709 25-12-2014 00:00:00 5.2875 C 85.6027 % 3.08 C
1710 26-12-2014 00:00:00 2.31469 C 97.1259 % 1.91 C
1711 27-12-2014 00:00:00 1.46649 C 94.8796 % 0.74 C
1712 28-12-2014 00:00:00 -3.09591 C 79.8636 % -6.07 C
1713 29-12-2014 00:00:00 -0.46157 C 89.7388 % -1.94 C
1714 30-12-2014 00:00:00 2.6765 C 92.5574 % 1.59 C
1715 31-12-2014 00:00:00 2.46053 C 93.8487 % 1.57 C
1716 01-01-2015 00:00:00 1.89397 C 96.4741 % 1.39 C
1717 02-01-2015 00:00:00 3.6411 C 89.1575 % 2.03 C
1718 03-01-2015 00:00:00 1.94125 C 94.7000 % 1.18 C
1719 04-01-2015 00:00:00 2.94172 C 93.6503 % 2.02 C
1720 05-01-2015 00:00:00 -0.02447 C 95.0904 % -0.71 C
1721 06-01-2015 00:00:00 0.48846 C 92.6923 % -0.55 C
1722 07-01-2015 00:00:00 2.52604 C 92.4113 % 1.42 C
1723 08-01-2015 00:00:00 6.62222 C 92.6632 % 5.52 C
1724 09-01-2015 00:00:00 9.27879 C 85.8977 % 7.04 C
1725 10-01-2015 00:00:00 13.56872 C 83.0051 % 10.74 C
Sensor: Nr:Datum:Temp:Feuchte:Taupunkt:
Aussen-T/F 1726 11-01-2015 00:00:00 5.45068 C 76.2432 % 1.61 C
1727 12-01-2015 00:00:00 6.91962 C 83.3811 % 4.3 C
1728 13-01-2015 00:00:00 10.09231 C 75.4163 % 5.95 C
1729 14-01-2015 00:00:00 5.9911 C 84.6525 % 3.61 C
1730 15-01-2015 00:00:00 10.14352 C 76.1574 % 6.14 C
1731 16-01-2015 00:00:00 6.66424 C 88.4201 % 4.89 C
1732 17-01-2015 00:00:00 3.35174 C 91.5660 % 2.11 C
1733 18-01-2015 00:00:00 1.91111 C 84.4965 % -0.42 C
1734 19-01-2015 00:00:00 0.89028 C 89.3889 % -0.65 C
1735 20-01-2015 00:00:00 0.86285 C 90.8576 % -0.46 C
1736 21-01-2015 00:00:00 -0.0414 C 88.7123 % -1.68 C
1737 22-01-2015 00:00:00 1.45625 C 84.8438 % -0.81 C
1738 23-01-2015 00:00:00 1.33299 C 89.6736 % -0.17 C
1739 24-01-2015 00:00:00 1.04056 C 91.7189 % -0.15 C
1740 25-01-2015 00:00:00 2.19444 C 94.2396 % 1.37 C
1741 26-01-2015 00:00:00 3.05694 C 95.0069 % 2.34 C
1742 27-01-2015 00:00:00 3.85208 C 93.6806 % 2.93 C
1743 28-01-2015 00:00:00 4.1184 C 90.7604 % 2.75 C
1744 29-01-2015 00:00:00 3.03715 C 88.2431 % 1.29 C
1745 30-01-2015 00:00:00 1.92569 C 90.3715 % 0.52 C
1746 31-01-2015 00:00:00 2.07143 C 87.5437 % 0.23 C
1747 01-02-2015 00:00:00 2.04274 C 93.0565 % 1.04 C
1748 02-02-2015 00:00:00 2.35794 C 89.0635 % 0.75 C
1749 03-02-2015 00:00:00 0.88769 C 90.6462 % -0.46 C
1750 04-02-2015 00:00:00 0.04848 C 87.0379 % -1.84 C
Sensor: Nr:Datum:Temp:Feuchte:Taupunkt:
Aussen-T/F 1751 05-02-2015 00:00:00 -1.86778 C 83.7333 % -4.25 C
1752 06-02-2015 00:00:00 0.42153 C 69.7431 % -4.45 C
1753 07-02-2015 00:00:00 -0.6316 C 80.7569 % -3.52 C
1754 08-02-2015 00:00:00 3.19444 C 81.6701 % 0.37 C
1755 09-02-2015 00:00:00 4.06597 C 90.9549 % 2.73 C
1756 10-02-2015 00:00:00 4.96528 C 91.7188 % 3.73 C
1757 11-02-2015 00:00:00 3.82917 C 87.1771 % 1.9 C
1758 12-02-2015 00:00:00 2.75556 C 89.3854 % 1.19 C
1759 13-02-2015 00:00:00 2.27396 C 89.2326 % 0.69 C
1760 14-02-2015 00:00:00 3.73438 C 86.5382 % 1.7 C
1761 15-02-2015 00:00:00 1.72778 C 89.3542 % 0.17 C
1762 16-02-2015 00:00:00 1.82744 C 88.4874 % 0.13 C
1763 17-02-2015 00:00:00 3.31146 C 88.3646 % 1.58 C
1764 18-02-2015 00:00:00 4.09479 C 89.1493 % 2.47 C
1765 19-02-2015 00:00:00 0.94861 C 88.1007 % -0.79 C
1766 20-02-2015 00:00:00 6.96389 C 77.7326 % 3.35 C
1767 21-02-2015 00:00:00 5.27535 C 85.5972 % 3.06 C
1768 22-02-2015 00:00:00 3.72083 C 82.6285 % 1.05 C
1769 23-02-2015 00:00:00 3.46944 C 89.0000 % 1.83 C
1770 24-02-2015 00:00:00 4.88611 C 84.9757 % 2.58 C
1771 25-02-2015 00:00:00 4.28403 C 89.1215 % 2.65 C
1772 26-02-2015 00:00:00 6.06354 C 89.7708 % 4.51 C
1773 27-02-2015 00:00:00 5.01736 C 91.6632 % 3.78 C
1774 28-02-2015 00:00:00 2.37187 C 85.8854 % 0.26 C
1775 01-03-2015 00:00:00 7.71493 C 80.8125 % 4.63 C
Sensor: Nr:Datum:Temp:Feuchte:Taupunkt:
Aussen-T/F 1776 02-03-2015 00:00:00 6.14653 C 79.5556 % 2.88 C
1777 03-03-2015 00:00:00 5.52812 C 78.2778 % 2.05 C
1778 04-03-2015 00:00:00 4.51771 C 82.8576 % 1.86 C
1779 05-03-2015 00:00:00 5.08681 C 83.0556 % 2.45 C
1780 06-03-2015 00:00:00 4.14931 C 84.0660 % 1.71 C
1781 07-03-2015 00:00:00 4.96007 C 81.3993 % 2.05 C
1782 08-03-2015 00:00:00 6.05625 C 83.0174 % 3.4 C
1783 09-03-2015 00:00:00 7.81354 C 84.5938 % 5.38 C
1784 10-03-2015 00:00:00 5.56319 C 96.8542 % 5.1 C
1785 11-03-2015 00:00:00 4.39549 C 87.3090 % 2.48 C
1786 12-03-2015 00:00:00 3.92222 C 82.5382 % 1.23 C
1787 13-03-2015 00:00:00 4.14514 C 76.4688 % 0.39 C
1788 14-03-2015 00:00:00 4.55451 C 82.5729 % 1.85 C
1789 15-03-2015 00:00:00 4.61042 C 89.4132 % 3.02 C
1790 16-03-2015 00:00:00 4.68368 C 86.6736 % 2.66 C
1791 17-03-2015 00:00:00 7.26632 C 81.9722 % 4.4 C
1792 18-03-2015 00:00:00 9.08924 C 80.6424 % 5.94 C
1793 19-03-2015 00:00:00 7.62431 C 91.9132 % 6.4 C
1794 20-03-2015 00:00:00 8.07465 C 82.3889 % 5.26 C
1795 21-03-2015 00:00:00 5.69201 C 90.0000 % 4.18 C
1796 22-03-2015 00:00:00 5.19792 C 82.4965 % 2.47 C
1797 23-03-2015 00:00:00 3.85521 C 84.2118 % 1.44 C
1798 24-03-2015 00:00:00 6.94167 C 81.1181 % 3.93 C
1799 25-03-2015 00:00:00 7.68056 C 84.0729 % 5.17 C
1800 26-03-2015 00:00:00 7.17257 C 77.3333 % 3.48 C
Sensor: Nr:Datum:Temp:Feuchte:Taupunkt:
Aussen-T/F 1801 27-03-2015 00:00:00 7.64965 C 74.8472 % 3.48 C
1802 28-03-2015 00:00:00 8.51667 C 79.0243 % 5.09 C
1803 29-03-2015 00:00:00 11.63659 C 83.7029 % 8.98 C
1804 30-03-2015 00:00:00 8.21597 C 71.2222 % 3.32 C
1805 31-03-2015 00:00:00 10.06181 C 74.1771 % 5.68 C
1806 01-04-2015 00:00:00 6.38924 C 70.3542 % 1.4 C
1807 02-04-2015 00:00:00 6.45868 C 73.6250 % 2.1 C
1808 03-04-2015 00:00:00 5.87951 C 71.3819 % 1.11 C
1809 04-04-2015 00:00:00 6.24896 C 76.7882 % 2.49 C
1810 05-04-2015 00:00:00 5.21354 C 69.6042 % 0.12 C
1811 06-04-2015 00:00:00 5.33542 C 76.9201 % 1.62 C
1812 07-04-2015 00:00:00 5.98646 C 76.3785 % 2.16 C
1813 08-04-2015 00:00:00 8.43776 C 77.5594 % 4.75 C
1814 09-04-2015 00:00:00 11.19653 C 77.2118 % 7.36 C
1815 10-04-2015 00:00:00 13.22708 C 68.0278 % 7.46 C
1816 11-04-2015 00:00:00 12.37118 C 70.6736 % 7.2 C
1817 12-04-2015 00:00:00 11.34444 C 70.3090 % 6.14 C
1818 13-04-2015 00:00:00 11.50104 C 69.8576 % 6.2 C
1819 14-04-2015 00:00:00 13.37778 C 67.0347 % 7.39 C
1820 15-04-2015 00:00:00 16.43472 C 63.5799 % 9.51 C
1821 16-04-2015 00:00:00 15.04757 C 69.6493 % 9.55 C
1822 17-04-2015 00:00:00 11.41736 C 67.7951 % 5.69 C
1823 18-04-2015 00:00:00 8.60486 C 64.9931 % 2.41 C
1824 19-04-2015 00:00:00 9.50903 C 62.7708 % 2.78 C
1825 20-04-2015 00:00:00 12.20312 C 60.9549 % 4.9 C
Sensor: Nr:Datum:Temp:Feuchte:Taupunkt:
Aussen-T/F 1826 21-04-2015 00:00:00 13.69549 C 60.5278 % 6.21 C
1827 22-04-2015 00:00:00 10.77465 C 69.4826 % 5.42 C
1828 23-04-2015 00:00:00 10.84062 C 70.1806 % 5.63 C
1829 24-04-2015 00:00:00 13.43403 C 62.6701 % 6.46 C
1830 25-04-2015 00:00:00 12.95486 C 81.1250 % 9.8 C
1831 26-04-2015 00:00:00 15.34444 C 79.1736 % 11.76 C
1832 27-04-2015 00:00:00 10.42014 C 94.5868 % 9.59 C
1833 28-04-2015 00:00:00 9.15382 C 73.6910 % 4.71 C
1834 29-04-2015 00:00:00 8.3059 C 73.2951 % 3.82 C
1835 30-04-2015 00:00:00 9.85764 C 80.8819 % 6.73 C
1836 01-05-2015 00:00:00 8.17979 C 82.7700 % 5.43 C
1837 02-05-2015 00:00:00 9.88958 C 78.1007 % 6.26 C
1838 03-05-2015 00:00:00 13.80469 C 89.9856 % 12.19 C
1839 04-05-2015 00:00:00 16.61875 C 81.1319 % 13.37 C
1840 05-05-2015 00:00:00 18.45035 C 74.4514 % 13.83 C
1841 06-05-2015 00:00:00 13.3566 C 69.4306 % 7.89 C
1842 07-05-2015 00:00:00 13.35764 C 65.8646 % 7.12 C
1843 08-05-2015 00:00:00 14.46632 C 68.7951 % 8.81 C
1844 09-05-2015 00:00:00 15.2441 C 75.9410 % 11.03 C
1845 10-05-2015 00:00:00 14.78229 C 75.1944 % 10.44 C
1846 11-05-2015 00:00:00 17.12812 C 73.8611 % 12.43 C
1847 12-05-2015 00:00:00 18.0309 C 74.6181 % 13.46 C
1848 13-05-2015 00:00:00 14.45208 C 67.5590 % 8.53 C
1849 14-05-2015 00:00:00 14.14351 C 72.7298 % 9.33 C
1850 15-05-2015 00:00:00 15.02882 C 77.6215 % 11.15 C
Sensor: Nr:Datum:Temp:Feuchte:Taupunkt:
Aussen-T/F 1851 16-05-2015 00:00:00 12.01528 C 78.7569 % 8.45 C
1852 17-05-2015 00:00:00 14.18924 C 70.3750 % 8.88 C
1853 18-05-2015 00:00:00 15.27535 C 65.6250 % 8.88 C
1854 19-05-2015 00:00:00 13.64941 C 60.6403 % 6.19 C
1855 20-05-2015 00:00:00 11.71144 C 70.5166 % 6.54 C
1856 21-05-2015 00:00:00 11.60764 C 69.7118 % 6.27 C
1857 22-05-2015 00:00:00 15.74722 C 61.0868 % 8.27 C
1858 23-05-2015 00:00:00 15.85278 C 71.0625 % 10.62 C
1859 24-05-2015 00:00:00 17.02887 C 75.7852 % 12.73 C
1860 25-05-2015 00:00:00 13.82968 C 88.0452 % 11.89 C
1861 26-05-2015 00:00:00 11.87604 C 75.6736 % 7.72 C
1862 27-05-2015 00:00:00 11.63958 C 70.3194 % 6.43 C
1863 28-05-2015 00:00:00 14.21944 C 69.5104 % 8.73 C
1864 29-05-2015 00:00:00 13.27367 C 76.0712 % 9.15 C
1865 30-05-2015 00:00:00 12.66319 C 71.2188 % 7.59 C
1866 31-05-2015 00:00:00 14.50903 C 73.4653 % 9.83 C
1867 01-06-2015 00:00:00 14.86667 C 79.3472 % 11.33 C
1868 02-06-2015 00:00:00 16.57639 C 73.3056 % 11.78 C
1869 03-06-2015 00:00:00 17.74965 C 70.8646 % 12.4 C
1870 04-06-2015 00:00:00 18.54896 C 65.3993 % 11.94 C
1871 05-06-2015 00:00:00 22.1191 C 67.8681 % 15.91 C
1872 06-06-2015 00:00:00 19.94028 C 80.0208 % 16.39 C
1873 07-06-2015 00:00:00 18.04306 C 59.8576 % 10.13 C
1874 08-06-2015 00:00:00 16.17222 C 63.8056 % 9.32 C
1875 09-06-2015 00:00:00 14.94792 C 62.4688 % 7.85 C
Sensor: Nr:Datum:Temp:Feuchte:Taupunkt:
Aussen-T/F 1876 10-06-2015 00:00:00 17.10208 C 66.1146 % 10.73 C
1877 11-06-2015 00:00:00 19.95895 C 61.7825 % 12.41 C
1878 12-06-2015 00:00:00 19.48699 C 78.0855 % 15.57 C
1879 13-06-2015 00:00:00 18.63958 C 85.4028 % 16.14 C
1880 14-06-2015 00:00:00 19.07708 C 68.7674 % 13.21 C
1881 15-06-2015 00:00:00 17.59271 C 74.7535 % 13.06 C
1882 16-06-2015 00:00:00 15.68924 C 63.0868 % 8.69 C
1883 17-06-2015 00:00:00 15.5816 C 65.6250 % 9.18 C
1884 18-06-2015 00:00:00 17.15625 C 75.1736 % 12.73 C
1885 19-06-2015 00:00:00 12.7559 C 82.5104 % 9.86 C
1886 20-06-2015 00:00:00 13.05547 C 82.0000 % 10.06 C
1887 21-06-2015 00:00:00 15.43396 C 84.8358 % 12.9 C
1888 22-06-2015 00:00:00 13.19855 C 87.9273 % 11.24 C
1889 23-06-2015 00:00:00 11.71206 C 92.2057 % 10.49 C
1890 24-06-2015 00:00:00 14.96215 C 81.0417 % 11.74 C
1891 25-06-2015 00:00:00 17.94306 C 75.7118 % 13.6 C
1892 26-06-2015 00:00:00 19.40139 C 78.2465 % 15.52 C
1893 27-06-2015 00:00:00 20.26461 C 74.9877 % 15.69 C
1894 28-06-2015 00:00:00 18.39741 C 72.8405 % 13.44 C
1895 29-06-2015 00:00:00 23.63875 C 61.7438 % 15.87 C
1896 30-06-2015 00:00:00 21.94847 C 63.2710 % 14.65 C
1897 01-07-2015 00:00:00 24.13993 C 63.3022 % 16.73 C
1898 02-07-2015 00:00:00 26.83474 C 64.8246 % 19.66 C
1899 03-07-2015 00:00:00 28.2408 C 65.4400 % 21.14 C
1900 04-07-2015 00:00:00 27.77951 C 67.8229 % 21.29 C
Sensor: Nr:Datum:Temp:Feuchte:Taupunkt:
Aussen-T/F 1901 05-07-2015 00:00:00 26.75417 C 64.4028 % 19.47 C
1902 06-07-2015 00:00:00 23.89674 C 54.1630 % 14.07 C
1903 07-07-2015 00:00:00 23.4251 C 64.1833 % 16.27 C
1904 08-07-2015 00:00:00 17.62465 C 71.6944 % 12.45 C
1905 09-07-2015 00:00:00 16.50669 C 68.3134 % 10.65 C
1906 10-07-2015 00:00:00 17.02947 C 57.6175 % 8.61 C
1907 11-07-2015 00:00:00 21.24132 C 54.9340 % 11.83 C
1908 12-07-2015 00:00:00 19.0157 C 71.3264 % 13.71 C
1909 13-07-2015 00:00:00 17.93777 C 85.0638 % 15.39 C
1910 14-07-2015 00:00:00 21.06476 C 74.5551 % 16.37 C
1911 15-07-2015 00:00:00 21.59368 C 75.8000 % 17.14 C
1912 16-07-2015 00:00:00 24.00382 C 71.6667 % 18.57 C
1913 17-07-2015 00:00:00 28.34301 C 50.2206 % 16.99 C
1914 18-07-2015 00:00:00 23.63602 C 62.5441 % 16.06 C
1915 19-07-2015 00:00:00 21.84756 C 77.9451 % 17.83 C
1916 20-07-2015 00:00:00 22.02667 C 88.1833 % 19.98 C
1917 21-07-2015 00:00:00 26.21048 C 69.2476 % 20.13 C
1918 22-07-2015 00:00:00 23.3275 C 74.4857 % 18.53 C
1919 23-07-2015 00:00:00 20.60312 C 64.9514 % 13.78 C
1920 24-07-2015 00:00:00 21.45543 C 69.6180 % 15.67 C
1921 25-07-2015 00:00:00 17.38849 C 77.9048 % 13.5 C
1922 26-07-2015 00:00:00 15.82244 C 71.9961 % 10.79 C
1923 27-07-2015 00:00:00 17.63472 C 81.2604 % 14.39 C
1924 28-07-2015 00:00:00 17.16294 C 63.9825 % 10.3 C
1925 29-07-2015 00:00:00 17.78846 C 55.9808 % 8.9 C
Sensor: Nr:Datum:Temp:Feuchte:Taupunkt:
Aussen-T/F 1926 30-07-2015 00:00:00 14.2708 C 74.1720 % 9.74 C
1927 31-07-2015 00:00:00 16.9314 C 65.0744 % 10.33 C
1928 01-08-2015 00:00:00 19.24097 C 59.1319 % 11.07 C
1929 02-08-2015 00:00:00 20.84722 C 61.6979 % 13.23 C
1930 03-08-2015 00:00:00 23.19217 C 57.6157 % 14.37 C
1931 04-08-2015 00:00:00 19.03299 C 81.7396 % 15.84 C
1932 05-08-2015 00:00:00 19.79201 C 76.1424 % 15.47 C
1933 06-08-2015 00:00:00 24 C 66.2153 % 17.31 C
1934 07-08-2015 00:00:00 26.94306 C 61.3715 % 18.88 C
1935 08-08-2015 00:00:00 22.82014 C 79.2431 % 19.03 C
1936 09-08-2015 00:00:00 21.98785 C 77.7708 % 17.93 C
1937 10-08-2015 00:00:00 19.76944 C 83.2465 % 16.85 C
1938 11-08-2015 00:00:00 21.91979 C 74.4583 % 17.17 C
1939 12-08-2015 00:00:00 23.09896 C 77.4583 % 18.94 C
1940 13-08-2015 00:00:00 25.32292 C 70.7535 % 19.63 C
1941 14-08-2015 00:00:00 24.17396 C 69.3611 % 18.21 C
1942 15-08-2015 00:00:00 20.86319 C 72.4201 % 15.72 C
1943 16-08-2015 00:00:00 15.85799 C 89.8924 % 14.2 C
1944 17-08-2015 00:00:00 14.78889 C 90.7396 % 13.29 C
1945 18-08-2015 00:00:00 15.90625 C 82.9757 % 13.02 C
1946 19-08-2015 00:00:00 15.71493 C 78.1458 % 11.92 C
1947 20-08-2015 00:00:00 18.10382 C 74.0625 % 13.41 C
1948 21-08-2015 00:00:00 18.85764 C 70.1910 % 13.31 C
1949 22-08-2015 00:00:00 19.10729 C 64.2708 % 12.21 C
1950 23-08-2015 00:00:00 19.89722 C 63.7431 % 12.83 C
Sensor: Nr:Datum:Temp:Feuchte:Taupunkt:
Aussen-T/F 1951 24-08-2015 00:00:00 19.22187 C 83.3750 % 16.34 C
1952 25-08-2015 00:00:00 17.40729 C 68.3472 % 11.52 C
1953 26-08-2015 00:00:00 20.71458 C 65.1667 % 13.94 C
1954 27-08-2015 00:00:00 18.60486 C 83.2986 % 15.72 C
1955 28-08-2015 00:00:00 16.57292 C 89.2813 % 14.8 C
1956 29-08-2015 00:00:00 19.31181 C 88.3993 % 17.35 C
1957 30-08-2015 00:00:00 23.12396 C 82.7396 % 20.03 C
1958 31-08-2015 00:00:00 24.2934 C 69.7604 % 18.42 C
1959 01-09-2015 00:00:00 17.4059 C 90.9826 % 15.92 C
1960 02-09-2015 00:00:00 15.13229 C 84.9479 % 12.62 C
1961 03-09-2015 00:00:00 13.95937 C 84.7326 % 11.43 C
1962 04-09-2015 00:00:00 13.54792 C 79.5833 % 10.09 C
1963 05-09-2015 00:00:00 13.21701 C 84.4479 % 10.65 C
1964 06-09-2015 00:00:00 13.11632 C 74.0868 % 8.61 C
1965 07-09-2015 00:00:00 13.56493 C 87.0000 % 11.44 C
1966 08-09-2015 00:00:00 15.09236 C 84.9271 % 12.58 C
1967 09-09-2015 00:00:00 15.60139 C 76.2118 % 11.43 C
1968 10-09-2015 00:00:00 13.23854 C 76.5972 % 9.22 C
1969 11-09-2015 00:00:00 13.19792 C 79.2847 % 9.69 C
1970 12-09-2015 00:00:00 15.35312 C 83.7361 % 12.62 C
1971 13-09-2015 00:00:00 17.07153 C 92.6042 % 15.86 C
1972 14-09-2015 00:00:00 15.52639 C 91.7431 % 14.19 C
1973 15-09-2015 00:00:00 12.94931 C 87.0938 % 10.86 C
1974 16-09-2015 00:00:00 15.01667 C 93.7153 % 14.01 C
1975 17-09-2015 00:00:00 14.6566 C 91.2049 % 13.24 C
Sensor: Nr:Datum:Temp:Feuchte:Taupunkt:
Aussen-T/F 1976 18-09-2015 00:00:00 14.53542 C 85.5278 % 12.14 C
1977 19-09-2015 00:00:00 14.32292 C 87.2118 % 12.23 C
1978 20-09-2015 00:00:00 13.77188 C 84.7743 % 11.26 C
1979 21-09-2015 00:00:00 12.22847 C 90.1354 % 10.66 C
1980 22-09-2015 00:00:00 13.06701 C 91.6285 % 11.74 C
1981 23-09-2015 00:00:00 11.92535 C 93.3056 % 10.88 C
1982 24-09-2015 00:00:00 13.09618 C 90.9340 % 11.65 C
1983 25-09-2015 00:00:00 13.95278 C 87.2257 % 11.86 C
1984 26-09-2015 00:00:00 12.73889 C 89.2049 % 11.01 C
1985 27-09-2015 00:00:00 11.29236 C 83.7500 % 8.65 C
1986 28-09-2015 00:00:00 10.50729 C 82.5556 % 7.67 C
1987 29-09-2015 00:00:00 10.96979 C 81.2257 % 7.88 C
1988 30-09-2015 00:00:00 10.73368 C 77.8993 % 7.04 C
1989 01-10-2015 00:00:00 9.88646 C 74.8576 % 5.64 C
1990 02-10-2015 00:00:00 9.21528 C 85.2083 % 6.86 C
1991 03-10-2015 00:00:00 11.40139 C 85.8993 % 9.13 C
1992 04-10-2015 00:00:00 12.61562 C 91.5000 % 11.27 C
1993 05-10-2015 00:00:00 11.96597 C 92.3958 % 10.77 C
1994 06-10-2015 00:00:00 15.93854 C 95.3576 % 15.2 C
1995 07-10-2015 00:00:00 14.99028 C 89.4375 % 13.27 C
1996 08-10-2015 00:00:00 13.45521 C 86.9167 % 11.32 C
1997 09-10-2015 00:00:00 12.29618 C 93.3993 % 11.26 C
1998 10-10-2015 00:00:00 12.19271 C 87.9236 % 10.25 C
1999 11-10-2015 00:00:00 8.37431 C 76.8542 % 4.56 C
2000 12-10-2015 00:00:00 5.28229 C 82.6007 % 2.57 C
Sensor: Nr:Datum:Temp:Feuchte:Taupunkt:
Aussen-T/F 2001 13-10-2015 00:00:00 4.33542 C 90.2049 % 2.88 C
2002 14-10-2015 00:00:00 3.63333 C 95.0139 % 2.91 C
2003 15-10-2015 00:00:00 4.25694 C 95.2500 % 3.57 C
2004 16-10-2015 00:00:00 6.52431 C 92.4236 % 5.39 C
2005 17-10-2015 00:00:00 6.99375 C 89.5000 % 5.39 C
2006 18-10-2015 00:00:00 7.25556 C 90.9896 % 5.89 C
2007 19-10-2015 00:00:00 8.22361 C 91.6285 % 6.94 C
2008 20-10-2015 00:00:00 9.33576 C 93.8785 % 8.4 C
2009 21-10-2015 00:00:00 9.83611 C 91.5903 % 8.53 C
2010 22-10-2015 00:00:00 11.18472 C 88.5000 % 9.36 C
2011 23-10-2015 00:00:00 10.26979 C 95.0417 % 9.51 C
2012 24-10-2015 00:00:00 11.03438 C 89.7465 % 9.42 C
2013 25-10-2015 00:00:00 11.68229 C 92.6528 % 10.53 C
2014 26-10-2015 00:00:00 9.55312 C 94.6736 % 8.74 C
2015 27-10-2015 00:00:00 8.10278 C 94.6701 % 7.3 C
2016 28-10-2015 00:00:00 9.54444 C 91.5382 % 8.24 C
2017 29-10-2015 00:00:00 10.48299 C 92.5799 % 9.33 C
2018 30-10-2015 00:00:00 7.79965 C 95.7917 % 7.17 C
2019 31-10-2015 00:00:00 7.27118 C 93.9479 % 6.36 C
2020 01-11-2015 00:00:00 6.57708 C 96.2118 % 6.02 C
2021 02-11-2015 00:00:00 4.67431 C 96.7049 % 4.2 C
2022 03-11-2015 00:00:00 4.99896 C 95.2813 % 4.31 C
2023 04-11-2015 00:00:00 7.79549 C 94.1146 % 6.91 C
2024 05-11-2015 00:00:00 10.38299 C 95.2569 % 9.66 C
2025 06-11-2015 00:00:00 13.31493 C 92.8854 % 12.19 C
Sensor: Nr:Datum:Temp:Feuchte:Taupunkt:
Aussen-T/F 2026 07-11-2015 00:00:00 16.40417 C 94.1493 % 15.46 C
2027 08-11-2015 00:00:00 12.97292 C 95.2118 % 12.23 C
2028 09-11-2015 00:00:00 14.80846 C 83.2353 % 11.99 C
2029 10-11-2015 00:00:00 13.07951 C 84.1493 % 10.47 C
2030 11-11-2015 00:00:00 11.7066 C 84.5625 % 9.2 C
2031 12-11-2015 00:00:00 11.71562 C 87.6354 % 9.73 C
2032 13-11-2015 00:00:00 10.51875 C 88.3993 % 8.68 C
2033 14-11-2015 00:00:00 8.91806 C 83.4722 % 6.27 C
2034 15-11-2015 00:00:00 12.53854 C 84.1944 % 9.95 C
2035 16-11-2015 00:00:00 11.63438 C 83.7708 % 8.99 C
2036 17-11-2015 00:00:00 14.03889 C 89.3438 % 12.31 C
2037 18-11-2015 00:00:00 13.87604 C 73.4063 % 9.21 C
2038 19-11-2015 00:00:00 12.23611 C 85.8750 % 9.94 C
2039 20-11-2015 00:00:00 7.64444 C 94.6667 % 6.84 C
2040 21-11-2015 00:00:00 3.88021 C 91.2500 % 2.59 C
2041 22-11-2015 00:00:00 2.85139 C 91.2396 % 1.57 C
2042 23-11-2015 00:00:00 2.48125 C 91.7917 % 1.29 C
2043 24-11-2015 00:00:00 1.88785 C 89.9931 % 0.42 C
2044 25-11-2015 00:00:00 4.63646 C 91.6528 % 3.4 C
2045 26-11-2015 00:00:00 4.92257 C 92.5174 % 3.81 C
2046 27-11-2015 00:00:00 2.23299 C 94.7951 % 1.49 C
2047 28-11-2015 00:00:00 4.42821 C 85.6357 % 2.24 C
2048 29-11-2015 00:00:00 9.10451 C 86.0660 % 6.9 C
2049 30-11-2015 00:00:00 9.89514 C 90.3056 % 8.38 C
2050 01-12-2015 00:00:00 11.24618 C 92.4410 % 10.07 C
Sensor: Nr:Datum:Temp:Feuchte:Taupunkt:
Aussen-T/F 2051 02-12-2015 00:00:00 9.85729 C 87.9375 % 7.96 C
2052 03-12-2015 00:00:00 7.55664 C 86.3252 % 5.42 C
2053 04-12-2015 00:00:00 6.93333 C 91.5694 % 5.66 C
2054 05-12-2015 00:00:00 6.05903 C 89.7500 % 4.51 C
2055 06-12-2015 00:00:00 8.44861 C 86.8160 % 6.38 C
2056 07-12-2015 00:00:00 8.35868 C 92.6840 % 7.24 C
2057 08-12-2015 00:00:00 4.51007 C 97.2292 % 4.11 C
2058 09-12-2015 00:00:00 6.58229 C 94.7396 % 5.8 C
2059 10-12-2015 00:00:00 3.22882 C 93.5590 % 2.29 C
2060 11-12-2015 00:00:00 4.75451 C 92.5069 % 3.65 C
2061 12-12-2015 00:00:00 8.05903 C 95.3681 % 7.36 C
2062 13-12-2015 00:00:00 8.6316 C 90.9167 % 7.23 C
2063 14-12-2015 00:00:00 5.9875 C 96.5243 % 5.48 C
2064 15-12-2015 00:00:00 5.6816 C 96.2813 % 5.14 C
2065 16-12-2015 00:00:00 9.66146 C 97.4514 % 9.28 C
2066 17-12-2015 00:00:00 12.51647 C 94.1098 % 11.6 C
2067 18-12-2015 00:00:00 11.17396 C 93.8472 % 10.22 C
2068 19-12-2015 00:00:00 11.26667 C 91.7708 % 9.98 C
2069 20-12-2015 00:00:00 7.84687 C 96.5278 % 7.33 C
2070 21-12-2015 00:00:00 10.07014 C 88.0938 % 8.19 C
2071 22-12-2015 00:00:00 11.62281 C 82.5175 % 8.75 C
2072 23-12-2015 00:00:00 10.964 C 81.0000 % 7.83 C
2073 24-12-2015 00:00:00 11.76867 C 85.1506 % 9.36 C
2074 25-12-2015 00:00:00 11.08646 C 87.9063 % 9.16 C
2075 26-12-2015 00:00:00 10.37257 C 87.6354 % 8.41 C
Sensor: Nr:Datum:Temp:Feuchte:Taupunkt:
Aussen-T/F 2076 27-12-2015 00:00:00 7.5375 C 92.7847 % 6.45 C
2077 28-12-2015 00:00:00 2.6941 C 97.0833 % 2.28 C
2078 29-12-2015 00:00:00 3.10521 C 97.6493 % 2.77 C
2079 30-12-2015 00:00:00 4.88299 C 93.8507 % 3.98 C
2080 31-12-2015 00:00:00 5.0934 C 93.0000 % 4.06 C
2081 01-01-2016 00:00:00 4.17222 C 95.5521 % 3.53 C
2082 02-01-2016 00:00:00 4.50451 C 93.6563 % 3.57 C
2083 03-01-2016 00:00:00 5.64826 C 92.3889 % 4.51 C
2084 04-01-2016 00:00:00 5.3184 C 94.4861 % 4.51 C
2085 05-01-2016 00:00:00 6.45694 C 91.6285 % 5.2 C
2086 06-01-2016 00:00:00 5.95903 C 94.3542 % 5.12 C
2087 07-01-2016 00:00:00 5.04028 C 94.1042 % 4.17 C
2088 08-01-2016 00:00:00 3.28646 C 90.7396 % 1.92 C
2089 09-01-2016 00:00:00 1.12292 C 97.2361 % 0.73 C
2090 10-01-2016 00:00:00 6.27708 C 91.8785 % 5.06 C
2091 11-01-2016 00:00:00 5.25729 C 94.6875 % 4.48 C
2092 12-01-2016 00:00:00 5.58229 C 88.8229 % 3.89 C
2093 13-01-2016 00:00:00 4.93333 C 89.9931 % 3.43 C
2094 14-01-2016 00:00:00 3.31701 C 89.1944 % 1.71 C
2095 15-01-2016 00:00:00 2.89062 C 90.6806 % 1.52 C
2096 16-01-2016 00:00:00 2.0875 C 90.9653 % 0.77 C
2097 17-01-2016 00:00:00 0.26424 C 83.9583 % -2.12 C
2098 18-01-2016 00:00:00 -4.85799 C 90.6840 % -6.14 C
2099 19-01-2016 00:00:00 -5.27882 C 89.7257 % -6.7 C
2100 20-01-2016 00:00:00 -1.61806 C 91.4618 % -2.82 C
Sensor: Nr:Datum:Temp:Feuchte:Taupunkt:
Aussen-T/F 2101 21-01-2016 00:00:00 0.6684 C 92.9618 % -0.34 C
2102 22-01-2016 00:00:00 -2.10729 C 91.9201 % -3.24 C
2103 23-01-2016 00:00:00 4.1559 C 94.7465 % 3.39 C
2104 24-01-2016 00:00:00 5.37396 C 93.7882 % 4.46 C
2105 25-01-2016 00:00:00 7.51076 C 93.2813 % 6.5 C
2106 26-01-2016 00:00:00 9.35729 C 85.4410 % 7.04 C
2107 27-01-2016 00:00:00 11.44792 C 70.5313 % 6.29 C
2108 28-01-2016 00:00:00 7.3625 C 85.9931 % 5.18 C
2109 29-01-2016 00:00:00 5.64583 C 86.0833 % 3.51 C
2110 30-01-2016 00:00:00 7.42914 C 86.8885 % 5.39 C
2111 31-01-2016 00:00:00 6.31944 C 89.3819 % 4.7 C
2112 01-02-2016 00:00:00 11.92326 C 84.3993 % 9.38 C
2113 02-02-2016 00:00:00 10.40035 C 86.6354 % 8.27 C
2114 03-02-2016 00:00:00 5.14306 C 85.1354 % 2.86 C
2115 04-02-2016 00:00:00 4.62118 C 90.7153 % 3.24 C
2116 05-02-2016 00:00:00 7.46076 C 91.2847 % 6.13 C
2117 06-02-2016 00:00:00 8.36806 C 86.5069 % 6.25 C
2118 07-02-2016 00:00:00 9.22743 C 76.8021 % 5.37 C
2119 08-02-2016 00:00:00 8.09062 C 80.4167 % 4.93 C
2120 09-02-2016 00:00:00 7.11076 C 85.9306 % 4.92 C
2121 10-02-2016 00:00:00 4.86562 C 85.1493 % 2.59 C
2122 11-02-2016 00:00:00 4.89444 C 87.2674 % 2.96 C
2123 12-02-2016 00:00:00 3.0316 C 85.9826 % 0.92 C
2124 13-02-2016 00:00:00 1.57049 C 93.5625 % 0.65 C
2125 14-02-2016 00:00:00 4.64965 C 94.9931 % 3.92 C
Sensor: Nr:Datum:Temp:Feuchte:Taupunkt:
Aussen-T/F 2126 15-02-2016 00:00:00 2.20278 C 91.7396 % 1 C
2127 16-02-2016 00:00:00 0.19792 C 81.4688 % -2.59 C
2128 17-02-2016 00:00:00 0.40625 C 88.6771 % -1.24 C
2129 18-02-2016 00:00:00 2.11285 C 85.4514 % -0.07 C
2130 19-02-2016 00:00:00 1.43507 C 92.3472 % 0.33 C
2131 20-02-2016 00:00:00 6.41528 C 92.1944 % 5.24 C
2132 21-02-2016 00:00:00 11.8375 C 88.1042 % 9.93 C
2133 22-02-2016 00:00:00 9.57778 C 85.1250 % 7.21 C
2134 23-02-2016 00:00:00 2.26424 C 95.8333 % 1.67 C
2135 24-02-2016 00:00:00 2.15243 C 91.2674 % 0.88 C
2136 25-02-2016 00:00:00 0.66597 C 90.3507 % -0.73 C
2137 26-02-2016 00:00:00 2.36771 C 85.4931 % 0.19 C
2138 27-02-2016 00:00:00 2.35694 C 77.3333 % -1.19 C
2139 28-02-2016 00:00:00 2.12509 C 77.4145 % -1.4 C
2140 29-02-2016 00:00:00 3.32569 C 70.7847 % -1.46 C
2141 01-03-2016 00:00:00 1.1875 C 81.7361 % -1.58 C
2142 02-03-2016 00:00:00 6.5125 C 83.4375 % 3.91 C
2143 03-03-2016 00:00:00 3.61736 C 87.0208 % 1.66 C
2144 04-03-2016 00:00:00 1.76528 C 93.4722 % 0.83 C
2145 05-03-2016 00:00:00 4.32153 C 92.1042 % 3.16 C
2146 06-03-2016 00:00:00 3.0434 C 94.2535 % 2.21 C
2147 07-03-2016 00:00:00 2.40347 C 93.7049 % 1.5 C
2148 08-03-2016 00:00:00 1.75521 C 90.5972 % 0.39 C
2149 09-03-2016 00:00:00 2.60799 C 83.1042 % 0.04 C
2150 10-03-2016 00:00:00 2.73576 C 83.8264 % 0.28 C
Sensor: Nr:Datum:Temp:Feuchte:Taupunkt:
Aussen-T/F 2151 11-03-2016 00:00:00 4.25868 C 83.4757 % 1.71 C
2152 12-03-2016 00:00:00 4.36424 C 78.1215 % 0.9 C
2153 13-03-2016 00:00:00 5.06944 C 77.3924 % 1.45 C
2154 14-03-2016 00:00:00 4.20451 C 71.0174 % -0.57 C
2155 15-03-2016 00:00:00 3.53264 C 80.5833 % 0.52 C
2156 16-03-2016 00:00:00 4.7066 C 73.0556 % 0.3 C
2157 17-03-2016 00:00:00 4.57049 C 75.0625 % 0.54 C
2158 18-03-2016 00:00:00 3.8934 C 83.0868 % 1.29 C
2159 19-03-2016 00:00:00 5.67465 C 87.0938 % 3.7 C
2160 20-03-2016 00:00:00 5.89583 C 80.9514 % 2.88 C
2161 21-03-2016 00:00:00 7.0625 C 84.7813 % 4.68 C
2162 22-03-2016 00:00:00 8.10035 C 79.6354 % 4.8 C
2163 23-03-2016 00:00:00 7.93438 C 81.8576 % 5.03 C
2164 24-03-2016 00:00:00 7.05069 C 85.9410 % 4.86 C
2165 25-03-2016 00:00:00 6.93125 C 92.5347 % 5.81 C
2166 26-03-2016 00:00:00 9.02778 C 82.5382 % 6.22 C
2167 27-03-2016 00:00:00 9.36558 C 82.0543 % 6.46 C
2168 28-03-2016 00:00:00 8.24167 C 84.3993 % 5.77 C
2169 29-03-2016 00:00:00 9.19792 C 74.2535 % 4.86 C
2170 30-03-2016 00:00:00 9.98958 C 84.7431 % 7.54 C
2171 31-03-2016 00:00:00 7.10243 C 92.7153 % 6 C
2172 01-04-2016 00:00:00 7.02396 C 85.1076 % 4.7 C
2173 02-04-2016 00:00:00 8.56007 C 85.2361 % 6.23 C
2174 03-04-2016 00:00:00 13.56285 C 81.3472 % 10.43 C
2175 04-04-2016 00:00:00 13.63299 C 81.7951 % 10.58 C
Sensor: Nr:Datum:Temp:Feuchte:Taupunkt:
Aussen-T/F 2176 05-04-2016 00:00:00 11.25069 C 92.5313 % 10.09 C
2177 06-04-2016 00:00:00 10.87153 C 79.3507 % 7.44 C
2178 07-04-2016 00:00:00 8.49479 C 75.7014 % 4.46 C
2179 08-04-2016 00:00:00 6.48403 C 79.6181 % 3.22 C
2180 09-04-2016 00:00:00 8.00139 C 72.3785 % 3.34 C
2181 10-04-2016 00:00:00 11.74757 C 69.9479 % 6.45 C
2182 11-04-2016 00:00:00 12.00972 C 70.4757 % 6.81 C
2183 12-04-2016 00:00:00 11.31181 C 78.9861 % 7.8 C
2184 13-04-2016 00:00:00 8.81354 C 93.8854 % 7.88 C
2185 14-04-2016 00:00:00 10.59722 C 80.6215 % 7.41 C
2186 15-04-2016 00:00:00 13.04618 C 74.1493 % 8.55 C
2187 16-04-2016 00:00:00 11.99514 C 81.5035 % 8.93 C
2188 17-04-2016 00:00:00 8.41111 C 77.1875 % 4.65 C
2189 18-04-2016 00:00:00 7.11632 C 74.6910 % 2.94 C
2190 19-04-2016 00:00:00 8.83507 C 72.7292 % 4.22 C
2191 20-04-2016 00:00:00 9.1559 C 66.4826 % 3.25 C
2192 21-04-2016 00:00:00 11.43229 C 64.2431 % 4.93 C
2193 22-04-2016 00:00:00 13.17674 C 62.2014 % 6.11 C
2194 23-04-2016 00:00:00 7.88299 C 78.2292 % 4.33 C
2195 24-04-2016 00:00:00 5.24444 C 78.5243 % 1.82 C
2196 25-04-2016 00:00:00 4.71632 C 85.9792 % 2.58 C
2197 26-04-2016 00:00:00 4.5934 C 82.9306 % 1.95 C
2198 27-04-2016 00:00:00 5.57465 C 78.2847 % 2.1 C
2199 28-04-2016 00:00:00 6.65 C 71.1007 % 1.8 C
2200 29-04-2016 00:00:00 7.88056 C 69.0972 % 2.58 C
Sensor: Nr:Datum:Temp:Feuchte:Taupunkt:
Aussen-T/F 2201 30-04-2016 00:00:00 7.70174 C 83.3611 % 5.06 C
2202 01-05-2016 00:00:00 10.10486 C 81.5451 % 7.09 C
2203 02-05-2016 00:00:00 12.06389 C 73.2674 % 7.43 C
2204 03-05-2016 00:00:00 10.93785 C 75.7222 % 6.83 C
2205 04-05-2016 00:00:00 9.10035 C 68.4063 % 3.6 C
2206 05-05-2016 00:00:00 11.45347 C 67.3507 % 5.63 C
2207 06-05-2016 00:00:00 15.34618 C 68.6806 % 9.63 C
2208 07-05-2016 00:00:00 16.83542 C 65.2604 % 10.28 C
2209 08-05-2016 00:00:00 18.59861 C 52.5521 % 8.72 C
2210 09-05-2016 00:00:00 18.28715 C 61.7326 % 10.82 C
2211 10-05-2016 00:00:00 17.08646 C 77.6076 % 13.15 C
2212 11-05-2016 00:00:00 17.43438 C 75.9340 % 13.15 C
2213 12-05-2016 00:00:00 17.84271 C 69.8472 % 12.27 C
2214 13-05-2016 00:00:00 14.31736 C 89.5903 % 12.63 C
2215 14-05-2016 00:00:00 10.45972 C 71.9549 % 5.63 C
2216 15-05-2016 00:00:00 9.07743 C 70.0069 % 3.91 C
2217 16-05-2016 00:00:00 9.98819 C 70.5069 % 4.88 C
2218 17-05-2016 00:00:00 12.31563 C 69.0139 % 6.8 C
2219 18-05-2016 00:00:00 14.47535 C 74.1007 % 9.92 C
2220 19-05-2016 00:00:00 14.04722 C 75.6667 % 9.82 C
2221 20-05-2016 00:00:00 14.08125 C 79.6771 % 10.63 C
2222 21-05-2016 00:00:00 17.67708 C 74.5382 % 13.1 C
2223 22-05-2016 00:00:00 18.70312 C 72.9201 % 13.75 C
2224 23-05-2016 00:00:00 14.01632 C 83.2743 % 11.23 C
2225 24-05-2016 00:00:00 10.97431 C 91.3264 % 9.62 C
Sensor: Nr:Datum:Temp:Feuchte:Taupunkt:
Aussen-T/F 2226 25-05-2016 00:00:00 12.7125 C 87.5069 % 10.69 C
2227 26-05-2016 00:00:00 14.89826 C 81.0938 % 11.69 C
2228 27-05-2016 00:00:00 16.77849 C 90.6534 % 15.24 C
2229 28-05-2016 00:00:00 18.08383 C 88.8922 % 16.22 C
2230 29-05-2016 00:00:00 17.36528 C 89.6007 % 15.64 C
2231 30-05-2016 00:00:00 17.49722 C 93.2639 % 16.4 C
2232 31-05-2016 00:00:00 16.51458 C 87.4861 % 14.43 C
2233 01-06-2016 00:00:00 15.69931 C 94.7153 % 14.85 C
2234 02-06-2016 00:00:00 17.51979 C 92.0035 % 16.21 C
2235 03-06-2016 00:00:00 16.76875 C 94.6806 % 15.91 C
2236 04-06-2016 00:00:00 17.85104 C 90.8472 % 16.34 C
2237 05-06-2016 00:00:00 19.18611 C 89.0486 % 17.34 C
2238 06-06-2016 00:00:00 19.18785 C 86.9896 % 16.97 C
2239 07-06-2016 00:00:00 19.88403 C 82.1597 % 16.75 C
2240 08-06-2016 00:00:00 19.56354 C 77.2500 % 15.47 C
2241 09-06-2016 00:00:00 17.3191 C 71.5556 % 12.13 C
2242 10-06-2016 00:00:00 16.15521 C 71.4444 % 10.99 C
2243 11-06-2016 00:00:00 17.56701 C 74.5035 % 12.99 C
2244 12-06-2016 00:00:00 17.18299 C 86.9931 % 15 C
2245 13-06-2016 00:00:00 15.94479 C 94.8472 % 15.12 C
2246 14-06-2016 00:00:00 16.36597 C 87.8507 % 14.35 C
2247 15-06-2016 00:00:00 15.42431 C 86.9340 % 13.26 C
2248 16-06-2016 00:00:00 13.77292 C 93.5903 % 12.76 C
2249 17-06-2016 00:00:00 14.68889 C 90.7882 % 13.2 C
2250 18-06-2016 00:00:00 14.84861 C 87.4549 % 12.79 C
Sensor: Nr:Datum:Temp:Feuchte:Taupunkt:
Aussen-T/F 2251 19-06-2016 00:00:00 15.40278 C 75.9653 % 11.19 C
2252 20-06-2016 00:00:00 14.61979 C 81.8958 % 11.56 C
2253 21-06-2016 00:00:00 18.21736 C 88.4757 % 16.28 C
2254 22-06-2016 00:00:00 20.84792 C 87.8333 % 18.76 C
2255 23-06-2016 00:00:00 23.76528 C 81.5243 % 20.41 C
2256 24-06-2016 00:00:00 22.11979 C 90.4826 % 20.49 C
2257 25-06-2016 00:00:00 16.85451 C 95.9306 % 16.2 C
2258 26-06-2016 00:00:00 15.41562 C 85.3854 % 12.98 C
2259 27-06-2016 00:00:00 15.91562 C 86.7743 % 13.72 C
2260 28-06-2016 00:00:00 18.26597 C 84.3646 % 15.58 C
2261 29-06-2016 00:00:00 19.04444 C 74.5521 % 14.42 C
2262 30-06-2016 00:00:00 18.7566 C 80.8264 % 15.4 C
2263 01-07-2016 00:00:00 19.88194 C 81.0556 % 16.54 C
2264 02-07-2016 00:00:00 16.90868 C 78.6840 % 13.18 C
2265 03-07-2016 00:00:00 15.21559 C 83.5437 % 12.45 C
2266 04-07-2016 00:00:00 17.43333 C 82.9201 % 14.5 C
2267 05-07-2016 00:00:00 19.40903 C 78.1979 % 15.51 C
2268 06-07-2016 00:00:00 16.61042 C 74.0104 % 11.96 C
2269 07-07-2016 00:00:00 17.08576 C 77.8785 % 13.2 C
2270 08-07-2016 00:00:00 18.87222 C 80.7292 % 15.49 C
2271 09-07-2016 00:00:00 21.08889 C 76.2778 % 16.75 C
2272 10-07-2016 00:00:00 21.92535 C 79.2431 % 18.17 C
2273 11-07-2016 00:00:00 21.61701 C 73.7326 % 16.73 C
2274 12-07-2016 00:00:00 19.06354 C 74.7049 % 14.47 C
2275 13-07-2016 00:00:00 14.71319 C 91.3750 % 13.32 C
Sensor: Nr:Datum:Temp:Feuchte:Taupunkt:
Aussen-T/F 2276 14-07-2016 00:00:00 14.94583 C 79.4063 % 11.42 C
2277 15-07-2016 00:00:00 16.08229 C 74.0417 % 11.46 C
2278 16-07-2016 00:00:00 16.98542 C 83.0451 % 14.09 C
2279 17-07-2016 00:00:00 21.34757 C 80.4132 % 17.84 C
2280 18-07-2016 00:00:00 21.85069 C 75.3924 % 17.3 C
2281 19-07-2016 00:00:00 21.61667 C 78.1597 % 17.65 C
2282 20-07-2016 00:00:00 23.34097 C 74.8785 % 18.63 C
2283 21-07-2016 00:00:00 21.23924 C 86.6632 % 18.93 C
2284 22-07-2016 00:00:00 20.96806 C 88.7674 % 19.04 C
2285 23-07-2016 00:00:00 20.3434 C 91.5104 % 18.91 C
2286 24-07-2016 00:00:00 22.0941 C 85.4583 % 19.54 C
2287 25-07-2016 00:00:00 21.8191 C 81.6910 % 18.55 C
2288 26-07-2016 00:00:00 20.20208 C 86.3333 % 17.85 C
2289 27-07-2016 00:00:00 19.62986 C 81.0313 % 16.29 C
2290 28-07-2016 00:00:00 20.20174 C 82.7986 % 17.18 C
2291 29-07-2016 00:00:00 19.81042 C 85.1319 % 17.24 C
2292 30-07-2016 00:00:00 20.55278 C 78.7326 % 16.73 C
2293 31-07-2016 00:00:00 18.14444 C 80.7535 % 14.79 C
2294 01-08-2016 00:00:00 16.63958 C 78.4757 % 12.88 C
2295 02-08-2016 00:00:00 16.16875 C 92.2986 % 14.92 C
2296 03-08-2016 00:00:00 18.55174 C 94.0938 % 17.58 C
2297 04-08-2016 00:00:00 18.01667 C 94.7188 % 17.16 C
2298 05-08-2016 00:00:00 16.58403 C 88.5486 % 14.69 C
2299 06-08-2016 00:00:00 17.59097 C 86.3924 % 15.29 C
2300 07-08-2016 00:00:00 18.92153 C 81.4306 % 15.67 C
Sensor: Nr:Datum:Temp:Feuchte:Taupunkt:
Aussen-T/F 2301 08-08-2016 00:00:00 19.25521 C 77.6701 % 15.26 C
2302 09-08-2016 00:00:00 16.42986 C 72.2361 % 11.42 C
2303 10-08-2016 00:00:00 13.02465 C 80.0243 % 9.66 C
2304 11-08-2016 00:00:00 12.3 C 83.5417 % 9.6 C
2305 12-08-2016 00:00:00 17.31701 C 90.8264 % 15.8 C
2306 13-08-2016 00:00:00 20.62604 C 78.3715 % 16.73 C
2307 14-08-2016 00:00:00 19.08924 C 80.5139 % 15.66 C
2308 15-08-2016 00:00:00 18.95451 C 78.0243 % 15.04 C
2309 16-08-2016 00:00:00 18.07778 C 75.1632 % 13.61 C
2310 17-08-2016 00:00:00 18.14653 C 73.3785 % 13.31 C
2311 18-08-2016 00:00:00 17.22743 C 82.1597 % 14.16 C
2312 19-08-2016 00:00:00 19.36181 C 83.5174 % 16.5 C
2313 20-08-2016 00:00:00 18.84757 C 83.1701 % 15.93 C
2314 21-08-2016 00:00:00 17.07361 C 80.3611 % 13.67 C
2315 22-08-2016 00:00:00 17.30799 C 84.0833 % 14.59 C
2316 23-08-2016 00:00:00 19.09167 C 77.7708 % 15.12 C
2317 24-08-2016 00:00:00 20.54583 C 77.3750 % 16.45 C
2318 25-08-2016 00:00:00 21.59896 C 76.2118 % 17.23 C
2319 26-08-2016 00:00:00 22.53715 C 76.8542 % 18.27 C
2320 27-08-2016 00:00:00 23.96528 C 78.7674 % 20.05 C
2321 28-08-2016 00:00:00 23.4684 C 72.0660 % 18.14 C
2322 29-08-2016 00:00:00 18.98993 C 79.2326 % 15.31 C
2323 30-08-2016 00:00:00 18.11736 C 75.7917 % 13.78 C
2324 31-08-2016 00:00:00 17.84514 C 77.5278 % 13.86 C
2325 01-09-2016 00:00:00 19.62431 C 75.6736 % 15.21 C
Sensor: Nr:Datum:Temp:Feuchte:Taupunkt:
Aussen-T/F 2326 02-09-2016 00:00:00 18.78785 C 78.7361 % 15.02 C
2327 03-09-2016 00:00:00 20.71944 C 73.6319 % 15.84 C
2328 04-09-2016 00:00:00 18.18681 C 81.7396 % 15.02 C
2329 05-09-2016 00:00:00 17.73715 C 79.3021 % 14.11 C
2330 06-09-2016 00:00:00 16.62882 C 82.0938 % 13.56 C
2331 07-09-2016 00:00:00 17.39792 C 80.3299 % 13.98 C
2332 08-09-2016 00:00:00 19.44722 C 79.7535 % 15.86 C
2333 09-09-2016 00:00:00 20.12222 C 70.5451 % 14.6 C
2334 10-09-2016 00:00:00 19.21944 C 81.0729 % 15.89 C
2335 11-09-2016 00:00:00 18.8684 C 76.5243 % 14.65 C
2336 12-09-2016 00:00:00 19.58437 C 79.0764 % 15.86 C
2337 13-09-2016 00:00:00 21.20937 C 77.7431 % 17.17 C
2338 14-09-2016 00:00:00 20.91319 C 74.3924 % 16.19 C
2339 15-09-2016 00:00:00 20.02847 C 76.3229 % 15.74 C
2340 16-09-2016 00:00:00 17.33889 C 85.6076 % 14.9 C
2341 17-09-2016 00:00:00 15.96146 C 85.0660 % 13.45 C
2342 18-09-2016 00:00:00 17.13993 C 89.9549 % 15.48 C
2343 19-09-2016 00:00:00 15.49201 C 84.4688 % 12.89 C
2344 20-09-2016 00:00:00 14.8184 C 88.4965 % 12.94 C
2345 21-09-2016 00:00:00 13.86563 C 78.4618 % 10.19 C
2346 22-09-2016 00:00:00 11.70625 C 84.6944 % 9.22 C
2347 23-09-2016 00:00:00 13.62518 C 86.6383 % 11.44 C
2348 24-09-2016 00:00:00 13.82326 C 85.2188 % 11.39 C
2349 25-09-2016 00:00:00 14.39201 C 85.4653 % 11.99 C
2350 26-09-2016 00:00:00 14.99062 C 86.0799 % 12.68 C
Sensor: Nr:Datum:Temp:Feuchte:Taupunkt:
Aussen-T/F 2351 27-09-2016 00:00:00 13.42847 C 93.2951 % 12.37 C
2352 28-09-2016 00:00:00 15.2816 C 85.6632 % 12.9 C
2353 29-09-2016 00:00:00 18.69375 C 79.3299 % 15.04 C
2354 30-09-2016 00:00:00 15.12813 C 89.0451 % 13.34 C
2355 01-10-2016 00:00:00 13.55804 C 95.6643 % 12.88 C
2356 02-10-2016 00:00:00 12.49271 C 89.3333 % 10.79 C
2357 03-10-2016 00:00:00 12.49236 C 92.3958 % 11.29 C
2358 04-10-2016 00:00:00 10.89931 C 93.8333 % 9.95 C
2359 05-10-2016 00:00:00 8.62465 C 83.2986 % 5.96 C
2360 06-10-2016 00:00:00 7.98125 C 88.4201 % 6.19 C
2361 07-10-2016 00:00:00 10.85069 C 93.5208 % 9.85 C
2362 08-10-2016 00:00:00 9.28854 C 94.1042 % 8.39 C
2363 09-10-2016 00:00:00 8.50868 C 91.9167 % 7.27 C
2364 10-10-2016 00:00:00 6.46875 C 92.8993 % 5.41 C
2365 11-10-2016 00:00:00 7.98993 C 90.9514 % 6.61 C
2366 12-10-2016 00:00:00 8.69201 C 90.6111 % 7.24 C
2367 13-10-2016 00:00:00 7.54583 C 87.7118 % 5.64 C
2368 14-10-2016 00:00:00 9.31042 C 87.7674 % 7.39 C
2369 15-10-2016 00:00:00 11.21667 C 90.9028 % 9.79 C
2370 16-10-2016 00:00:00 8.72222 C 95.3646 % 8.02 C
2371 17-10-2016 00:00:00 10.64132 C 96.5833 % 10.12 C
2372 18-10-2016 00:00:00 11.33924 C 92.4236 % 10.16 C
2373 19-10-2016 00:00:00 9.26389 C 89.1597 % 7.57 C
2374 20-10-2016 00:00:00 8.03368 C 95.9097 % 7.42 C
2375 21-10-2016 00:00:00 7.65845 C 95.9498 % 7.05 C
Sensor: Nr:Datum:Temp:Feuchte:Taupunkt:
Aussen-T/F 2376 22-10-2016 00:00:00 7.80729 C 96.0000 % 7.21 C
2377 23-10-2016 00:00:00 6.84236 C 95.3368 % 6.15 C
2378 24-10-2016 00:00:00 9.37778 C 96.9931 % 8.93 C
2379 25-10-2016 00:00:00 11.21424 C 95.8507 % 10.58 C
2380 26-10-2016 00:00:00 9.47049 C 94.1597 % 8.58 C
2381 27-10-2016 00:00:00 8.9309 C 95.3750 % 8.23 C
2382 28-10-2016 00:00:00 11.35833 C 91.6597 % 10.05 C
2383 29-10-2016 00:00:00 11.58854 C 90.4965 % 10.09 C
2384 30-10-2016 00:00:00 7.61215 C 95.8229 % 6.99 C
2385 31-10-2016 00:00:00 7.10417 C 96.0694 % 6.52 C
2386 01-11-2016 00:00:00 6.92431 C 97.0694 % 6.49 C
2387 02-11-2016 00:00:00 7.39618 C 91.7292 % 6.14 C
2388 03-11-2016 00:00:00 6.31493 C 91.8819 % 5.09 C
2389 04-11-2016 00:00:00 4.72674 C 94.8819 % 3.98 C
2390 05-11-2016 00:00:00 6.88299 C 96.7118 % 6.4 C
2391 06-11-2016 00:00:00 5.54201 C 89.6458 % 3.98 C
2392 07-11-2016 00:00:00 4.69097 C 93.6354 % 3.75 C
2393 08-11-2016 00:00:00 3.20521 C 92.4167 % 2.1 C
2394 09-11-2016 00:00:00 3.69722 C 94.5417 % 2.9 C
2395 10-11-2016 00:00:00 5.22847 C 94.8403 % 4.47 C
2396 11-11-2016 00:00:00 5.08785 C 96.2569 % 4.54 C
2397 12-11-2016 00:00:00 2.06181 C 93.0764 % 1.06 C
2398 13-11-2016 00:00:00 2.12049 C 91.5347 % 0.89 C
2399 14-11-2016 00:00:00 -0.38611 C 93.0799 % -1.37 C
2400 15-11-2016 00:00:00 4.75208 C 92.9931 % 3.72 C
Sensor: Nr:Datum:Temp:Feuchte:Taupunkt:
Aussen-T/F 2401 16-11-2016 00:00:00 9.88715 C 95.6910 % 9.23 C
2402 17-11-2016 00:00:00 10.99757 C 89.4340 % 9.33 C
2403 18-11-2016 00:00:00 9.44792 C 85.6667 % 7.17 C
2404 19-11-2016 00:00:00 5.51319 C 87.6146 % 3.63 C
2405 20-11-2016 00:00:00 9.3559 C 81.1806 % 6.3 C
2406 21-11-2016 00:00:00 10.27813 C 92.0208 % 9.04 C
2407 22-11-2016 00:00:00 10.22222 C 93.8160 % 9.27 C
2408 23-11-2016 00:00:00 8.56389 C 96.9931 % 8.11 C
2409 24-11-2016 00:00:00 8.79306 C 94.5590 % 7.97 C
2410 25-11-2016 00:00:00 7.72222 C 85.3924 % 5.43 C
2411 26-11-2016 00:00:00 6.87708 C 88.3542 % 5.09 C
2412 27-11-2016 00:00:00 5.11215 C 92.9514 % 4.07 C
2413 28-11-2016 00:00:00 -0.13333 C 93.4583 % -1.06 C
2414 29-11-2016 00:00:00 -2.74097 C 91.0382 % -4 C
2415 30-11-2016 00:00:00 -2.71076 C 92.1319 % -3.81 C
2416 01-12-2016 00:00:00 3.3875 C 84.6354 % 1.05 C
2417 02-12-2016 00:00:00 5.17361 C 93.7917 % 4.26 C
2418 03-12-2016 00:00:00 -0.32882 C 96.9410 % -0.75 C
2419 04-12-2016 00:00:00 -2.61215 C 96.1840 % -3.13 C
2420 05-12-2016 00:00:00 -3.83507 C 95.3438 % -4.47 C
2421 06-12-2016 00:00:00 -3.15903 C 95.5972 % -3.76 C
2422 07-12-2016 00:00:00 -0.29965 C 96.1111 % -0.84 C
2423 08-12-2016 00:00:00 1.07778 C 94.8542 % 0.35 C
2424 09-12-2016 00:00:00 6.58819 C 84.4861 % 4.17 C
2425 10-12-2016 00:00:00 5.04201 C 91.7743 % 3.82 C
Sensor: Nr:Datum:Temp:Feuchte:Taupunkt:
Aussen-T/F 2426 11-12-2016 00:00:00 8.10174 C 85.5174 % 5.82 C
2427 12-12-2016 00:00:00 6.76563 C 92.9792 % 5.71 C
2428 13-12-2016 00:00:00 4.10868 C 96.3160 % 3.58 C
2429 14-12-2016 00:00:00 6.42569 C 95.7986 % 5.81 C
2430 15-12-2016 00:00:00 6.89583 C 94.3924 % 6.06 C
2431 16-12-2016 00:00:00 4.60451 C 88.2778 % 2.84 C
2432 17-12-2016 00:00:00 3.86806 C 91.7222 % 2.65 C
2433 18-12-2016 00:00:00 5.3059 C 94.3750 % 4.48 C
2434 19-12-2016 00:00:00 4.3816 C 89.4236 % 2.8 C
2435 20-12-2016 00:00:00 1.0875 C 91.6424 % -0.12 C
2436 21-12-2016 00:00:00 2.26076 C 91.9444 % 1.09 C
2437 22-12-2016 00:00:00 3.84896 C 93.6701 % 2.92 C
2438 23-12-2016 00:00:00 4.14757 C 95.4340 % 3.48 C
2439 24-12-2016 00:00:00 7.17188 C 86.6597 % 5.1 C
2440 25-12-2016 00:00:00 8.5434 C 89.2674 % 6.88 C
2441 26-12-2016 00:00:00 7.71215 C 88.2118 % 5.89 C
2442 27-12-2016 00:00:00 4.30139 C 88.8160 % 2.62 C
2443 28-12-2016 00:00:00 3.53819 C 90.0035 % 2.06 C
2444 29-12-2016 00:00:00 -1.78438 C 96.3299 % -2.29 C
2445 30-12-2016 00:00:00 -2.37014 C 96.3924 % -2.86 C
2446 31-12-2016 00:00:00 -4.09028 C 95.6424 % -4.68 C
2447 01-01-2017 00:00:00 -2.24792 C 95.3854 % -2.88 C
2448 02-01-2017 00:00:00 0.68021 C 94.3229 % -0.12 C
2449 03-01-2017 00:00:00 1.83819 C 91.4340 % 0.59 C
2450 04-01-2017 00:00:00 3.52049 C 90.0556 % 2.05 C
Sensor: Nr:Datum:Temp:Feuchte:Taupunkt:
Aussen-T/F 2451 05-01-2017 00:00:00 0.04687 C 83.2813 % -2.44 C
2452 06-01-2017 00:00:00 -6.48125 C 90.3090 % -7.8 C
2453 07-01-2017 00:00:00 -4.20694 C 86.7674 % -6.08 C
2454 08-01-2017 00:00:00 0.59306 C 95.4583 % -0.05 C
2455 09-01-2017 00:00:00 2.15 C 93.8819 % 1.27 C
2456 10-01-2017 00:00:00 1.40799 C 95.5625 % 0.78 C
2457 11-01-2017 00:00:00 3.72639 C 93.5799 % 2.79 C
2458 12-01-2017 00:00:00 4.3066 C 88.2396 % 2.54 C
2459 13-01-2017 00:00:00 2.18576 C 91.4097 % 0.94 C
2460 14-01-2017 00:00:00 2.66806 C 85.3611 % 0.46 C
2461 15-01-2017 00:00:00 0.83819 C 92.1910 % -0.28 C
2462 16-01-2017 00:00:00 -1.62361 C 93.6910 % -2.5 C
2463 17-01-2017 00:00:00 -3.91493 C 91.1875 % -5.14 C
2464 18-01-2017 00:00:00 -5.38646 C 91.6875 % -6.52 C
2465 19-01-2017 00:00:00 -6.17292 C 92.2153 % -7.23 C
2466 20-01-2017 00:00:00 -6.54167 C 91.1458 % -7.74 C
2467 21-01-2017 00:00:00 -5.94167 C 92.0660 % -7.02 C
2468 22-01-2017 00:00:00 -7.48889 C 92.6806 % -8.47 C
2469 23-01-2017 00:00:00 -5.41458 C 93.0035 % -6.36 C
2470 24-01-2017 00:00:00 -0.75035 C 91.2257 % -2 C
2471 25-01-2017 00:00:00 -1.16701 C 83.8021 % -3.55 C
2472 26-01-2017 00:00:00 -1.71667 C 84.5069 % -3.98 C
2473 27-01-2017 00:00:00 -3.44306 C 90.2188 % -4.81 C
2474 28-01-2017 00:00:00 -1.90347 C 90.7083 % -3.22 C
2475 29-01-2017 00:00:00 2.8691 C 91.9722 % 1.7 C
Sensor: Nr:Datum:Temp:Feuchte:Taupunkt:
Aussen-T/F 2476 30-01-2017 00:00:00 4.73507 C 94.6528 % 3.95 C
2477 31-01-2017 00:00:00 3.29583 C 91.5174 % 2.05 C
2478 01-02-2017 00:00:00 3.48611 C 87.9896 % 1.69 C
2479 02-02-2017 00:00:00 5.1434 C 94.4132 % 4.32 C
2480 03-02-2017 00:00:00 5.66007 C 94.2396 % 4.81 C
2481 04-02-2017 00:00:00 6.00556 C 89.9549 % 4.49 C
2482 05-02-2017 00:00:00 4.83993 C 91.1181 % 3.52 C
2483 06-02-2017 00:00:00 3.82396 C 89.6493 % 2.28 C
2484 07-02-2017 00:00:00 4.2184 C 89.5347 % 2.66 C
2485 08-02-2017 00:00:00 2.98785 C 85.8160 % 0.85 C
2486 09-02-2017 00:00:00 0.05903 C 84.0729 % -2.3 C
2487 10-02-2017 00:00:00 0.67222 C 82.7813 % -1.91 C
2488 11-02-2017 00:00:00 1.79896 C 93.6910 % 0.89 C
2489 12-02-2017 00:00:00 2.74132 C 92.1215 % 1.59 C
2490 13-02-2017 00:00:00 3.48576 C 82.9653 % 0.87 C
2491 14-02-2017 00:00:00 1.66042 C 85.0833 % -0.57 C
2492 15-02-2017 00:00:00 2.27639 C 90.1181 % 0.83 C
2493 16-02-2017 00:00:00 4.06597 C 95.0382 % 3.34 C
2494 17-02-2017 00:00:00 6.02222 C 95.7882 % 5.4 C
2495 18-02-2017 00:00:00 5.94097 C 89.9375 % 4.42 C
2496 19-02-2017 00:00:00 3.47083 C 91.4722 % 2.22 C
2497 20-02-2017 00:00:00 8.45104 C 91.1111 % 7.09 C
2498 21-02-2017 00:00:00 10.41458 C 92.1806 % 9.2 C
2499 22-02-2017 00:00:00 11.10243 C 86.9167 % 9.01 C
2500 23-02-2017 00:00:00 9.37708 C 82.3160 % 6.52 C
Sensor: Nr:Datum:Temp:Feuchte:Taupunkt:
Aussen-T/F 2501 24-02-2017 00:00:00 5.21007 C 80.1215 % 2.07 C
2502 25-02-2017 00:00:00 3.83993 C 84.8889 % 1.54 C
2503 26-02-2017 00:00:00 8.62951 C 75.2188 % 4.5 C
2504 27-02-2017 00:00:00 10.96042 C 73.1771 % 6.35 C
2505 28-02-2017 00:00:00 5.79618 C 82.1285 % 2.99 C
2506 01-03-2017 00:00:00 6.67257 C 86.8229 % 4.64 C
2507 02-03-2017 00:00:00 8.27986 C 68.5764 % 2.85 C
2508 03-03-2017 00:00:00 6.21771 C 76.6840 % 2.44 C
2509 04-03-2017 00:00:00 10.95451 C 72.5382 % 6.22 C
2510 05-03-2017 00:00:00 7.21354 C 86.9063 % 5.18 C
2511 06-03-2017 00:00:00 6.48333 C 88.9306 % 4.79 C
2512 07-03-2017 00:00:00 6.06806 C 92.0243 % 4.87 C
2513 08-03-2017 00:00:00 5.01528 C 95.6597 % 4.38 C
2514 09-03-2017 00:00:00 11.11146 C 85.3472 % 8.75 C
2515 10-03-2017 00:00:00 7.4684 C 74.9896 % 3.33 C
2516 11-03-2017 00:00:00 6.7316 C 76.7847 % 2.95 C
2517 12-03-2017 00:00:00 6.62813 C 73.0590 % 2.15 C
2518 13-03-2017 00:00:00 6.71007 C 76.5278 % 2.88 C
2519 14-03-2017 00:00:00 9.45625 C 79.7708 % 6.14 C
2520 15-03-2017 00:00:00 10.41493 C 79.8819 % 7.1 C
2521 16-03-2017 00:00:00 8.32569 C 79.1250 % 4.93 C
2522 17-03-2017 00:00:00 8.68507 C 77.3438 % 4.95 C
2523 18-03-2017 00:00:00 9.53889 C 87.9514 % 7.64 C
2524 19-03-2017 00:00:00 12.1559 C 84.9444 % 9.7 C
2525 20-03-2017 00:00:00 11.60278 C 74.2986 % 7.19 C
Sensor: Nr:Datum:Temp:Feuchte:Taupunkt:
Aussen-T/F 2526 21-03-2017 00:00:00 9.375 C 83.3090 % 6.69 C
2527 22-03-2017 00:00:00 5.39132 C 87.9861 % 3.57 C
2528 23-03-2017 00:00:00 8.8434 C 81.9097 % 5.93 C
2529 24-03-2017 00:00:00 9.49444 C 76.3194 % 5.54 C
2530 25-03-2017 00:00:00 9.21424 C 65.5590 % 3.11 C
2531 26-03-2017 00:00:00 9.36594 C 63.8080 % 2.87 C
2532 27-03-2017 00:00:00 8.83194 C 64.8194 % 2.59 C
2533 28-03-2017 00:00:00 10.73819 C 69.2431 % 5.34 C
2534 29-03-2017 00:00:00 12.89063 C 73.7014 % 8.31 C
2535 30-03-2017 00:00:00 14.33507 C 72.3819 % 9.44 C
2536 31-03-2017 00:00:00 13.69896 C 69.0938 % 8.14 C
2537 01-04-2017 00:00:00 13.59792 C 71.9792 % 8.65 C
2538 02-04-2017 00:00:00 11.71736 C 74.2222 % 7.29 C
2539 03-04-2017 00:00:00 10.47257 C 76.1042 % 6.45 C
2540 04-04-2017 00:00:00 9.3059 C 73.6285 % 4.85 C
2541 05-04-2017 00:00:00 8.78889 C 75.9444 % 4.79 C
2542 06-04-2017 00:00:00 8.65278 C 73.7292 % 4.23 C
2543 07-04-2017 00:00:00 11.31566 C 70.4578 % 6.14 C
2544 08-04-2017 00:00:00 14.59887 C 63.6780 % 7.8 C
2545 09-04-2017 00:00:00 12.46215 C 72.6910 % 7.7 C
2546 10-04-2017 00:00:00 10.93993 C 75.5174 % 6.79 C
2547 11-04-2017 00:00:00 9.67188 C 68.7778 % 4.22 C
2548 12-04-2017 00:00:00 11.34167 C 67.3993 % 5.53 C
2549 13-04-2017 00:00:00 11.57153 C 68.3403 % 5.95 C
2550 14-04-2017 00:00:00 9.77708 C 68.5660 % 4.28 C
Sensor: Nr:Datum:Temp:Feuchte:Taupunkt:
Aussen-T/F 2551 15-04-2017 00:00:00 9.0875 C 81.6493 % 6.12 C
2552 16-04-2017 00:00:00 7.52083 C 79.0590 % 4.13 C
2553 17-04-2017 00:00:00 6.82257 C 84.8090 % 4.45 C
2554 18-04-2017 00:00:00 5.52187 C 80.9167 % 2.51 C
2555 19-04-2017 00:00:00 4.23646 C 70.6042 % -0.62 C
2556 20-04-2017 00:00:00 4.68715 C 68.7882 % -0.54 C
2557 21-04-2017 00:00:00 7.98299 C 70.7431 % 3 C
2558 22-04-2017 00:00:00 9.60278 C 72.4063 % 4.89 C
2559 23-04-2017 00:00:00 7.34722 C 68.6632 % 1.98 C
2560 24-04-2017 00:00:00 8.25764 C 68.6424 % 2.84 C
2561 25-04-2017 00:00:00 8.07118 C 68.6493 % 2.67 C
2562 26-04-2017 00:00:00 7.03611 C 68.0208 % 1.55 C
2563 27-04-2017 00:00:00 7.07917 C 67.6528 % 1.51 C
2564 28-04-2017 00:00:00 6.15972 C 79.5104 % 2.89 C
2565 29-04-2017 00:00:00 8.79132 C 71.5069 % 3.93 C
2566 30-04-2017 00:00:00 11.04896 C 60.7951 % 3.78 C
2567 01-05-2017 00:00:00 10.13576 C 85.0347 % 7.74 C
2568 02-05-2017 00:00:00 9.00868 C 95.4549 % 8.32 C
2569 03-05-2017 00:00:00 10.15694 C 90.6042 % 8.69 C
2570 04-05-2017 00:00:00 11.64722 C 89.7361 % 10.02 C
2571 05-05-2017 00:00:00 11.58021 C 81.0417 % 8.44 C
2572 06-05-2017 00:00:00 12.91042 C 78.0139 % 9.17 C
2573 07-05-2017 00:00:00 13.1434 C 93.6319 % 12.14 C
2574 08-05-2017 00:00:00 9.64306 C 86.9063 % 7.57 C
2575 09-05-2017 00:00:00 9.69931 C 70.4861 % 4.6 C
Sensor: Nr:Datum:Temp:Feuchte:Taupunkt:
Aussen-T/F 2576 10-05-2017 00:00:00 10.29583 C 70.5590 % 5.19 C
2577 11-05-2017 00:00:00 14.23542 C 73.0590 % 9.48 C
2578 12-05-2017 00:00:00 15.89479 C 85.6250 % 13.49 C
2579 13-05-2017 00:00:00 17.24514 C 75.3472 % 12.85 C
2580 14-05-2017 00:00:00 16.17049 C 80.8993 % 12.89 C
2581 15-05-2017 00:00:00 15.43403 C 72.0104 % 10.42 C
2582 16-05-2017 00:00:00 18.86458 C 61.2049 % 11.24 C
2583 17-05-2017 00:00:00 20.20243 C 65.0521 % 13.43 C
2584 18-05-2017 00:00:00 17.96042 C 84.5729 % 15.32 C
2585 19-05-2017 00:00:00 13.45694 C 96.0694 % 12.84 C
2586 20-05-2017 00:00:00 12.04375 C 83.9931 % 9.43 C
2587 21-05-2017 00:00:00 13.43889 C 75.2118 % 9.14 C
2588 22-05-2017 00:00:00 16.05417 C 73.8090 % 11.39 C
2589 23-05-2017 00:00:00 18.46736 C 69.4410 % 12.78 C
2590 24-05-2017 00:00:00 16.81771 C 73.7639 % 12.11 C
2591 25-05-2017 00:00:00 18.59167 C 70.2604 % 13.07 C
2592 26-05-2017 00:00:00 18.71042 C 70.8472 % 13.31 C
2593 27-05-2017 00:00:00 21.17049 C 66.6285 % 14.72 C
2594 28-05-2017 00:00:00 21.21493 C 78.3993 % 17.31 C
2595 29-05-2017 00:00:00 23.54271 C 75.5660 % 18.97 C
2596 30-05-2017 00:00:00 21.97847 C 74.9549 % 17.33 C
2597 31-05-2017 00:00:00 18.61667 C 68.5278 % 12.72 C
2598 01-06-2017 00:00:00 18.99792 C 71.5590 % 13.74 C
2599 02-06-2017 00:00:00 19.04583 C 83.6771 % 16.22 C
2600 03-06-2017 00:00:00 18.89236 C 93.4132 % 17.81 C
Sensor: Nr:Datum:Temp:Feuchte:Taupunkt:
Aussen-T/F 2601 04-06-2017 00:00:00 16.44306 C 84.5556 % 13.83 C
2602 05-06-2017 00:00:00 16.50278 C 76.9792 % 12.46 C
2603 06-06-2017 00:00:00 15.18958 C 77.8750 % 11.36 C
2604 07-06-2017 00:00:00 13.87778 C 75.5347 % 9.63 C
2605 08-06-2017 00:00:00 18.08924 C 68.5382 % 12.21 C
2606 09-06-2017 00:00:00 16.93299 C 81.6319 % 13.77 C
2607 10-06-2017 00:00:00 17.78368 C 70.4792 % 12.35 C
2608 11-06-2017 00:00:00 20.38229 C 71.8993 % 15.15 C
2609 12-06-2017 00:00:00 20.21667 C 59.4410 % 12.07 C
2610 13-06-2017 00:00:00 17.4059 C 67.4549 % 11.32 C
2611 14-06-2017 00:00:00 18.66597 C 69.6042 % 13 C
2612 15-06-2017 00:00:00 21.18299 C 70.3333 % 15.57 C
2613 16-06-2017 00:00:00 18.97743 C 62.8646 % 11.75 C
2614 17-06-2017 00:00:00 17.05035 C 76.4444 % 12.88 C
2615 18-06-2017 00:00:00 21.54514 C 69.8229 % 15.8 C
2616 19-06-2017 00:00:00 22.06667 C 64.3160 % 15.02 C
2617 20-06-2017 00:00:00 23.55069 C 62.5590 % 15.99 C
2618 21-06-2017 00:00:00 25.2191 C 62.1146 % 17.45 C
2619 22-06-2017 00:00:00 23.325 C 77.8264 % 19.23 C
2620 23-06-2017 00:00:00 22.47014 C 68.4063 % 16.36 C
2621 24-06-2017 00:00:00 20.09028 C 64.8924 % 13.28 C
2622 25-06-2017 00:00:00 20.12639 C 70.0938 % 14.51 C
2623 26-06-2017 00:00:00 21.1184 C 67.1667 % 14.79 C
2624 27-06-2017 00:00:00 18.80104 C 85.3229 % 16.29 C
2625 28-06-2017 00:00:00 19.80208 C 90.8299 % 18.26 C
Sensor: Nr:Datum:Temp:Feuchte:Taupunkt:
Aussen-T/F 2626 29-06-2017 00:00:00 17.97535 C 86.2396 % 15.64 C
2627 30-06-2017 00:00:00 17.41624 C 77.3875 % 13.42 C
2628 01-07-2017 00:00:00 16.45451 C 89.6250 % 14.74 C
2629 02-07-2017 00:00:00 16.87188 C 88.2361 % 14.91 C
2630 03-07-2017 00:00:00 17.94201 C 72.9201 % 13.02 C
2631 04-07-2017 00:00:00 19.98993 C 68.9375 % 14.12 C
2632 05-07-2017 00:00:00 21.5875 C 69.0903 % 15.68 C
2633 06-07-2017 00:00:00 21.41701 C 76.5278 % 17.12 C
2634 07-07-2017 00:00:00 23.46076 C 73.7674 % 18.51 C
2635 08-07-2017 00:00:00 22.5559 C 70.5035 % 16.92 C
2636 09-07-2017 00:00:00 22.69271 C 74.1007 % 17.84 C
2637 10-07-2017 00:00:00 19.75243 C 93.9792 % 18.76 C
2638 11-07-2017 00:00:00 19.33264 C 81.8993 % 16.16 C
2639 12-07-2017 00:00:00 17.22951 C 89.4514 % 15.48 C
2640 13-07-2017 00:00:00 15.53958 C 75.6667 % 11.26 C
2641 14-07-2017 00:00:00 16.34653 C 77.4965 % 12.41 C
2642 15-07-2017 00:00:00 16.46389 C 74.5417 % 11.93 C
2643 16-07-2017 00:00:00 19.03924 C 81.1215 % 15.73 C
2644 17-07-2017 00:00:00 20.61007 C 81.2743 % 17.29 C
2645 18-07-2017 00:00:00 21.7625 C 75.4965 % 17.24 C
2646 19-07-2017 00:00:00 23.46806 C 73.3090 % 18.42 C
2647 20-07-2017 00:00:00 21.83889 C 79.5764 % 18.15 C
2648 21-07-2017 00:00:00 20.14583 C 71.6979 % 14.88 C
2649 22-07-2017 00:00:00 21.77813 C 82.2743 % 18.62 C
2650 23-07-2017 00:00:00 18.27639 C 78.7153 % 14.52 C
Sensor: Nr:Datum:Temp:Feuchte:Taupunkt:
Aussen-T/F 2651 24-07-2017 00:00:00 14.9816 C 91.3681 % 13.59 C
2652 25-07-2017 00:00:00 14.46979 C 96.2014 % 13.87 C
2653 26-07-2017 00:00:00 17.50729 C 86.0139 % 15.14 C
2654 27-07-2017 00:00:00 18.9184 C 89.6250 % 17.18 C
2655 28-07-2017 00:00:00 17.14236 C 83.5694 % 14.34 C
2656 29-07-2017 00:00:00 20.44271 C 81.0174 % 17.07 C
2657 30-07-2017 00:00:00 22.74236 C 73.6667 % 17.8 C
2658 31-07-2017 00:00:00 20.73542 C 77.8750 % 16.74 C
2659 01-08-2017 00:00:00 19.90799 C 94.6424 % 19.02 C
2660 02-08-2017 00:00:00 21.09306 C 86.4688 % 18.75 C
2661 03-08-2017 00:00:00 21.32153 C 83.4271 % 18.4 C
2662 04-08-2017 00:00:00 20.4309 C 76.2500 % 16.11 C
2663 05-08-2017 00:00:00 18.99826 C 79.7326 % 15.42 C
2664 06-08-2017 00:00:00 17.06181 C 74.4028 % 12.48 C
2665 07-08-2017 00:00:00 17.21319 C 74.5313 % 12.65 C
2666 08-08-2017 00:00:00 17.34063 C 86.7500 % 15.11 C
2667 09-08-2017 00:00:00 17.64167 C 77.9826 % 13.76 C
2668 10-08-2017 00:00:00 15.45139 C 94.6771 % 14.6 C
2669 11-08-2017 00:00:00 14.99271 C 95.3889 % 14.26 C
2670 12-08-2017 00:00:00 15.39965 C 94.4688 % 14.52 C
2671 13-08-2017 00:00:00 18.25694 C 84.2813 % 15.56 C
2672 14-08-2017 00:00:00 18.07396 C 87.2535 % 15.92 C
2673 15-08-2017 00:00:00 18.78299 C 93.5243 % 17.72 C
2674 16-08-2017 00:00:00 19.80486 C 87.2847 % 17.63 C
2675 17-08-2017 00:00:00 19.18438 C 87.3125 % 17.02 C
Sensor: Nr:Datum:Temp:Feuchte:Taupunkt:
Aussen-T/F 2676 18-08-2017 00:00:00 18.28819 C 94.1632 % 17.33 C
2677 19-08-2017 00:00:00 14.62049 C 90.6076 % 13.1 C
2678 20-08-2017 00:00:00 14.85243 C 86.3993 % 12.6 C
2679 21-08-2017 00:00:00 15.85833 C 82.2049 % 12.83 C
2680 22-08-2017 00:00:00 15.7316 C 84.9097 % 13.2 C
2681 23-08-2017 00:00:00 17.82812 C 84.2535 % 15.14 C
2682 24-08-2017 00:00:00 19.30625 C 82.1632 % 16.19 C
2683 25-08-2017 00:00:00 18.12049 C 89.3993 % 16.35 C
2684 26-08-2017 00:00:00 20.59861 C 92.9132 % 19.41 C
2685 27-08-2017 00:00:00 19.43507 C 89.5035 % 17.66 C
2686 28-08-2017 00:00:00 19.49063 C 85.7882 % 17.05 C
2687 29-08-2017 00:00:00 19.97986 C 86.3507 % 17.63 C
2688 30-08-2017 00:00:00 20.58819 C 89.0903 % 18.73 C
2689 31-08-2017 00:00:00 17.03194 C 87.1493 % 14.88 C
2690 01-09-2017 00:00:00 13.72639 C 88.3785 % 11.84 C
2691 02-09-2017 00:00:00 14.2625 C 89.4271 % 12.55 C
2692 03-09-2017 00:00:00 13.22257 C 87.7743 % 11.24 C
2693 04-09-2017 00:00:00 13.75208 C 90.0313 % 12.15 C
2694 05-09-2017 00:00:00 17.85347 C 90.3160 % 16.25 C
2695 06-09-2017 00:00:00 17.36389 C 78.5868 % 13.61 C
2696 07-09-2017 00:00:00 15.38472 C 80.6389 % 12.08 C
2697 08-09-2017 00:00:00 15.88958 C 80.7917 % 12.6 C
2698 09-09-2017 00:00:00 14.59236 C 91.5764 % 13.24 C
2699 10-09-2017 00:00:00 13.23924 C 88.7951 % 11.43 C
2700 11-09-2017 00:00:00 14.41667 C 84.9861 % 11.93 C
Sensor: Nr:Datum:Temp:Feuchte:Taupunkt:
Aussen-T/F 2701 12-09-2017 00:00:00 14.27674 C 84.4097 % 11.69 C
2702 13-09-2017 00:00:00 14.43993 C 87.5729 % 12.4 C
2703 14-09-2017 00:00:00 11.98194 C 92.1076 % 10.74 C
2704 15-09-2017 00:00:00 12.37917 C 88.0347 % 10.46 C
2705 16-09-2017 00:00:00 10.41007 C 88.3021 % 8.56 C
2706 17-09-2017 00:00:00 9.97118 C 94.9861 % 9.21 C
2707 18-09-2017 00:00:00 10.50764 C 90.8785 % 9.08 C
2708 19-09-2017 00:00:00 11.95903 C 92.7049 % 10.82 C
2709 20-09-2017 00:00:00 11.3184 C 92.6076 % 10.17 C
2710 21-09-2017 00:00:00 10.7559 C 92.2222 % 9.55 C
2711 22-09-2017 00:00:00 11.39757 C 92.7222 % 10.26 C
2712 23-09-2017 00:00:00 13.63785 C 89.4965 % 11.94 C
2713 24-09-2017 00:00:00 12.54826 C 93.5660 % 11.54 C
2714 25-09-2017 00:00:00 12.85729 C 92.9514 % 11.75 C
2715 26-09-2017 00:00:00 13.54097 C 92.1389 % 12.29 C
2716 27-09-2017 00:00:00 13.15069 C 94.1597 % 12.23 C
2717 28-09-2017 00:00:00 14.79861 C 93.9063 % 13.83 C
2718 29-09-2017 00:00:00 17.64722 C 91.7083 % 16.28 C
2719 30-09-2017 00:00:00 14.56597 C 95.2326 % 13.81 C
2720 01-10-2017 00:00:00 11.45937 C 95.0451 % 10.69 C
2721 02-10-2017 00:00:00 14.42951 C 92.9132 % 13.3 C
2722 03-10-2017 00:00:00 12.49618 C 88.9201 % 10.72 C
2723 04-10-2017 00:00:00 11.37812 C 88.0972 % 9.48 C
2724 05-10-2017 00:00:00 12.35868 C 85.7847 % 10.05 C
2725 06-10-2017 00:00:00 9.83438 C 91.6285 % 8.54 C
Sensor: Nr:Datum:Temp:Feuchte:Taupunkt:
Aussen-T/F 2726 07-10-2017 00:00:00 10.24653 C 89.7535 % 8.64 C
2727 08-10-2017 00:00:00 11.93993 C 93.6181 % 10.94 C
2728 09-10-2017 00:00:00 11.42222 C 93.6285 % 10.43 C
2729 10-10-2017 00:00:00 13.19062 C 93.1424 % 12.11 C
2730 11-10-2017 00:00:00 13.59722 C 90.6111 % 12.09 C
2731 12-10-2017 00:00:00 13.7684 C 84.9618 % 11.29 C
2732 13-10-2017 00:00:00 14.15556 C 91.8646 % 12.85 C
2733 14-10-2017 00:00:00 13.13611 C 95.3750 % 12.41 C
2734 15-10-2017 00:00:00 12.53021 C 95.9410 % 11.9 C
2735 16-10-2017 00:00:00 13.45347 C 95.6215 % 12.77 C
2736 17-10-2017 00:00:00 13.09201 C 95.8299 % 12.44 C
2737 18-10-2017 00:00:00 12.20313 C 95.8264 % 11.56 C
2738 19-10-2017 00:00:00 11.5059 C 95.8472 % 10.87 C
2739 20-10-2017 00:00:00 10.5122 C 88.5610 % 8.71 C
2740 21-10-2017 00:00:00 11.76076 C 91.4410 % 10.41 C
2741 22-10-2017 00:00:00 10.78507 C 85.4340 % 8.44 C
2742 23-10-2017 00:00:00 10.79653 C 87.4826 % 8.8 C
2743 24-10-2017 00:00:00 13.69826 C 91.2465 % 12.3 C
2744 25-10-2017 00:00:00 15.51111 C 87.4271 % 13.43 C
2745 26-10-2017 00:00:00 13.26736 C 91.1389 % 11.85 C
2746 27-10-2017 00:00:00 11.49132 C 89.5660 % 9.84 C
2747 28-10-2017 00:00:00 10.36076 C 83.1944 % 7.64 C
2748 29-10-2017 00:00:00 10.65694 C 82.5243 % 7.81 C
2749 30-10-2017 00:00:00 7.17326 C 85.5243 % 4.91 C
2750 31-10-2017 00:00:00 7.26806 C 85.6944 % 5.04 C
Sensor: Nr:Datum:Temp:Feuchte:Taupunkt:
Aussen-T/F 2751 01-11-2017 00:00:00 8.73021 C 85.5313 % 6.44 C
2752 02-11-2017 00:00:00 8.66389 C 87.8333 % 6.76 C
2753 03-11-2017 00:00:00 7.17014 C 93.6285 % 6.21 C
2754 04-11-2017 00:00:00 8.34132 C 94.7292 % 7.55 C
2755 05-11-2017 00:00:00 8.89965 C 92.2083 % 7.71 C
2756 06-11-2017 00:00:00 5.51424 C 92.8542 % 4.45 C
2757 07-11-2017 00:00:00 4.45868 C 95.0833 % 3.74 C
2758 08-11-2017 00:00:00 6.63854 C 96.5035 % 6.12 C
2759 09-11-2017 00:00:00 7.54028 C 95.7569 % 6.91 C
2760 10-11-2017 00:00:00 7.46563 C 90.7535 % 6.06 C
2761 11-11-2017 00:00:00 6.4559 C 93.8090 % 5.53 C
2762 12-11-2017 00:00:00 4.6809 C 96.1632 % 4.12 C
2763 13-11-2017 00:00:00 5.61111 C 92.8125 % 4.54 C
2764 14-11-2017 00:00:00 4.67951 C 94.3785 % 3.86 C
2765 15-11-2017 00:00:00 6.91389 C 90.0799 % 5.4 C
2766 16-11-2017 00:00:00 4.84201 C 93.1424 % 3.83 C
2767 17-11-2017 00:00:00 6.01007 C 95.7535 % 5.38 C
2768 18-11-2017 00:00:00 3.55278 C 91.3403 % 2.28 C
2769 19-11-2017 00:00:00 5.66389 C 89.5764 % 4.09 C
2770 20-11-2017 00:00:00 5.24618 C 91.6250 % 4 C
2771 21-11-2017 00:00:00 9.24063 C 90.6597 % 7.79 C
2772 22-11-2017 00:00:00 8.26528 C 88.1146 % 6.42 C
2773 23-11-2017 00:00:00 9.3059 C 88.0486 % 7.43 C
2774 24-11-2017 00:00:00 10.45451 C 92.4028 % 9.28 C
2775 25-11-2017 00:00:00 5.3059 C 95.5521 % 4.65 C
Sensor: Nr:Datum:Temp:Feuchte:Taupunkt:
Aussen-T/F 2776 26-11-2017 00:00:00 3.77986 C 88.7986 % 2.11 C
2777 27-11-2017 00:00:00 5.66632 C 87.1875 % 3.71 C
2778 28-11-2017 00:00:00 4.26181 C 94.5347 % 3.46 C
2779 29-11-2017 00:00:00 3.03576 C 95.4618 % 2.38 C
2780 30-11-2017 00:00:00 2.44201 C 95.3958 % 1.78 C
2781 01-12-2017 00:00:00 1.13021 C 95.6389 % 0.51 C
2782 02-12-2017 00:00:00 0.97604 C 94.2361 % 0.16 C
2783 03-12-2017 00:00:00 0.67674 C 93.3958 % -0.26 C
2784 04-12-2017 00:00:00 3.2816 C 95.5799 % 2.64 C
2785 05-12-2017 00:00:00 4.74826 C 93.4792 % 3.79 C
2786 06-12-2017 00:00:00 5.89792 C 90.1493 % 4.41 C
2787 07-12-2017 00:00:00 4.77986 C 86.2465 % 2.68 C
2788 08-12-2017 00:00:00 3.52014 C 88.7153 % 1.84 C
2789 09-12-2017 00:00:00 1.27569 C 83.4618 % -1.21 C
2790 10-12-2017 00:00:00 2.40903 C 88.7049 % 0.74 C
2791 11-12-2017 00:00:00 6.02118 C 93.7708 % 5.1 C
2792 12-12-2017 00:00:00 3.72292 C 84.9792 % 1.44 C
2793 13-12-2017 00:00:00 3.81597 C 89.6875 % 2.28 C
2794 14-12-2017 00:00:00 4.58611 C 90.0625 % 3.1 C
2795 15-12-2017 00:00:00 2.98611 C 95.5903 % 2.35 C
2796 16-12-2017 00:00:00 3.04167 C 95.9618 % 2.46 C
2797 17-12-2017 00:00:00 3.05208 C 92.1076 % 1.9 C
2798 18-12-2017 00:00:00 1.66944 C 95.4444 % 1.02 C
2799 19-12-2017 00:00:00 3.35556 C 97.1146 % 2.94 C
2800 20-12-2017 00:00:00 5.65625 C 97.6389 % 5.31 C
Sensor: Nr:Datum:Temp:Feuchte:Taupunkt:
Aussen-T/F 2801 21-12-2017 00:00:00 7.51667 C 97.5556 % 7.16 C
2802 22-12-2017 00:00:00 8.8125 C 97.8889 % 8.5 C
2803 23-12-2017 00:00:00 8.76389 C 93.7813 % 7.82 C
2804 24-12-2017 00:00:00 8.92292 C 88.6319 % 7.15 C
2805 25-12-2017 00:00:00 6.77708 C 85.7292 % 4.56 C
2806 26-12-2017 00:00:00 4.68299 C 90.7431 % 3.3 C
2807 27-12-2017 00:00:00 5.13993 C 92.8854 % 4.09 C
2808 28-12-2017 00:00:00 3.24826 C 88.2396 % 1.49 C
2809 29-12-2017 00:00:00 2.41944 C 88.1667 % 0.67 C
2810 30-12-2017 00:00:00 7.77187 C 90.7882 % 6.36 C
2811 31-12-2017 00:00:00 12.74549 C 82.5729 % 9.86 C
2812 01-01-2018 00:00:00 7.71458 C 84.2153 % 5.22 C
2813 02-01-2018 00:00:00 6.21076 C 88.1979 % 4.41 C
2814 03-01-2018 00:00:00 8.40313 C 84.5174 % 5.95 C
2815 04-01-2018 00:00:00 8.24792 C 89.7014 % 6.66 C
2816 05-01-2018 00:00:00 8.32257 C 89.6424 % 6.72 C
2817 06-01-2018 00:00:00 6.22188 C 96.7917 % 5.75 C
2818 07-01-2018 00:00:00 5.11458 C 92.0417 % 3.93 C
2819 08-01-2018 00:00:00 4.61597 C 89.1007 % 2.98 C
2820 09-01-2018 00:00:00 5.0191 C 93.0521 % 3.99 C
2821 10-01-2018 00:00:00 6.95243 C 92.3472 % 5.8 C
2822 11-01-2018 00:00:00 6.99653 C 95.0660 % 6.26 C
2823 12-01-2018 00:00:00 6.57708 C 95.7674 % 5.95 C
2824 13-01-2018 00:00:00 5.39062 C 89.7813 % 3.85 C
2825 14-01-2018 00:00:00 2.95174 C 85.5208 % 0.77 C
Sensor: Nr:Datum:Temp:Feuchte:Taupunkt:
Aussen-T/F 2826 15-01-2018 00:00:00 3.65833 C 91.1181 % 2.35 C
2827 16-01-2018 00:00:00 6.14618 C 85.7569 % 3.94 C
2828 17-01-2018 00:00:00 3.45868 C 86.7569 % 1.47 C
2829 18-01-2018 00:00:00 5.94167 C 81.9479 % 3.1 C
2830 19-01-2018 00:00:00 3.96146 C 86.6771 % 1.95 C
2831 20-01-2018 00:00:00 3.05937 C 91.0486 % 1.74 C
2832 21-01-2018 00:00:00 2.72951 C 93.5451 % 1.8 C
2833 22-01-2018 00:00:00 5.11563 C 93.7708 % 4.2 C
2834 23-01-2018 00:00:00 7.37049 C 88.6250 % 5.62 C
2835 24-01-2018 00:00:00 11.38021 C 86.3785 % 9.19 C
2836 25-01-2018 00:00:00 9.87465 C 92.0243 % 8.64 C
2837 26-01-2018 00:00:00 6.62222 C 95.7396 % 5.99 C
2838 27-01-2018 00:00:00 4.73299 C 95.1771 % 4.03 C
2839 28-01-2018 00:00:00 7.29028 C 89.6285 % 5.7 C
2840 29-01-2018 00:00:00 9.82882 C 85.7674 % 7.56 C
2841 30-01-2018 00:00:00 5.41111 C 90.5104 % 3.99 C
2842 31-01-2018 00:00:00 7.52153 C 91.0938 % 6.16 C
2843 01-02-2018 00:00:00 3.10243 C 90.1632 % 1.65 C
2844 02-02-2018 00:00:00 3.41285 C 90.8958 % 2.07 C
2845 03-02-2018 00:00:00 3.47118 C 87.7292 % 1.63 C
2846 04-02-2018 00:00:00 1.1434 C 87.0208 % -0.77 C
2847 05-02-2018 00:00:00 0.32431 C 82.9236 % -2.23 C
2848 06-02-2018 00:00:00 -0.78056 C 89.0174 % -2.36 C
2849 07-02-2018 00:00:00 -0.06111 C 91.5799 % -1.26 C
2850 08-02-2018 00:00:00 -2.18819 C 88.7396 % -3.79 C
Sensor: Nr:Datum:Temp:Feuchte:Taupunkt:
Aussen-T/F 2851 09-02-2018 00:00:00 -1.96007 C 92.3854 % -3.03 C
2852 10-02-2018 00:00:00 2.22257 C 88.0660 % 0.46 C
2853 11-02-2018 00:00:00 3.32535 C 86.3333 % 1.27 C
2854 12-02-2018 00:00:00 2.1059 C 85.9479 % 0.01 C
2855 13-02-2018 00:00:00 -0.32674 C 85.2257 % -2.5 C
2856 14-02-2018 00:00:00 -1.52222 C 83.5069 % -3.95 C
2857 15-02-2018 00:00:00 1.83299 C 89.2535 % 0.26 C
2858 16-02-2018 00:00:00 2.01597 C 96.2500 % 1.48 C
2859 17-02-2018 00:00:00 0.40521 C 93.6354 % -0.5 C
2860 18-02-2018 00:00:00 -1.01701 C 92.6701 % -2.05 C
2861 19-02-2018 00:00:00 1.11667 C 88.7049 % -0.53 C
2862 20-02-2018 00:00:00 0.74271 C 87.0313 % -1.16 C
2863 21-02-2018 00:00:00 1.21181 C 77.1493 % -2.34 C
2864 22-02-2018 00:00:00 -0.03507 C 74.0938 % -4.09 C
2865 23-02-2018 00:00:00 -0.725 C 62.2674 % -7.03 C
2866 24-02-2018 00:00:00 -1.57049 C 63.0625 % -7.67 C
2867 25-02-2018 00:00:00 -2.70729 C 52.6701 % -11.03 C
2868 26-02-2018 00:00:00 -4.18854 C 66.9375 % -9.4 C
2869 27-02-2018 00:00:00 -6.00417 C 70.8264 % -10.43 C
2870 28-02-2018 00:00:00 -6.7066 C 65.9757 % -11.99 C
2871 01-03-2018 00:00:00 -2.91424 C 54.5035 % -10.79 C
2872 02-03-2018 00:00:00 -2.40208 C 62.9826 % -8.48 C
2873 03-03-2018 00:00:00 -0.40937 C 89.6736 % -1.89 C
2874 04-03-2018 00:00:00 4.02986 C 90.9965 % 2.7 C
2875 05-03-2018 00:00:00 5.96979 C 85.9965 % 3.81 C
Sensor: Nr:Datum:Temp:Feuchte:Taupunkt:
Aussen-T/F 2876 06-03-2018 00:00:00 4.90694 C 86.9583 % 2.92 C
2877 07-03-2018 00:00:00 5.39792 C 90.0556 % 3.9 C
2878 08-03-2018 00:00:00 6.19653 C 83.8368 % 3.67 C
2879 09-03-2018 00:00:00 5.56528 C 93.9514 % 4.67 C
2880 10-03-2018 00:00:00 10.03125 C 92.4792 % 8.87 C
2881 11-03-2018 00:00:00 10.51493 C 91.3854 % 9.17 C
2882 12-03-2018 00:00:00 9.7 C 90.2813 % 8.19 C
2883 13-03-2018 00:00:00 7.76667 C 88.1215 % 5.93 C
2884 14-03-2018 00:00:00 6.86458 C 83.6076 % 4.29 C
2885 15-03-2018 00:00:00 6.40382 C 83.6319 % 3.84 C
2886 16-03-2018 00:00:00 7.64097 C 94.7813 % 6.86 C
2887 17-03-2018 00:00:00 -0.44516 C 83.0573 % -2.96 C
2888 18-03-2018 00:00:00 -1.64028 C 75.3299 % -5.42 C
2889 19-03-2018 00:00:00 -0.54479 C 65.7778 % -6.15 C
2890 20-03-2018 00:00:00 0.29653 C 73.5035 % -3.87 C
2891 21-03-2018 00:00:00 1.2059 C 76.4132 % -2.47 C
2892 22-03-2018 00:00:00 3.06319 C 89.6667 % 1.54 C
2893 23-03-2018 00:00:00 6.14028 C 89.0799 % 4.48 C
2894 24-03-2018 00:00:00 5.20069 C 79.8715 % 2.02 C
2895 25-03-2018 00:00:00 5.42862 C 76.5217 % 1.64 C
2896 26-03-2018 00:00:00 7.61146 C 73.0313 % 3.1 C
2897 27-03-2018 00:00:00 5.82222 C 83.6181 % 3.27 C
2898 28-03-2018 00:00:00 8.50799 C 92.0278 % 7.29 C
2899 29-03-2018 00:00:00 7.11424 C 75.6701 % 3.12 C
2900 30-03-2018 00:00:00 6.82813 C 81.6910 % 3.92 C
Sensor: Nr:Datum:Temp:Feuchte:Taupunkt:
Aussen-T/F 2901 31-03-2018 00:00:00 8.09792 C 78.7083 % 4.63 C
2902 01-04-2018 00:00:00 7.66979 C 81.5451 % 4.72 C
2903 02-04-2018 00:00:00 8.78611 C 74.8715 % 4.58 C
2904 03-04-2018 00:00:00 13.35 C 67.7257 % 7.51 C
2905 04-04-2018 00:00:00 11.17187 C 85.0486 % 8.76 C
2906 05-04-2018 00:00:00 8.16042 C 84.2049 % 5.66 C
2907 06-04-2018 00:00:00 6.97187 C 72.9167 % 2.46 C
2908 07-04-2018 00:00:00 12.50035 C 66.5174 % 6.44 C
2909 08-04-2018 00:00:00 14.90417 C 67.3368 % 8.91 C
2910 09-04-2018 00:00:00 13.73333 C 72.7188 % 8.93 C
2911 10-04-2018 00:00:00 13.3816 C 78.1875 % 9.66 C
2912 11-04-2018 00:00:00 11.50035 C 87.5035 % 9.5 C
2913 12-04-2018 00:00:00 13.06493 C 80.5000 % 9.79 C
2914 13-04-2018 00:00:00 10.32188 C 88.1458 % 8.45 C
2915 14-04-2018 00:00:00 13.08403 C 76.3056 % 9.01 C
2916 15-04-2018 00:00:00 14.37465 C 81.8542 % 11.32 C
2917 16-04-2018 00:00:00 13.42882 C 78.5417 % 9.78 C
2918 17-04-2018 00:00:00 13.72569 C 74.7569 % 9.33 C
2919 18-04-2018 00:00:00 15.73264 C 69.7882 % 10.23 C
2920 19-04-2018 00:00:00 17.21806 C 66.2847 % 10.88 C
2921 20-04-2018 00:00:00 17.08681 C 67.8229 % 11.1 C
2922 21-04-2018 00:00:00 18.09931 C 71.2639 % 12.82 C
2923 22-04-2018 00:00:00 18.53681 C 73.1042 % 13.63 C
2924 23-04-2018 00:00:00 18.01181 C 70.6181 % 12.6 C
2925 24-04-2018 00:00:00 14.03854 C 72.5938 % 9.2 C
Sensor: Nr:Datum:Temp:Feuchte:Taupunkt:
Aussen-T/F 2926 25-04-2018 00:00:00 13.47917 C 75.5694 % 9.25 C
2927 26-04-2018 00:00:00 11.09167 C 65.0868 % 4.79 C
2928 27-04-2018 00:00:00 11.96181 C 67.8333 % 6.21 C
2929 28-04-2018 00:00:00 12.62917 C 72.8854 % 7.9 C
2930 29-04-2018 00:00:00 14.24792 C 85.8194 % 11.91 C
2931 30-04-2018 00:00:00 13.44931 C 77.7604 % 9.65 C
2932 01-05-2018 00:00:00 9.59063 C 69.6354 % 4.32 C
2933 02-05-2018 00:00:00 9.44549 C 75.6910 % 5.38 C
2934 03-05-2018 00:00:00 12.35347 C 68.5729 % 6.74 C
2935 04-05-2018 00:00:00 13.14618 C 65.4722 % 6.83 C
2936 05-05-2018 00:00:00 15.50764 C 61.2708 % 8.09 C
2937 06-05-2018 00:00:00 17.0059 C 57.6563 % 8.6 C
2938 07-05-2018 00:00:00 17.60312 C 61.7674 % 10.19 C
2939 08-05-2018 00:00:00 18.08264 C 62.5556 % 10.83 C
2940 09-05-2018 00:00:00 17.125 C 71.3160 % 11.89 C
2941 10-05-2018 00:00:00 14.09271 C 87.0729 % 11.98 C
2942 11-05-2018 00:00:00 14.47951 C 77.2778 % 10.55 C
2943 12-05-2018 00:00:00 16.39236 C 75.1597 % 11.99 C
2944 13-05-2018 00:00:00 14.62278 C 93.1317 % 13.53 C
2945 14-05-2018 00:00:00 16.77361 C 89.0556 % 14.96 C
2946 15-05-2018 00:00:00 15.91597 C 75.1875 % 11.53 C
2947 16-05-2018 00:00:00 15.4941 C 83.2118 % 12.66 C
2948 17-05-2018 00:00:00 13.78333 C 73.6285 % 9.16 C
2949 18-05-2018 00:00:00 12.14792 C 74.4757 % 7.75 C
2950 19-05-2018 00:00:00 13.63299 C 73.7118 % 9.03 C
Sensor: Nr:Datum:Temp:Feuchte:Taupunkt:
Aussen-T/F 2951 20-05-2018 00:00:00 14.00278 C 84.2917 % 11.4 C
2952 21-05-2018 00:00:00 17.43819 C 78.1806 % 13.6 C
2953 22-05-2018 00:00:00 16.97917 C 82.6944 % 14.02 C
2954 23-05-2018 00:00:00 17.30243 C 88.5104 % 15.39 C
2955 24-05-2018 00:00:00 17.125 C 87.8507 % 15.1 C
2956 25-05-2018 00:00:00 19.81944 C 80.2535 % 16.32 C
2957 26-05-2018 00:00:00 20.84826 C 76.3958 % 16.54 C
2958 27-05-2018 00:00:00 20.3191 C 81.4236 % 17.03 C
2959 28-05-2018 00:00:00 21.47083 C 81.6424 % 18.2 C
2960 29-05-2018 00:00:00 20.77292 C 85.9514 % 18.34 C
2961 30-05-2018 00:00:00 21.53403 C 77.5799 % 17.45 C
2962 31-05-2018 00:00:00 22.62083 C 74.5313 % 17.86 C
2963 01-06-2018 00:00:00 19.10729 C 88.6667 % 17.19 C
2964 02-06-2018 00:00:00 19.22917 C 81.5243 % 15.99 C
2965 03-06-2018 00:00:00 19.42708 C 77.5903 % 15.41 C
2966 04-06-2018 00:00:00 20.95938 C 74.2257 % 16.2 C
2967 05-06-2018 00:00:00 20.70035 C 77.2569 % 16.58 C
2968 06-06-2018 00:00:00 21.09375 C 74.2222 % 16.33 C
2969 07-06-2018 00:00:00 21.15174 C 80.5868 % 17.68 C
2970 08-06-2018 00:00:00 20.94375 C 84.2361 % 18.18 C
2971 09-06-2018 00:00:00 21.9125 C 83.9896 % 19.08 C
2972 10-06-2018 00:00:00 21.38239 C 86.1831 % 18.98 C
2973 11-06-2018 00:00:00 19.19444 C 93.4549 % 18.11 C
2974 12-06-2018 00:00:00 16.41979 C 90.3194 % 14.83 C
2975 13-06-2018 00:00:00 14.8941 C 79.6285 % 11.41 C
Sensor: Nr:Datum:Temp:Feuchte:Taupunkt:
Aussen-T/F 2976 14-06-2018 00:00:00 14.94132 C 80.6806 % 11.65 C
2977 15-06-2018 00:00:00 17.84236 C 88.0243 % 15.83 C
2978 16-06-2018 00:00:00 19.99306 C 78.6493 % 16.17 C
2979 17-06-2018 00:00:00 17.94167 C 75.1979 % 13.49 C
2980 18-06-2018 00:00:00 17.81667 C 77.9757 % 13.93 C
2981 19-06-2018 00:00:00 18.89201 C 84.5799 % 16.24 C
2982 20-06-2018 00:00:00 23.07639 C 72.0069 % 17.75 C
2983 21-06-2018 00:00:00 17.92639 C 69.4514 % 12.26 C
2984 22-06-2018 00:00:00 13.74097 C 68.4549 % 8.04 C
2985 23-06-2018 00:00:00 13.76424 C 76.4514 % 9.7 C
2986 24-06-2018 00:00:00 15.88264 C 72.8299 % 11.02 C
2987 25-06-2018 00:00:00 17.09201 C 78.1806 % 13.26 C
2988 26-06-2018 00:00:00 17.67396 C 74.6806 % 13.13 C
2989 27-06-2018 00:00:00 19.15694 C 67.6979 % 13.05 C
2990 28-06-2018 00:00:00 20.71076 C 61.1806 % 12.97 C
2991 29-06-2018 00:00:00 24.11424 C 56.0451 % 14.8 C
2992 30-06-2018 00:00:00 22.06215 C 56.9201 % 13.13 C
2993 01-07-2018 00:00:00 20.86597 C 42.7396 % 7.74 C
2994 02-07-2018 00:00:00 20.44792 C 45.9861 % 8.44 C
2995 03-07-2018 00:00:00 20.73299 C 50.1319 % 9.98 C
2996 04-07-2018 00:00:00 18.84167 C 80.7778 % 15.47 C
2997 05-07-2018 00:00:00 19.41111 C 88.5799 % 17.48 C
2998 06-07-2018 00:00:00 20.03056 C 75.7014 % 15.61 C
2999 07-07-2018 00:00:00 20.66701 C 67.2326 % 14.38 C
3000 08-07-2018 00:00:00 19.71181 C 58.3160 % 11.3 C
Sensor: Nr:Datum:Temp:Feuchte:Taupunkt:
Aussen-T/F 3001 09-07-2018 00:00:00 19.32361 C 67.3299 % 13.12 C
3002 10-07-2018 00:00:00 17.13715 C 73.0729 % 12.28 C
3003 11-07-2018 00:00:00 16.10729 C 82.2396 % 13.08 C
3004 12-07-2018 00:00:00 19.59688 C 80.3924 % 16.13 C
3005 13-07-2018 00:00:00 19.71166 C 77.4240 % 15.65 C
3006 14-07-2018 00:00:00 21.51493 C 67.9236 % 15.34 C
3007 15-07-2018 00:00:00 21.63021 C 64.0521 % 14.54 C
3008 16-07-2018 00:00:00 22.30868 C 61.5347 % 14.56 C
3009 17-07-2018 00:00:00 21.01771 C 65.8507 % 14.39 C
3010 18-07-2018 00:00:00 20.29479 C 65.8750 % 13.71 C
3011 19-07-2018 00:00:00 20.92431 C 60.5069 % 13 C
3012 20-07-2018 00:00:00 21.5559 C 61.6319 % 13.88 C
3013 21-07-2018 00:00:00 20.6125 C 77.3958 % 16.52 C
3014 22-07-2018 00:00:00 21.61458 C 70.0486 % 15.92 C
3015 23-07-2018 00:00:00 22.37917 C 67.0868 % 15.97 C
3016 24-07-2018 00:00:00 23.70278 C 63.7465 % 16.43 C
3017 25-07-2018 00:00:00 25.50069 C 57.3160 % 16.44 C
3018 26-07-2018 00:00:00 27.18785 C 54.2326 % 17.14 C
3019 27-07-2018 00:00:00 26.11146 C 50.4861 % 15.03 C
3020 28-07-2018 00:00:00 21.97743 C 76.3924 % 17.63 C
3021 29-07-2018 00:00:00 23.50521 C 66.0451 % 16.8 C
3022 30-07-2018 00:00:00 24.29931 C 64.4410 % 17.16 C
3023 31-07-2018 00:00:00 25.46875 C 61.9722 % 17.65 C
3024 01-08-2018 00:00:00 20.74271 C 87.4931 % 18.59 C
3025 02-08-2018 00:00:00 23.73056 C 74.2257 % 18.87 C
Sensor: Nr:Datum:Temp:Feuchte:Taupunkt:
Aussen-T/F 3026 03-08-2018 00:00:00 26.4684 C 61.0278 % 18.34 C
3027 04-08-2018 00:00:00 26.38714 C 57.9821 % 17.45 C
3028 05-08-2018 00:00:00 24.70486 C 59.6424 % 16.32 C
3029 06-08-2018 00:00:00 24.16944 C 57.6563 % 15.29 C
3030 07-08-2018 00:00:00 26.73646 C 55.5104 % 17.09 C
3031 08-08-2018 00:00:00 25.29618 C 61.3021 % 17.31 C
3032 09-08-2018 00:00:00 20.57778 C 82.7639 % 17.54 C
3033 10-08-2018 00:00:00 18.35486 C 65.3924 % 11.76 C
3034 11-08-2018 00:00:00 18.37083 C 59.8611 % 10.44 C
3035 12-08-2018 00:00:00 18.15451 C 63.0729 % 11.02 C
3036 13-08-2018 00:00:00 17.68854 C 81.8924 % 14.56 C
3037 14-08-2018 00:00:00 18.53958 C 84.6563 % 15.91 C
3038 15-08-2018 00:00:00 19.375 C 79.2465 % 15.69 C
3039 16-08-2018 00:00:00 20.74444 C 71.2743 % 15.36 C
3040 17-08-2018 00:00:00 19.75903 C 76.6632 % 15.54 C
3041 18-08-2018 00:00:00 18.88785 C 68.7326 % 13.02 C
3042 19-08-2018 00:00:00 20.30521 C 67.4132 % 14.07 C
3043 20-08-2018 00:00:00 20.84444 C 73.5938 % 15.95 C
3044 21-08-2018 00:00:00 21.96979 C 70.6528 % 16.39 C
3045 22-08-2018 00:00:00 23.24757 C 65.7500 % 16.48 C
3046 23-08-2018 00:00:00 22.88681 C 69.0660 % 16.91 C
3047 24-08-2018 00:00:00 19.03368 C 65.5556 % 12.44 C
3048 25-08-2018 00:00:00 14.525 C 69.8438 % 9.09 C
3049 26-08-2018 00:00:00 13.80556 C 67.7882 % 7.96 C
3050 27-08-2018 00:00:00 18.12604 C 70.1493 % 12.6 C
Sensor: Nr:Datum:Temp:Feuchte:Taupunkt:
Aussen-T/F 3051 28-08-2018 00:00:00 18.12917 C 67.6632 % 12.06 C
3052 29-08-2018 00:00:00 17.15556 C 80.1528 % 13.71 C
3053 30-08-2018 00:00:00 17.22778 C 75.0799 % 12.78 C
3054 31-08-2018 00:00:00 15.05521 C 72.2951 % 10.11 C
3055 01-09-2018 00:00:00 14.30833 C 69.0799 % 8.72 C
3056 02-09-2018 00:00:00 14.27188 C 76.5347 % 10.21 C
3057 03-09-2018 00:00:00 18.05417 C 80.5556 % 14.66 C
3058 04-09-2018 00:00:00 20.01736 C 79.3507 % 16.33 C
3059 05-09-2018 00:00:00 20.91701 C 73.3229 % 15.97 C
3060 06-09-2018 00:00:00 18.07014 C 87.7049 % 16 C
3061 07-09-2018 00:00:00 15.72639 C 86.9479 % 13.56 C
3062 08-09-2018 00:00:00 13.53889 C 76.5139 % 9.49 C
3063 09-09-2018 00:00:00 16.94236 C 70.6667 % 11.58 C
3064 10-09-2018 00:00:00 17.5 C 71.7396 % 12.34 C
3065 11-09-2018 00:00:00 18.85868 C 70.4028 % 13.36 C
3066 12-09-2018 00:00:00 19.08646 C 71.2882 % 13.77 C
3067 13-09-2018 00:00:00 16.3625 C 85.6632 % 13.96 C
3068 14-09-2018 00:00:00 16.95174 C 71.3056 % 11.73 C
3069 15-09-2018 00:00:00 15.14028 C 70.3368 % 9.78 C
3070 16-09-2018 00:00:00 14.7184 C 71.4063 % 9.6 C
3071 17-09-2018 00:00:00 16.79306 C 68.7813 % 11.03 C
3072 18-09-2018 00:00:00 19.05208 C 70.2292 % 13.51 C
3073 19-09-2018 00:00:00 20.67951 C 71.7535 % 15.4 C
3074 20-09-2018 00:00:00 19.17153 C 72.3785 % 14.09 C
3075 21-09-2018 00:00:00 15.93472 C 78.7778 % 12.26 C
Sensor: Nr:Datum:Temp:Feuchte:Taupunkt:
Aussen-T/F 3076 22-09-2018 00:00:00 12.7566 C 77.2465 % 8.88 C
3077 23-09-2018 00:00:00 12.33056 C 94.4167 % 11.46 C
3078 24-09-2018 00:00:00 9.92396 C 85.7674 % 7.66 C
3079 25-09-2018 00:00:00 8.38785 C 85.7431 % 6.14 C
3080 26-09-2018 00:00:00 8.82917 C 82.7153 % 6.06 C
3081 27-09-2018 00:00:00 11.32708 C 83.9236 % 8.71 C
3082 28-09-2018 00:00:00 10.18526 C 91.0982 % 8.8 C
3083 29-09-2018 00:00:00 8.2941 C 81.8056 % 5.37 C
3084 30-09-2018 00:00:00 7.9427 C 82.6726 % 5.18 C
3085 01-10-2018 00:00:00 9.71701 C 81.2778 % 6.67 C
3086 02-10-2018 00:00:00 9.17604 C 87.5625 % 7.22 C
3087 03-10-2018 00:00:00 12.2809 C 82.0521 % 9.31 C
3088 04-10-2018 00:00:00 9.78056 C 87.1875 % 7.75 C
3089 05-10-2018 00:00:00 10.63021 C 88.2743 % 8.77 C
3090 06-10-2018 00:00:00 12.7691 C 89.0000 % 11 C
3091 07-10-2018 00:00:00 13.00243 C 89.0833 % 11.25 C
3092 08-10-2018 00:00:00 10.50347 C 88.5521 % 8.69 C
3093 09-10-2018 00:00:00 11.75035 C 91.4340 % 10.4 C
3094 10-10-2018 00:00:00 13.21285 C 90.3646 % 11.67 C
3095 11-10-2018 00:00:00 14.21701 C 88.2674 % 12.31 C
3096 12-10-2018 00:00:00 15.87882 C 86.2604 % 13.59 C
3097 13-10-2018 00:00:00 15.57986 C 84.2257 % 12.93 C
3098 14-10-2018 00:00:00 14.79965 C 83.0174 % 11.95 C
3099 15-10-2018 00:00:00 13.825 C 84.5903 % 11.28 C
3100 16-10-2018 00:00:00 12.87292 C 86.4653 % 10.67 C
Sensor: Nr:Datum:Temp:Feuchte:Taupunkt:
Aussen-T/F 3101 17-10-2018 00:00:00 12.82847 C 88.3368 % 10.95 C
3102 18-10-2018 00:00:00 14.04618 C 88.4722 % 12.17 C
3103 19-10-2018 00:00:00 12.08785 C 87.8889 % 10.14 C
3104 20-10-2018 00:00:00 11.03542 C 86.2431 % 8.83 C
3105 21-10-2018 00:00:00 7.3066 C 91.4479 % 6.01 C
3106 22-10-2018 00:00:00 7.67014 C 90.5417 % 6.22 C
3107 23-10-2018 00:00:00 9.04306 C 84.6944 % 6.61 C
3108 24-10-2018 00:00:00 14.07604 C 86.3472 % 11.83 C
3109 25-10-2018 00:00:00 12.94722 C 83.3368 % 10.19 C
3110 26-10-2018 00:00:00 10.21354 C 80.8299 % 7.07 C
3111 27-10-2018 00:00:00 6.27118 C 90.9340 % 4.9 C
3112 28-10-2018 00:00:00 5.67778 C 83.1424 % 3.05 C
3113 29-10-2018 00:00:00 6.43264 C 84.8160 % 4.07 C
3114 30-10-2018 00:00:00 6.2809 C 91.5868 % 5.02 C
3115 31-10-2018 00:00:00 7.45382 C 86.8194 % 5.41 C
3116 01-11-2018 00:00:00 6.13194 C 95.0799 % 5.4 C
3117 02-11-2018 00:00:00 8.86597 C 94.0486 % 7.96 C
3118 03-11-2018 00:00:00 3.50521 C 96.4549 % 3 C
3119 04-11-2018 00:00:00 6.86007 C 95.2361 % 6.15 C
3120 05-11-2018 00:00:00 10.39097 C 92.1042 % 9.17 C
3121 06-11-2018 00:00:00 8.41806 C 95.6667 % 7.77 C
3122 07-11-2018 00:00:00 9.32118 C 92.4167 % 8.16 C
3123 08-11-2018 00:00:00 10.425 C 89.0660 % 8.7 C
3124 09-11-2018 00:00:00 9.62604 C 92.9861 % 8.55 C
3125 10-11-2018 00:00:00 11.90347 C 90.1250 % 10.34 C
Sensor: Nr:Datum:Temp:Feuchte:Taupunkt:
Aussen-T/F 3126 11-11-2018 00:00:00 12.04618 C 90.5972 % 10.56 C
3127 12-11-2018 00:00:00 13.70069 C 90.0278 % 12.1 C
3128 13-11-2018 00:00:00 10.46076 C 92.4965 % 9.3 C
3129 14-11-2018 00:00:00 6.18264 C 96.5938 % 5.68 C
3130 15-11-2018 00:00:00 6.9816 C 91.5660 % 5.71 C
3131 16-11-2018 00:00:00 5.92778 C 89.7882 % 4.38 C
3132 17-11-2018 00:00:00 2.75417 C 88.6667 % 1.07 C
3133 18-11-2018 00:00:00 1.8566 C 79.8333 % -1.25 C
3134 19-11-2018 00:00:00 3.57014 C 81.2153 % 0.66 C
3135 20-11-2018 00:00:00 3.50972 C 80.1910 % 0.43 C
3136 21-11-2018 00:00:00 2.50312 C 88.6979 % 0.83 C
3137 22-11-2018 00:00:00 2.91458 C 88.0903 % 1.14 C
3138 23-11-2018 00:00:00 0.10868 C 95.3785 % -0.54 C
3139 24-11-2018 00:00:00 4.74792 C 96.2674 % 4.21 C
3140 25-11-2018 00:00:00 5.98785 C 95.8785 % 5.38 C
3141 26-11-2018 00:00:00 6.65625 C 87.8958 % 4.8 C
3142 27-11-2018 00:00:00 4.12465 C 83.8368 % 1.64 C
3143 28-11-2018 00:00:00 3.7 C 91.6667 % 2.47 C
3144 29-11-2018 00:00:00 5.67875 C 92.7735 % 4.6 C
3145 30-11-2018 00:00:00 7.44514 C 94.6875 % 6.65 C
3146 01-12-2018 00:00:00 7.48993 C 91.5833 % 6.21 C
3147 02-12-2018 00:00:00 11.28056 C 93.0868 % 10.21 C
3148 03-12-2018 00:00:00 11.76701 C 95.7708 % 11.11 C
3149 04-12-2018 00:00:00 6.48715 C 90.9653 % 5.12 C
3150 05-12-2018 00:00:00 3.60729 C 96.1806 % 3.06 C
Sensor: Nr:Datum:Temp:Feuchte:Taupunkt:
Aussen-T/F 3151 06-12-2018 00:00:00 9.76042 C 93.8924 % 8.83 C
3152 07-12-2018 00:00:00 11.22882 C 86.6667 % 9.09 C
3153 08-12-2018 00:00:00 7.97361 C 88.5035 % 6.19 C
3154 09-12-2018 00:00:00 8.02544 C 87.9756 % 6.16 C
3155 10-12-2018 00:00:00 4.96771 C 91.2639 % 3.67 C
3156 11-12-2018 00:00:00 3.84375 C 93.7118 % 2.93 C
3157 12-12-2018 00:00:00 2.70801 C 95.4948 % 2.06 C
3158 13-12-2018 00:00:00 1.36181 C 87.4618 % -0.49 C
3159 14-12-2018 00:00:00 1.15521 C 77.4757 % -2.33 C
3160 15-12-2018 00:00:00 0.62683 C 78.6202 % -2.65 C
3161 16-12-2018 00:00:00 0.77743 C 90.5382 % -0.59 C
3162 17-12-2018 00:00:00 4.19722 C 94.8194 % 3.44 C
3163 18-12-2018 00:00:00 5.08229 C 90.2917 % 3.63 C
3164 19-12-2018 00:00:00 6.54495 C 88.8537 % 4.84 C
3165 20-12-2018 00:00:00 7.58741 C 89.6818 % 6 C
3166 21-12-2018 00:00:00 10.78507 C 86.4514 % 8.62 C
3167 22-12-2018 00:00:00 9.94266 C 85.9091 % 7.7 C
3168 23-12-2018 00:00:00 8.60868 C 93.6563 % 7.65 C
3169 24-12-2018 00:00:00 4.88924 C 90.8750 % 3.53 C
3170 25-12-2018 00:00:00 1.85208 C 93.1667 % 0.87 C
3171 26-12-2018 00:00:00 -0.91736 C 95.5035 % -1.54 C
3172 27-12-2018 00:00:00 0.08125 C 95.8090 % -0.51 C
3173 28-12-2018 00:00:00 0.225 C 94.9375 % -0.49 C
3174 29-12-2018 00:00:00 2.70972 C 93.3576 % 1.75 C
3175 30-12-2018 00:00:00 7.50313 C 87.4271 % 5.55 C
Sensor: Nr:Datum:Temp:Feuchte:Taupunkt:
Aussen-T/F 3176 31-12-2018 00:00:00 7.59271 C 96.4201 % 7.06 C
3177 01-01-2019 00:00:00 7.09271 C 92.0833 % 5.9 C
3178 02-01-2019 00:00:00 3.70104 C 82.7847 % 1.05 C
3179 03-01-2019 00:00:00 2.03715 C 93.0000 % 1.03 C
3180 04-01-2019 00:00:00 3.13785 C 91.9826 % 1.96 C
3181 05-01-2019 00:00:00 5.92632 C 93.3825 % 4.94 C
3182 06-01-2019 00:00:00 5.76944 C 91.7674 % 4.54 C
3183 07-01-2019 00:00:00 5.50417 C 89.8819 % 3.98 C
3184 08-01-2019 00:00:00 6.62222 C 85.9688 % 4.45 C
3185 09-01-2019 00:00:00 3.90486 C 83.8368 % 1.43 C
3186 10-01-2019 00:00:00 2.05694 C 83.7708 % -0.39 C
3187 11-01-2019 00:00:00 2.82847 C 94.7882 % 2.08 C
3188 12-01-2019 00:00:00 5.96702 C 92.9734 % 4.92 C
3189 13-01-2019 00:00:00 7.73715 C 94.1493 % 6.86 C
3190 14-01-2019 00:00:00 5.07083 C 89.5625 % 3.5 C
3191 15-01-2019 00:00:00 4.78854 C 89.1007 % 3.15 C
3192 16-01-2019 00:00:00 5.27187 C 85.4861 % 3.04 C
3193 17-01-2019 00:00:00 5.0066 C 87.3924 % 3.09 C
3194 18-01-2019 00:00:00 0.77569 C 91.8611 % -0.39 C
3195 19-01-2019 00:00:00 -2.72396 C 93.3299 % -3.65 C
3196 20-01-2019 00:00:00 -4.97187 C 92.8854 % -5.94 C
3197 21-01-2019 00:00:00 -6.20972 C 93.8472 % -7.04 C
3198 22-01-2019 00:00:00 -4.96667 C 92.0938 % -6.05 C
3199 23-01-2019 00:00:00 -1.57743 C 89.4028 % -3.09 C
3200 24-01-2019 00:00:00 -1.91736 C 83.8854 % -4.27 C
Sensor: Nr:Datum:Temp:Feuchte:Taupunkt:
Aussen-T/F 3201 25-01-2019 00:00:00 0.28403 C 88.1354 % -1.44 C
3202 26-01-2019 00:00:00 4.48229 C 92.3229 % 3.35 C
3203 27-01-2019 00:00:00 5.94583 C 90.0868 % 4.45 C
3204 28-01-2019 00:00:00 3.17118 C 90.8854 % 1.83 C
3205 29-01-2019 00:00:00 1.73021 C 89.6875 % 0.22 C
3206 30-01-2019 00:00:00 0.45972 C 93.3264 % -0.49 C
3207 31-01-2019 00:00:00 -0.09826 C 94.7188 % -0.84 C
3208 01-02-2019 00:00:00 1.74826 C 95.6389 % 1.13 C
3209 02-02-2019 00:00:00 2.46701 C 96.8611 % 2.02 C
3210 03-02-2019 00:00:00 2.7 C 88.6910 % 1.02 C
3211 04-02-2019 00:00:00 1.83229 C 87.0625 % -0.09 C
3212 05-02-2019 00:00:00 4.34375 C 81.1771 % 1.41 C
3213 06-02-2019 00:00:00 1.17639 C 89.9688 % -0.28 C
3214 07-02-2019 00:00:00 5.09549 C 88.0833 % 3.29 C
3215 08-02-2019 00:00:00 7.42604 C 83.5417 % 4.83 C
3216 09-02-2019 00:00:00 8.6309 C 79.8056 % 5.35 C
3217 10-02-2019 00:00:00 7.96076 C 88.4965 % 6.18 C
3218 11-02-2019 00:00:00 4.86736 C 86.4931 % 2.81 C
3219 12-02-2019 00:00:00 3.71597 C 86.6563 % 1.7 C
3220 13-02-2019 00:00:00 1.77951 C 91.5833 % 0.56 C
3221 14-02-2019 00:00:00 0.77431 C 92.7674 % -0.26 C
3222 15-02-2019 00:00:00 2.33854 C 89.2917 % 0.76 C
3223 16-02-2019 00:00:00 3.375 C 88.6319 % 1.68 C
3224 17-02-2019 00:00:00 3.45451 C 89.9236 % 1.96 C
3225 18-02-2019 00:00:00 3.69653 C 86.8368 % 1.71 C
Sensor: Nr:Datum:Temp:Feuchte:Taupunkt:
Aussen-T/F 3226 19-02-2019 00:00:00 5.85868 C 87.7118 % 3.98 C
3227 20-02-2019 00:00:00 4.70694 C 89.0660 % 3.06 C
3228 21-02-2019 00:00:00 6.3625 C 90.0174 % 4.85 C
3229 22-02-2019 00:00:00 9.91111 C 88.0347 % 8.03 C
3230 23-02-2019 00:00:00 5.41076 C 78.7188 % 2.02 C
3231 24-02-2019 00:00:00 3.39271 C 73.0729 % -0.96 C
3232 25-02-2019 00:00:00 5.05139 C 74.1181 % 0.83 C
3233 26-02-2019 00:00:00 6.18646 C 80.1042 % 3.02 C
3234 27-02-2019 00:00:00 6.63576 C 79.5313 % 3.36 C
3235 28-02-2019 00:00:00 8.81701 C 78.9201 % 5.37 C
3236 01-03-2019 00:00:00 8.12708 C 91.9583 % 6.9 C
3237 02-03-2019 00:00:00 8.64236 C 85.0868 % 6.28 C
3238 03-03-2019 00:00:00 11.11319 C 80.0069 % 7.8 C
3239 04-03-2019 00:00:00 9.71875 C 78.3854 % 6.15 C
3240 05-03-2019 00:00:00 6.87396 C 81.6181 % 3.95 C
3241 06-03-2019 00:00:00 10.01944 C 78.9792 % 6.55 C
3242 07-03-2019 00:00:00 10.20729 C 79.2014 % 6.77 C
3243 08-03-2019 00:00:00 8.18854 C 79.1181 % 4.79 C
3244 09-03-2019 00:00:00 10.36875 C 76.7188 % 6.46 C
3245 10-03-2019 00:00:00 9.55694 C 76.8507 % 5.7 C
3246 11-03-2019 00:00:00 4.7934 C 79.8264 % 1.61 C
3247 12-03-2019 00:00:00 6.61563 C 70.1319 % 1.57 C
3248 13-03-2019 00:00:00 6.20382 C 82.8472 % 3.51 C
3249 14-03-2019 00:00:00 7.03611 C 87.2674 % 5.07 C
3250 15-03-2019 00:00:00 10.13993 C 87.2014 % 8.11 C
Sensor: Nr:Datum:Temp:Feuchte:Taupunkt:
Aussen-T/F 3251 16-03-2019 00:00:00 10.23472 C 85.5417 % 7.92 C
3252 17-03-2019 00:00:00 8.66319 C 77.8160 % 5.02 C
3253 18-03-2019 00:00:00 4.96458 C 85.1458 % 2.68 C
3254 19-03-2019 00:00:00 3.83715 C 80.5000 % 0.8 C
3255 20-03-2019 00:00:00 5.47951 C 77.2882 % 1.83 C
3256 21-03-2019 00:00:00 7.53194 C 73.6076 % 3.13 C
3257 22-03-2019 00:00:00 9.15799 C 72.1563 % 4.41 C
3258 23-03-2019 00:00:00 6.18576 C 87.5035 % 4.27 C
3259 24-03-2019 00:00:00 6.4583 C 83.7380 % 3.91 C
3260 25-03-2019 00:00:00 5.13299 C 86.0243 % 2.99 C
3261 26-03-2019 00:00:00 6.64792 C 81.5799 % 3.73 C
3262 27-03-2019 00:00:00 6.81528 C 80.7535 % 3.75 C
3263 28-03-2019 00:00:00 7.32535 C 81.7951 % 4.43 C
3264 29-03-2019 00:00:00 8.96493 C 79.2708 % 5.57 C
3265 30-03-2019 00:00:00 10.50104 C 72.7500 % 5.82 C
3266 31-03-2019 00:00:00 10.31594 C 80.1486 % 7.05 C
3267 01-04-2019 00:00:00 9.41771 C 75.2326 % 5.26 C
3268 02-04-2019 00:00:00 10.74375 C 76.1979 % 6.73 C
3269 03-04-2019 00:00:00 8.37083 C 86.8889 % 6.32 C
3270 04-04-2019 00:00:00 6.05799 C 93.2604 % 5.05 C
3271 05-04-2019 00:00:00 6.32535 C 92.0556 % 5.13 C
3272 06-04-2019 00:00:00 10.20313 C 83.4549 % 7.53 C
3273 07-04-2019 00:00:00 12.02083 C 75.0764 % 7.75 C
3274 08-04-2019 00:00:00 12.69757 C 85.2188 % 10.28 C
3275 09-04-2019 00:00:00 12.23472 C 88.4201 % 10.38 C
Sensor: Nr:Datum:Temp:Feuchte:Taupunkt:
Aussen-T/F 3276 10-04-2019 00:00:00 10.80035 C 65.8750 % 4.69 C
3277 11-04-2019 00:00:00 6.94306 C 60.9931 % -0.05 C
3278 12-04-2019 00:00:00 5.01528 C 58.9653 % -2.32 C
3279 13-04-2019 00:00:00 3.85556 C 75.6458 % -0.04 C
3280 14-04-2019 00:00:00 5.53576 C 76.5590 % 1.75 C
3281 15-04-2019 00:00:00 10.42187 C 69.5868 % 5.11 C
3282 16-04-2019 00:00:00 11.20417 C 67.0417 % 5.32 C
3283 17-04-2019 00:00:00 12.74861 C 83.8576 % 10.09 C
3284 18-04-2019 00:00:00 14.16528 C 65.0556 % 7.7 C
3285 19-04-2019 00:00:00 15.41285 C 56.3681 % 6.78 C
3286 20-04-2019 00:00:00 14.87153 C 61.3125 % 7.5 C
3287 21-04-2019 00:00:00 15.62813 C 58.4688 % 7.52 C
3288 22-04-2019 00:00:00 14.99375 C 59.5382 % 7.19 C
3289 23-04-2019 00:00:00 15.15903 C 61.0799 % 7.72 C
3290 24-04-2019 00:00:00 15.11424 C 73.1042 % 10.34 C
3291 25-04-2019 00:00:00 13.28785 C 78.5139 % 9.64 C
3292 26-04-2019 00:00:00 11.86806 C 83.8681 % 9.23 C
3293 27-04-2019 00:00:00 9.34688 C 89.7569 % 7.75 C
3294 28-04-2019 00:00:00 8.50208 C 83.0000 % 5.79 C
3295 29-04-2019 00:00:00 8.56736 C 84.4653 % 6.1 C
3296 30-04-2019 00:00:00 14.05278 C 68.6979 % 8.39 C
3297 01-05-2019 00:00:00 12.7816 C 76.3333 % 8.73 C
3298 02-05-2019 00:00:00 11.4566 C 80.2535 % 8.18 C
3299 03-05-2019 00:00:00 11.00208 C 73.3056 % 6.42 C
3300 04-05-2019 00:00:00 6.36493 C 84.2014 % 3.9 C
Sensor: Nr:Datum:Temp:Feuchte:Taupunkt:
Aussen-T/F 3301 05-05-2019 00:00:00 6.67882 C 81.4167 % 3.73 C
3302 06-05-2019 00:00:00 7.62465 C 77.0660 % 3.87 C
3303 07-05-2019 00:00:00 9.6066 C 73.7396 % 5.16 C
3304 08-05-2019 00:00:00 9.41667 C 88.5972 % 7.63 C
3305 09-05-2019 00:00:00 11.20938 C 88.9410 % 9.46 C
3306 10-05-2019 00:00:00 12.49306 C 77.5833 % 8.69 C
3307 11-05-2019 00:00:00 10.05833 C 93.1111 % 9 C
3308 12-05-2019 00:00:00 9.40625 C 72.7778 % 4.78 C
3309 13-05-2019 00:00:00 9.96736 C 61.6701 % 2.96 C
3310 14-05-2019 00:00:00 9.58299 C 64.4479 % 3.22 C
3311 15-05-2019 00:00:00 9.79896 C 60.9583 % 2.64 C
3312 16-05-2019 00:00:00 10.83854 C 70.4271 % 5.68 C
3313 17-05-2019 00:00:00 11.60069 C 89.4896 % 9.93 C
3314 18-05-2019 00:00:00 14.44306 C 85.5035 % 12.04 C
3315 19-05-2019 00:00:00 15.85694 C 83.5868 % 13.08 C
3316 20-05-2019 00:00:00 13.90347 C 89.8125 % 12.26 C
3317 21-05-2019 00:00:00 12.49722 C 93.0868 % 11.41 C
3318 22-05-2019 00:00:00 13.38785 C 80.8681 % 10.17 C
3319 23-05-2019 00:00:00 15.11875 C 74.1389 % 10.55 C
3320 24-05-2019 00:00:00 16.93437 C 70.9271 % 11.63 C
3321 25-05-2019 00:00:00 15.60035 C 67.4167 % 9.59 C
3322 26-05-2019 00:00:00 15.92014 C 74.4549 % 11.39 C
3323 27-05-2019 00:00:00 14.98924 C 90.8889 % 13.51 C
3324 28-05-2019 00:00:00 13.95729 C 85.1146 % 11.5 C
3325 29-05-2019 00:00:00 14.97951 C 68.2535 % 9.18 C
Sensor: Nr:Datum:Temp:Feuchte:Taupunkt:
Aussen-T/F 3326 30-05-2019 00:00:00 15.62396 C 78.5069 % 11.9 C
3327 31-05-2019 00:00:00 19.22674 C 74.1806 % 14.52 C
3328 01-06-2019 00:00:00 19.98924 C 74.3090 % 15.28 C
3329 02-06-2019 00:00:00 22.09028 C 70.5521 % 16.49 C
3330 03-06-2019 00:00:00 20.85625 C 73.4583 % 15.94 C
3331 04-06-2019 00:00:00 21.5059 C 73.6146 % 16.59 C
3332 05-06-2019 00:00:00 23.45243 C 67.8507 % 17.17 C
3333 06-06-2019 00:00:00 15.94271 C 78.5556 % 12.22 C
3334 07-06-2019 00:00:00 15.6809 C 76.3646 % 11.54 C
3335 08-06-2019 00:00:00 16.15243 C 62.7743 % 9.06 C
3336 09-06-2019 00:00:00 16.23438 C 72.8542 % 11.36 C
3337 10-06-2019 00:00:00 19.2684 C 73.8403 % 14.49 C
3338 11-06-2019 00:00:00 17.19063 C 83.4826 % 14.37 C
3339 12-06-2019 00:00:00 16.48854 C 82.3194 % 13.47 C
3340 13-06-2019 00:00:00 15.92743 C 75.5694 % 11.62 C
3341 14-06-2019 00:00:00 17.88507 C 82.6875 % 14.9 C
3342 15-06-2019 00:00:00 19.62083 C 79.3646 % 15.95 C
3343 16-06-2019 00:00:00 19.34479 C 71.4271 % 14.05 C
3344 17-06-2019 00:00:00 18.93646 C 73.1111 % 14.02 C
3345 18-06-2019 00:00:00 21.4625 C 72.7188 % 16.36 C
3346 19-06-2019 00:00:00 22.17049 C 73.3125 % 17.17 C
3347 20-06-2019 00:00:00 19.48229 C 80.3681 % 16.01 C
3348 21-06-2019 00:00:00 18.55694 C 68.4306 % 12.64 C
3349 22-06-2019 00:00:00 19.16771 C 69.5729 % 13.47 C
3350 23-06-2019 00:00:00 21.78854 C 71.5521 % 16.42 C
Sensor: Nr:Datum:Temp:Feuchte:Taupunkt:
Aussen-T/F 3351 24-06-2019 00:00:00 24.3809 C 68.9965 % 18.32 C
3352 25-06-2019 00:00:00 26.30625 C 65.6458 % 19.36 C
3353 26-06-2019 00:00:00 26.97257 C 66.5486 % 20.21 C
3354 27-06-2019 00:00:00 24.42326 C 58.6910 % 15.81 C
3355 28-06-2019 00:00:00 21.63368 C 60.1458 % 13.57 C
3356 29-06-2019 00:00:00 24.00937 C 53.3750 % 13.95 C
3357 30-06-2019 00:00:00 25.32014 C 62.4688 % 17.63 C
3358 01-07-2019 00:00:00 22.68715 C 60.6875 % 14.7 C
3359 02-07-2019 00:00:00 19.04306 C 61.0868 % 11.38 C
3360 03-07-2019 00:00:00 17.43472 C 61.1146 % 9.87 C
3361 04-07-2019 00:00:00 18.23021 C 56.4375 % 9.43 C
3362 05-07-2019 00:00:00 20.73889 C 56.5486 % 11.8 C
3363 06-07-2019 00:00:00 21.18681 C 61.5174 % 13.5 C
3364 07-07-2019 00:00:00 17.74306 C 68.3819 % 11.85 C
3365 08-07-2019 00:00:00 14.44931 C 70.9271 % 9.25 C
3366 09-07-2019 00:00:00 15.40868 C 66.0868 % 9.11 C
3367 10-07-2019 00:00:00 16.98854 C 57.9271 % 8.66 C
3368 11-07-2019 00:00:00 17.76076 C 79.7500 % 14.22 C
3369 12-07-2019 00:00:00 17.3375 C 92.0313 % 16.03 C
3370 13-07-2019 00:00:00 17.99896 C 83.4549 % 15.15 C
3371 14-07-2019 00:00:00 16.92569 C 75.5729 % 12.58 C
3372 15-07-2019 00:00:00 16.34757 C 73.9826 % 11.7 C
3373 16-07-2019 00:00:00 16.0375 C 75.3507 % 11.68 C
3374 17-07-2019 00:00:00 17.21979 C 76.2847 % 13.01 C
3375 18-07-2019 00:00:00 19.06944 C 74.1424 % 14.36 C
Sensor: Nr:Datum:Temp:Feuchte:Taupunkt:
Aussen-T/F 3376 19-07-2019 00:00:00 20.2441 C 77.7257 % 16.23 C
3377 20-07-2019 00:00:00 21.61736 C 75.2292 % 17.04 C
3378 21-07-2019 00:00:00 21.96076 C 68.7569 % 15.96 C
3379 22-07-2019 00:00:00 22.29861 C 66.0139 % 15.64 C
3380 23-07-2019 00:00:00 25.05139 C 61.5764 % 17.15 C
3381 24-07-2019 00:00:00 27.05069 C 57.6528 % 17.98 C
3382 25-07-2019 00:00:00 28.69028 C 53.5729 % 18.33 C
3383 26-07-2019 00:00:00 27.21528 C 56.0694 % 17.69 C
3384 27-07-2019 00:00:00 23.20069 C 79.9340 % 19.54 C
3385 28-07-2019 00:00:00 19.86597 C 90.5938 % 18.28 C
3386 29-07-2019 00:00:00 21.16354 C 73.6146 % 16.26 C
3387 30-07-2019 00:00:00 21.86528 C 66.5625 % 15.36 C
3388 31-07-2019 00:00:00 21.06111 C 60.7778 % 13.2 C
3389 01-08-2019 00:00:00 19.46424 C 65.5833 % 12.85 C
3390 02-08-2019 00:00:00 20.52743 C 69.8611 % 14.84 C
3391 03-08-2019 00:00:00 20.39271 C 72.5833 % 15.3 C
3392 04-08-2019 00:00:00 20.53854 C 68.3681 % 14.51 C
3393 05-08-2019 00:00:00 22.56562 C 67.3333 % 16.21 C
3394 06-08-2019 00:00:00 19.97604 C 80.0104 % 16.42 C
3395 07-08-2019 00:00:00 19.07535 C 87.4479 % 16.94 C
3396 08-08-2019 00:00:00 20.39132 C 75.4826 % 15.91 C
3397 09-08-2019 00:00:00 19.85833 C 86.8125 % 17.6 C
3398 10-08-2019 00:00:00 20.67986 C 77.2986 % 16.56 C
3399 11-08-2019 00:00:00 16.99444 C 80.9028 % 13.69 C
3400 12-08-2019 00:00:00 16.4441 C 84.5729 % 13.84 C
Sensor: Nr:Datum:Temp:Feuchte:Taupunkt:
Aussen-T/F 3401 13-08-2019 00:00:00 15.94306 C 78.5799 % 12.23 C
3402 14-08-2019 00:00:00 16.52882 C 76.0139 % 12.29 C
3403 15-08-2019 00:00:00 17.34306 C 88.4896 % 15.42 C
3404 16-08-2019 00:00:00 17.72257 C 80.7049 % 14.37 C
3405 17-08-2019 00:00:00 18.07049 C 86.6146 % 15.8 C
3406 18-08-2019 00:00:00 19.8941 C 90.2847 % 18.25 C
3407 19-08-2019 00:00:00 18.3684 C 77.8715 % 14.44 C
3408 20-08-2019 00:00:00 15.78611 C 80.0347 % 12.35 C
3409 21-08-2019 00:00:00 16.52222 C 75.4306 % 12.17 C
3410 22-08-2019 00:00:00 17.27465 C 72.3576 % 12.26 C
3411 23-08-2019 00:00:00 18.44792 C 70.9271 % 13.08 C
3412 24-08-2019 00:00:00 19.52326 C 70.7153 % 14.06 C
3413 25-08-2019 00:00:00 21.57431 C 75.4097 % 17.04 C
3414 26-08-2019 00:00:00 22.3684 C 80.4097 % 18.83 C
3415 27-08-2019 00:00:00 22.81979 C 79.4132 % 19.07 C
3416 28-08-2019 00:00:00 23.38924 C 73.0868 % 18.29 C
3417 29-08-2019 00:00:00 22.04201 C 76.9236 % 17.81 C
3418 30-08-2019 00:00:00 21.0059 C 72.4444 % 15.86 C
3419 31-08-2019 00:00:00 22.0566 C 72.1215 % 16.8 C
3420 01-09-2019 00:00:00 18.73056 C 76.1563 % 14.45 C
3421 02-09-2019 00:00:00 15.43958 C 67.8264 % 9.53 C
3422 03-09-2019 00:00:00 15.68611 C 70.4340 % 10.33 C
3423 04-09-2019 00:00:00 16.83646 C 77.0521 % 12.79 C
3424 05-09-2019 00:00:00 15.41285 C 74.8958 % 10.99 C
3425 06-09-2019 00:00:00 13.54271 C 71.3021 % 8.45 C
Sensor: Nr:Datum:Temp:Feuchte:Taupunkt:
Aussen-T/F 3426 07-09-2019 00:00:00 12.95382 C 86.8160 % 10.81 C
3427 08-09-2019 00:00:00 12.67778 C 94.2569 % 11.78 C
3428 09-09-2019 00:00:00 12.50868 C 90.4583 % 10.99 C
3429 10-09-2019 00:00:00 11.86563 C 85.2361 % 9.47 C
3430 11-09-2019 00:00:00 13.34931 C 80.9444 % 10.15 C
3431 12-09-2019 00:00:00 19.07292 C 78.3889 % 15.23 C
3432 13-09-2019 00:00:00 17.76319 C 88.1424 % 15.78 C
3433 14-09-2019 00:00:00 15.58229 C 81.1806 % 12.37 C
3434 15-09-2019 00:00:00 15.40243 C 78.5451 % 11.69 C
3435 16-09-2019 00:00:00 16.09444 C 78.7569 % 12.41 C
3436 17-09-2019 00:00:00 15.6191 C 73.6736 % 10.94 C
3437 18-09-2019 00:00:00 11.41215 C 73.9826 % 6.95 C
3438 19-09-2019 00:00:00 10.47361 C 74.5903 % 6.16 C
3439 20-09-2019 00:00:00 10.72153 C 72.3958 % 5.97 C
3440 21-09-2019 00:00:00 12.32465 C 69.3090 % 6.87 C
3441 22-09-2019 00:00:00 14.8625 C 75.8819 % 10.65 C
3442 23-09-2019 00:00:00 16.54479 C 84.7118 % 13.96 C
3443 24-09-2019 00:00:00 14.13194 C 90.2847 % 12.57 C
3444 25-09-2019 00:00:00 15.26806 C 90.7986 % 13.77 C
3445 26-09-2019 00:00:00 16.26111 C 92.6840 % 15.07 C
3446 27-09-2019 00:00:00 16.20451 C 86.9097 % 14.02 C
3447 28-09-2019 00:00:00 15.30903 C 84.9306 % 12.79 C
3448 29-09-2019 00:00:00 16.12778 C 82.9965 % 13.24 C
3449 30-09-2019 00:00:00 15.31424 C 80.2917 % 11.94 C
3450 01-10-2019 00:00:00 15.98125 C 88.2743 % 14.04 C
Sensor: Nr:Datum:Temp:Feuchte:Taupunkt:
Aussen-T/F 3451 02-10-2019 00:00:00 12.49479 C 83.0764 % 9.7 C
3452 03-10-2019 00:00:00 9.77535 C 90.5313 % 8.3 C
3453 04-10-2019 00:00:00 10.31563 C 95.1563 % 9.58 C
3454 05-10-2019 00:00:00 10.64965 C 87.9444 % 8.74 C
3455 06-10-2019 00:00:00 8.34063 C 95.9896 % 7.74 C
3456 07-10-2019 00:00:00 10.09167 C 94.3785 % 9.23 C
3457 08-10-2019 00:00:00 12.83333 C 94.7292 % 12.01 C
3458 09-10-2019 00:00:00 11.68715 C 92.5069 % 10.51 C
3459 10-10-2019 00:00:00 11.67509 C 86.3404 % 9.47 C
3460 11-10-2019 00:00:00 12.72361 C 89.2500 % 11 C
3461 12-10-2019 00:00:00 13.63368 C 89.1597 % 11.88 C
3462 13-10-2019 00:00:00 16.44722 C 91.2153 % 15.01 C
3463 14-10-2019 00:00:00 16.00938 C 89.6632 % 14.31 C
3464 15-10-2019 00:00:00 14.32674 C 92.2014 % 13.08 C
3465 16-10-2019 00:00:00 12.65347 C 94.1042 % 11.73 C
3466 17-10-2019 00:00:00 14.64826 C 90.9861 % 13.19 C
3467 18-10-2019 00:00:00 12.52604 C 91.7500 % 11.22 C
3468 19-10-2019 00:00:00 12.88561 C 90.9460 % 11.44 C
3469 20-10-2019 00:00:00 13.60139 C 97.5645 % 13.22 C
3470 21-10-2019 00:00:00 13.67735 C 93.5157 % 12.65 C
3471 22-10-2019 00:00:00 11.49819 C 91.8520 % 10.22 C
3472 23-10-2019 00:00:00 11.05972 C 94.7847 % 10.26 C
3473 24-10-2019 00:00:00 14.06458 C 92.1528 % 12.81 C
3474 25-10-2019 00:00:00 13.32951 C 87.3889 % 11.28 C
3475 26-10-2019 00:00:00 13.17604 C 91.4201 % 11.81 C
Sensor: Nr:Datum:Temp:Feuchte:Taupunkt:
Aussen-T/F 3476 27-10-2019 00:00:00 10.25174 C 93.0868 % 9.19 C
3477 28-10-2019 00:00:00 6.33854 C 96.7847 % 5.87 C
3478 29-10-2019 00:00:00 6.56632 C 92.0972 % 5.38 C
3479 30-10-2019 00:00:00 3.52778 C 93.9410 % 2.65 C
3480 31-10-2019 00:00:00 2.23438 C 93.5799 % 1.31 C
3481 01-11-2019 00:00:00 6.02465 C 96.1736 % 5.46 C
3482 02-11-2019 00:00:00 13.19792 C 90.2188 % 11.63 C
3483 03-11-2019 00:00:00 11.85035 C 91.8125 % 10.56 C
3484 04-11-2019 00:00:00 10.33333 C 92.9306 % 9.24 C
3485 05-11-2019 00:00:00 9.70972 C 89.4826 % 8.07 C
3486 06-11-2019 00:00:00 8.97569 C 95.1563 % 8.24 C
3487 07-11-2019 00:00:00 7.93611 C 95.3368 % 7.24 C
3488 08-11-2019 00:00:00 4.99444 C 96.5208 % 4.49 C
3489 09-11-2019 00:00:00 4.99167 C 94.0208 % 4.11 C
3490 10-11-2019 00:00:00 3.02188 C 95.6250 % 2.39 C
3491 11-11-2019 00:00:00 4.67986 C 91.5590 % 3.43 C
3492 12-11-2019 00:00:00 5.9125 C 88.3194 % 4.13 C
3493 13-11-2019 00:00:00 5.47431 C 88.2153 % 3.68 C
3494 14-11-2019 00:00:00 5.50729 C 85.9549 % 3.35 C
3495 15-11-2019 00:00:00 4.68958 C 88.1493 % 2.9 C
3496 16-11-2019 00:00:00 2.11389 C 95.5069 % 1.47 C
3497 17-11-2019 00:00:00 3.09271 C 97.1215 % 2.68 C
3498 18-11-2019 00:00:00 4.31181 C 96.2604 % 3.77 C
3499 19-11-2019 00:00:00 3.99132 C 94.7500 % 3.23 C
3500 20-11-2019 00:00:00 1.59583 C 94.7847 % 0.85 C
Sensor: Nr:Datum:Temp:Feuchte:Taupunkt:
Aussen-T/F 3501 21-11-2019 00:00:00 1.90833 C 96.0347 % 1.34 C
3502 22-11-2019 00:00:00 4.39097 C 95.3056 % 3.71 C
3503 23-11-2019 00:00:00 5.38785 C 93.0174 % 4.35 C
3504 24-11-2019 00:00:00 2.90104 C 97.1979 % 2.5 C
3505 25-11-2019 00:00:00 4.80833 C 97.1042 % 4.39 C
3506 26-11-2019 00:00:00 8.38542 C 94.7500 % 7.59 C
3507 27-11-2019 00:00:00 10.34479 C 89.7222 % 8.73 C
3508 28-11-2019 00:00:00 10.92778 C 83.5694 % 8.26 C
3509 29-11-2019 00:00:00 6.44618 C 89.1771 % 4.8 C
3510 30-11-2019 00:00:00 1.19549 C 96.2257 % 0.66 C
3511 01-12-2019 00:00:00 1.79271 C 92.4965 % 0.71 C
3512 02-12-2019 00:00:00 1.98646 C 93.2778 % 1.02 C
3513 03-12-2019 00:00:00 4.75729 C 96.0625 % 4.18 C
3514 04-12-2019 00:00:00 1.34375 C 96.3681 % 0.83 C
3515 05-12-2019 00:00:00 -1.15625 C 96.9167 % -1.58 C
3516 06-12-2019 00:00:00 3.41285 C 93.3160 % 2.44 C
3517 07-12-2019 00:00:00 8.70903 C 88.7882 % 6.97 C
3518 08-12-2019 00:00:00 10.05903 C 86.0243 % 7.83 C
3519 09-12-2019 00:00:00 7.72222 C 84.5833 % 5.29 C
3520 10-12-2019 00:00:00 3.24757 C 90.9167 % 1.91 C
3521 11-12-2019 00:00:00 3.97292 C 94.6632 % 3.2 C
3522 12-12-2019 00:00:00 3.52361 C 93.9618 % 2.65 C
3523 13-12-2019 00:00:00 4.09722 C 92.0938 % 2.93 C
3524 14-12-2019 00:00:00 6.8934 C 85.5833 % 4.65 C
3525 15-12-2019 00:00:00 7.90069 C 88.2847 % 6.09 C
Sensor: Nr:Datum:Temp:Feuchte:Taupunkt:
Aussen-T/F 3526 16-12-2019 00:00:00 8.12951 C 96.7951 % 7.65 C
3527 17-12-2019 00:00:00 10.43056 C 89.8924 % 8.85 C
3528 18-12-2019 00:00:00 7.77014 C 93.5347 % 6.79 C
3529 19-12-2019 00:00:00 5.57986 C 95.8611 % 4.97 C
3530 20-12-2019 00:00:00 7.73264 C 92.3542 % 6.57 C
3531 21-12-2019 00:00:00 7.24826 C 90.1111 % 5.74 C
3532 22-12-2019 00:00:00 8.18368 C 89.0243 % 6.49 C
3533 23-12-2019 00:00:00 7.83021 C 88.5660 % 6.06 C
3534 24-12-2019 00:00:00 7.67986 C 89.1910 % 6.02 C
3535 25-12-2019 00:00:00 7.66389 C 90.7500 % 6.25 C
3536 26-12-2019 00:00:00 4.9934 C 96.1910 % 4.44 C
3537 27-12-2019 00:00:00 5.12153 C 94.6042 % 4.33 C
3538 28-12-2019 00:00:00 -0.27465 C 95.9965 % -0.83 C
3539 29-12-2019 00:00:00 -1.04618 C 95.4028 % -1.69 C
3540 30-12-2019 00:00:00 -0.88507 C 94.5521 % -1.65 C
3541 31-12-2019 00:00:00 0.52326 C 93.2639 % -0.44 C
3542 01-01-2020 00:00:00 0.89583 C 94.9653 % 0.18 C
3543 02-01-2020 00:00:00 1.68611 C 94.9097 % 0.96 C
3544 03-01-2020 00:00:00 7.56111 C 91.1042 % 6.21 C
3545 04-01-2020 00:00:00 5.45936 C 89.2438 % 3.83 C
3546 05-01-2020 00:00:00 5.96021 C 93.0845 % 4.93 C
3547 06-01-2020 00:00:00 2.98542 C 93.2813 % 2.01 C
3548 07-01-2020 00:00:00 5.07812 C 92.2535 % 3.93 C
3549 08-01-2020 00:00:00 8.28333 C 92.5347 % 7.15 C
3550 09-01-2020 00:00:00 10.92535 C 92.7778 % 9.8 C
Sensor: Nr:Datum:Temp:Feuchte:Taupunkt:
Aussen-T/F 3551 10-01-2020 00:00:00 8.91667 C 88.2604 % 7.08 C
3552 11-01-2020 00:00:00 4.34236 C 88.6354 % 2.64 C
3553 12-01-2020 00:00:00 5.14718 C 87.9120 % 3.31 C
3554 13-01-2020 00:00:00 6.54201 C 91.7431 % 5.3 C
3555 14-01-2020 00:00:00 9.77153 C 77.8924 % 6.11 C
3556 15-01-2020 00:00:00 10.89063 C 76.6285 % 6.95 C
3557 16-01-2020 00:00:00 7.81181 C 95.4653 % 7.13 C
3558 17-01-2020 00:00:00 6.03854 C 93.7014 % 5.1 C
3559 18-01-2020 00:00:00 4.44062 C 88.2049 % 2.66 C
3560 19-01-2020 00:00:00 3.78507 C 94.1736 % 2.94 C
3561 20-01-2020 00:00:00 2.42431 C 91.7396 % 1.22 C
3562 21-01-2020 00:00:00 -1.80243 C 96.3750 % -2.3 C
3563 22-01-2020 00:00:00 -1.19236 C 97.1354 % -1.59 C
3564 23-01-2020 00:00:00 1.30764 C 97.1111 % 0.9 C
3565 24-01-2020 00:00:00 1.43415 C 91.4390 % 0.2 C
3566 25-01-2020 00:00:00 2.65128 C 94.0366 % 1.79 C
3567 26-01-2020 00:00:00 2.81007 C 94.9063 % 2.08 C
3568 27-01-2020 00:00:00 6.29028 C 94.0347 % 5.4 C
3569 28-01-2020 00:00:00 5.69583 C 86.0521 % 3.55 C
3570 29-01-2020 00:00:00 4.80035 C 82.8264 % 2.14 C
3571 30-01-2020 00:00:00 7.99861 C 84.7257 % 5.59 C
3572 31-01-2020 00:00:00 13.03785 C 84.2014 % 10.44 C
3573 01-02-2020 00:00:00 11.64167 C 87.8160 % 9.69 C
3574 02-02-2020 00:00:00 10.18611 C 84.6319 % 7.72 C
3575 03-02-2020 00:00:00 10.60417 C 82.2847 % 7.71 C
Sensor: Nr:Datum:Temp:Feuchte:Taupunkt:
Aussen-T/F 3576 04-02-2020 00:00:00 5.02986 C 89.6736 % 3.48 C
3577 05-02-2020 00:00:00 3.76389 C 88.0764 % 1.98 C
3578 06-02-2020 00:00:00 0.78437 C 93.4340 % -0.15 C
3579 07-02-2020 00:00:00 0.2559 C 95.0521 % -0.44 C
3580 08-02-2020 00:00:00 1.77708 C 94.2569 % 0.95 C
3581 09-02-2020 00:00:00 8.82708 C 82.6076 % 6.03 C
3582 10-02-2020 00:00:00 8.29444 C 82.5104 % 5.5 C
3583 11-02-2020 00:00:00 5.77535 C 73.1319 % 1.35 C
3584 12-02-2020 00:00:00 4.81875 C 81.1910 % 1.87 C
3585 13-02-2020 00:00:00 4.01076 C 92.9375 % 2.97 C
3586 14-02-2020 00:00:00 6.17951 C 91.1042 % 4.84 C
3587 15-02-2020 00:00:00 6.23438 C 89.5347 % 4.64 C
3588 16-02-2020 00:00:00 14.59028 C 64.9583 % 8.08 C
3589 17-02-2020 00:00:00 8.54375 C 82.6597 % 5.77 C
3590 18-02-2020 00:00:00 7.24965 C 80.2083 % 4.07 C
3591 19-02-2020 00:00:00 6.24514 C 77.9688 % 2.7 C
3592 20-02-2020 00:00:00 8.16562 C 82.5000 % 5.37 C
3593 21-02-2020 00:00:00 5.17604 C 82.3542 % 2.42 C
3594 22-02-2020 00:00:00 8.05035 C 78.1007 % 4.47 C
3595 23-02-2020 00:00:00 10.5066 C 86.7535 % 8.4 C
3596 24-02-2020 00:00:00 8.10972 C 87.2431 % 6.12 C
3597 25-02-2020 00:00:00 9.07813 C 81.3194 % 6.05 C
3598 26-02-2020 00:00:00 4.86319 C 80.5799 % 1.81 C
3599 27-02-2020 00:00:00 2.97813 C 90.2500 % 1.54 C
3600 28-02-2020 00:00:00 3.97257 C 87.1111 % 2.03 C
Sensor: Nr:Datum:Temp:Feuchte:Taupunkt:
Aussen-T/F 3601 29-02-2020 00:00:00 8.92083 C 83.1944 % 6.23 C
3602 01-03-2020 00:00:00 7.55313 C 83.2500 % 4.9 C
3603 02-03-2020 00:00:00 6.27882 C 88.9965 % 4.6 C
3604 03-03-2020 00:00:00 4.69236 C 88.6910 % 2.99 C
3605 04-03-2020 00:00:00 5.49583 C 85.8333 % 3.32 C
3606 05-03-2020 00:00:00 6.08229 C 93.0486 % 5.05 C
3607 06-03-2020 00:00:00 6.29896 C 90.4271 % 4.85 C
3608 07-03-2020 00:00:00 6.57396 C 78.9375 % 3.19 C
3609 08-03-2020 00:00:00 9.63993 C 76.9618 % 5.8 C
3610 09-03-2020 00:00:00 7.99514 C 81.5208 % 5.03 C
3611 10-03-2020 00:00:00 9.51076 C 90.5833 % 8.05 C
3612 11-03-2020 00:00:00 14.09028 C 86.0660 % 11.8 C
3613 12-03-2020 00:00:00 11.24514 C 72.6007 % 6.51 C
3614 13-03-2020 00:00:00 7.37569 C 76.2951 % 3.49 C
3615 14-03-2020 00:00:00 6.05799 C 83.2604 % 3.44 C
3616 15-03-2020 00:00:00 8.92639 C 74.2326 % 4.6 C
3617 16-03-2020 00:00:00 9.3 C 80.2431 % 6.08 C
3618 17-03-2020 00:00:00 11.38021 C 79.9722 % 8.05 C
3619 18-03-2020 00:00:00 9.96493 C 82.5590 % 7.14 C
3620 19-03-2020 00:00:00 12.13646 C 76.1042 % 8.06 C
3621 20-03-2020 00:00:00 10.33299 C 84.0660 % 7.76 C
3622 21-03-2020 00:00:00 6.16667 C 76.4236 % 2.34 C
3623 22-03-2020 00:00:00 4.50243 C 57.8438 % -3.06 C
3624 23-03-2020 00:00:00 2.99688 C 55.3889 % -5.05 C
3625 24-03-2020 00:00:00 2.86181 C 56.4375 % -4.93 C
Sensor: Nr:Datum:Temp:Feuchte:Taupunkt:
Aussen-T/F 3626 25-03-2020 00:00:00 3.75208 C 52.7257 % -4.99 C
3627 26-03-2020 00:00:00 5.07118 C 57.3819 % -2.64 C
3628 27-03-2020 00:00:00 7.93715 C 66.7500 % 2.15 C
3629 28-03-2020 00:00:00 9.59861 C 66.6528 % 3.71 C
3630 29-03-2020 00:00:00 5.44891 C 69.6413 % 0.36 C
3631 30-03-2020 00:00:00 2.775 C 64.1319 % -3.31 C
3632 31-03-2020 00:00:00 5.47118 C 66.1771 % -0.32 C
3633 01-04-2020 00:00:00 3.8184 C 62.2569 % -2.72 C
3634 02-04-2020 00:00:00 5.06042 C 67.9931 % -0.35 C
3635 03-04-2020 00:00:00 8.20382 C 67.0382 % 2.46 C
3636 04-04-2020 00:00:00 6.78958 C 68.9722 % 1.51 C
3637 05-04-2020 00:00:00 9.49479 C 65.0729 % 3.27 C
3638 06-04-2020 00:00:00 12.0434 C 60.3299 % 4.61 C
3639 07-04-2020 00:00:00 13.80521 C 67.0417 % 7.8 C
3640 08-04-2020 00:00:00 14.48472 C 65.0764 % 8.01 C
3641 09-04-2020 00:00:00 15.29167 C 62.6840 % 8.22 C
3642 10-04-2020 00:00:00 14.13646 C 66.3542 % 7.96 C
3643 11-04-2020 00:00:00 14.06563 C 57.0417 % 5.7 C
3644 12-04-2020 00:00:00 15.15174 C 60.2361 % 7.51 C
3645 13-04-2020 00:00:00 9.40139 C 69.2118 % 4.05 C
3646 14-04-2020 00:00:00 6.11181 C 64.0868 % -0.16 C
3647 15-04-2020 00:00:00 8.67361 C 64.9514 % 2.46 C
3648 16-04-2020 00:00:00 12.83299 C 63.9514 % 6.19 C
3649 17-04-2020 00:00:00 15.23854 C 69.5278 % 9.71 C
3650 18-04-2020 00:00:00 14.52083 C 78.8333 % 10.89 C
Sensor: Nr:Datum:Temp:Feuchte:Taupunkt:
Aussen-T/F 3651 19-04-2020 00:00:00 13.06597 C 78.2396 % 9.37 C

Maximal/Minimal-Werte vom 20.04.2010 - 19.04.2020

Sensor Min Max Avg
Temp
(Aussen-T/F)
-15.3 °C
07-02-2012  08:00:00
40.4 °C
25-07-2019  16:20:00
10.94 °C
Feuchte
(Aussen-T/F)
18 %
17-07-2015  15:55:00
100 %
07-10-2012  03:05:00
81.49 %
Taupunkt
(Aussen-T/F)
-15.35 C
02-02-2012  00:00:00
21.36 C
19-06-2013  00:00:00
7.5 C

Die Daten stammen von einer Davis Vantage Pro 2 Wetter-Station und werden unter Linux mit der Software wview2wettercgi und aufbereitet. Alle Angaben erfolgen ohne Gewähr für ihre Vollständigkeit oder Richtigkeit.
Kontakt: Rainer Krienke krienke@uni-koblenz.de . Meine Webseiten an der Uni Koblenz oder privat.
Version: $Revision: 0.78 $